<?xml version="1.0" encoding="UTF-8" standalone="no" ?>
<gpx xmlns="http://www.topografix.com/GPX/1/1" xmlns:xsi="http://www.w3.org/2001/XMLSchema-instance" xsi:schemaLocation="http://www.topografix.com/GPX/1/1 http://www.topografix.com/GPX/1/1/gpx.xsd" version="1.1" creator="VisuGPX - https://www.visugpx.com">
  <metadata>
    <name>Route - Ht Koenigsbourg 86-1804</name>
  </metadata>
  <trk>
    <name><![CDATA[9455992-Le Ht-Koenigsbourg]]></name>
    <trkseg>
      <trkpt lat="48.11636" lon="7.12642">
        <ele>656</ele>
        <time>2019-04-12T10:21:44Z</time>
      </trkpt>
      <trkpt lat="48.11638" lon="7.12664">
        <ele>655</ele>
        <time>2019-04-12T10:22:44Z</time>
      </trkpt>
      <trkpt lat="48.1164" lon="7.12821">
        <ele>641</ele>
        <time>2019-04-12T10:23:44Z</time>
      </trkpt>
      <trkpt lat="48.11643" lon="7.12849">
        <ele>639</ele>
        <time>2019-04-12T10:24:44Z</time>
      </trkpt>
      <trkpt lat="48.11658" lon="7.12902">
        <ele>635</ele>
        <time>2019-04-12T10:25:44Z</time>
      </trkpt>
      <trkpt lat="48.11721" lon="7.13063">
        <ele>624</ele>
        <time>2019-04-12T10:26:44Z</time>
      </trkpt>
      <trkpt lat="48.11733" lon="7.13112">
        <ele>621</ele>
        <time>2019-04-12T10:27:44Z</time>
      </trkpt>
      <trkpt lat="48.11746" lon="7.13207">
        <ele>616</ele>
        <time>2019-04-12T10:28:44Z</time>
      </trkpt>
      <trkpt lat="48.11769" lon="7.13334">
        <ele>611</ele>
        <time>2019-04-12T10:29:44Z</time>
      </trkpt>
      <trkpt lat="48.11822" lon="7.13521">
        <ele>604</ele>
        <time>2019-04-12T10:30:44Z</time>
      </trkpt>
      <trkpt lat="48.11832" lon="7.13572">
        <ele>600</ele>
        <time>2019-04-12T10:31:44Z</time>
      </trkpt>
      <trkpt lat="48.11834" lon="7.13596">
        <ele>598</ele>
        <time>2019-04-12T10:32:44Z</time>
      </trkpt>
      <trkpt lat="48.11834" lon="7.13634">
        <ele>595</ele>
        <time>2019-04-12T10:33:44Z</time>
      </trkpt>
      <trkpt lat="48.11812" lon="7.13912">
        <ele>583</ele>
        <time>2019-04-12T10:34:44Z</time>
      </trkpt>
      <trkpt lat="48.11793" lon="7.14072">
        <ele>576</ele>
        <time>2019-04-12T10:35:44Z</time>
      </trkpt>
      <trkpt lat="48.11793" lon="7.14099">
        <ele>574</ele>
        <time>2019-04-12T10:36:44Z</time>
      </trkpt>
      <trkpt lat="48.118" lon="7.14219">
        <ele>567</ele>
        <time>2019-04-12T10:37:44Z</time>
      </trkpt>
      <trkpt lat="48.11803" lon="7.14351">
        <ele>561</ele>
        <time>2019-04-12T10:38:44Z</time>
      </trkpt>
      <trkpt lat="48.11806" lon="7.14371">
        <ele>560</ele>
        <time>2019-04-12T10:39:44Z</time>
      </trkpt>
      <trkpt lat="48.11815" lon="7.14402">
        <ele>559</ele>
        <time>2019-04-12T10:40:44Z</time>
      </trkpt>
      <trkpt lat="48.11824" lon="7.14427">
        <ele>558</ele>
        <time>2019-04-12T10:41:44Z</time>
      </trkpt>
      <trkpt lat="48.11836" lon="7.14449">
        <ele>558</ele>
        <time>2019-04-12T10:42:44Z</time>
      </trkpt>
      <trkpt lat="48.11874" lon="7.14495">
        <ele>555</ele>
        <time>2019-04-12T10:43:44Z</time>
      </trkpt>
      <trkpt lat="48.11945" lon="7.1455">
        <ele>552</ele>
        <time>2019-04-12T10:44:44Z</time>
      </trkpt>
      <trkpt lat="48.11961" lon="7.14567">
        <ele>551</ele>
        <time>2019-04-12T10:45:44Z</time>
      </trkpt>
      <trkpt lat="48.11971" lon="7.14585">
        <ele>550</ele>
        <time>2019-04-12T10:46:44Z</time>
      </trkpt>
      <trkpt lat="48.11992" lon="7.14631">
        <ele>547</ele>
        <time>2019-04-12T10:47:44Z</time>
      </trkpt>
      <trkpt lat="48.1204" lon="7.14713">
        <ele>544</ele>
        <time>2019-04-12T10:48:44Z</time>
      </trkpt>
      <trkpt lat="48.12053" lon="7.14739">
        <ele>543</ele>
        <time>2019-04-12T10:49:44Z</time>
      </trkpt>
      <trkpt lat="48.12072" lon="7.14788">
        <ele>540</ele>
        <time>2019-04-12T10:50:44Z</time>
      </trkpt>
      <trkpt lat="48.12164" lon="7.14965">
        <ele>529</ele>
        <time>2019-04-12T10:51:44Z</time>
      </trkpt>
      <trkpt lat="48.12194" lon="7.15009">
        <ele>526</ele>
        <time>2019-04-12T10:52:44Z</time>
      </trkpt>
      <trkpt lat="48.12224" lon="7.15063">
        <ele>524</ele>
        <time>2019-04-12T10:53:44Z</time>
      </trkpt>
      <trkpt lat="48.12265" lon="7.15144">
        <ele>520</ele>
        <time>2019-04-12T10:54:44Z</time>
      </trkpt>
      <trkpt lat="48.12286" lon="7.15179">
        <ele>518</ele>
        <time>2019-04-12T10:55:44Z</time>
      </trkpt>
      <trkpt lat="48.12316" lon="7.15234">
        <ele>516</ele>
        <time>2019-04-12T10:56:44Z</time>
      </trkpt>
      <trkpt lat="48.12327" lon="7.1525">
        <ele>514</ele>
        <time>2019-04-12T10:57:44Z</time>
      </trkpt>
      <trkpt lat="48.12342" lon="7.15264">
        <ele>514</ele>
        <time>2019-04-12T10:58:44Z</time>
      </trkpt>
      <trkpt lat="48.12356" lon="7.15271">
        <ele>514</ele>
        <time>2019-04-12T10:59:44Z</time>
      </trkpt>
      <trkpt lat="48.1237" lon="7.15276">
        <ele>514</ele>
        <time>2019-04-12T11:00:44Z</time>
      </trkpt>
      <trkpt lat="48.12426" lon="7.15286">
        <ele>513</ele>
        <time>2019-04-12T11:01:44Z</time>
      </trkpt>
      <trkpt lat="48.12455" lon="7.15293">
        <ele>513</ele>
        <time>2019-04-12T11:02:44Z</time>
      </trkpt>
      <trkpt lat="48.12475" lon="7.15301">
        <ele>513</ele>
        <time>2019-04-12T11:03:44Z</time>
      </trkpt>
      <trkpt lat="48.12483" lon="7.15307">
        <ele>513</ele>
        <time>2019-04-12T11:04:44Z</time>
      </trkpt>
      <trkpt lat="48.12494" lon="7.1532">
        <ele>512</ele>
        <time>2019-04-12T11:05:44Z</time>
      </trkpt>
      <trkpt lat="48.12516" lon="7.15354">
        <ele>510</ele>
        <time>2019-04-12T11:06:44Z</time>
      </trkpt>
      <trkpt lat="48.12528" lon="7.15379">
        <ele>509</ele>
        <time>2019-04-12T11:07:44Z</time>
      </trkpt>
      <trkpt lat="48.12541" lon="7.1542">
        <ele>507</ele>
        <time>2019-04-12T11:08:44Z</time>
      </trkpt>
      <trkpt lat="48.12546" lon="7.15459">
        <ele>505</ele>
        <time>2019-04-12T11:09:44Z</time>
      </trkpt>
      <trkpt lat="48.12547" lon="7.15521">
        <ele>503</ele>
        <time>2019-04-12T11:10:44Z</time>
      </trkpt>
      <trkpt lat="48.12555" lon="7.15551">
        <ele>502</ele>
        <time>2019-04-12T11:11:44Z</time>
      </trkpt>
      <trkpt lat="48.12562" lon="7.15562">
        <ele>501</ele>
        <time>2019-04-12T11:12:44Z</time>
      </trkpt>
      <trkpt lat="48.12607" lon="7.15611">
        <ele>500</ele>
        <time>2019-04-12T11:13:44Z</time>
      </trkpt>
      <trkpt lat="48.12609" lon="7.1562">
        <ele>500</ele>
        <time>2019-04-12T11:14:44Z</time>
      </trkpt>
      <trkpt lat="48.12608" lon="7.15642">
        <ele>500</ele>
        <time>2019-04-12T11:15:44Z</time>
      </trkpt>
      <trkpt lat="48.12607" lon="7.15737">
        <ele>499</ele>
        <time>2019-04-12T11:16:44Z</time>
      </trkpt>
      <trkpt lat="48.12609" lon="7.15778">
        <ele>498</ele>
        <time>2019-04-12T11:17:44Z</time>
      </trkpt>
      <trkpt lat="48.1261" lon="7.15795">
        <ele>497</ele>
        <time>2019-04-12T11:18:44Z</time>
      </trkpt>
      <trkpt lat="48.12625" lon="7.15883">
        <ele>494</ele>
        <time>2019-04-12T11:19:44Z</time>
      </trkpt>
      <trkpt lat="48.12629" lon="7.15921">
        <ele>492</ele>
        <time>2019-04-12T11:20:44Z</time>
      </trkpt>
      <trkpt lat="48.12629" lon="7.15958">
        <ele>492</ele>
        <time>2019-04-12T11:21:44Z</time>
      </trkpt>
      <trkpt lat="48.12626" lon="7.16006">
        <ele>491</ele>
        <time>2019-04-12T11:22:44Z</time>
      </trkpt>
      <trkpt lat="48.12627" lon="7.16026">
        <ele>491</ele>
        <time>2019-04-12T11:23:44Z</time>
      </trkpt>
      <trkpt lat="48.12641" lon="7.16139">
        <ele>486</ele>
        <time>2019-04-12T11:24:44Z</time>
      </trkpt>
      <trkpt lat="48.12641" lon="7.16168">
        <ele>484</ele>
        <time>2019-04-12T11:25:44Z</time>
      </trkpt>
      <trkpt lat="48.12639" lon="7.16208">
        <ele>483</ele>
        <time>2019-04-12T11:26:44Z</time>
      </trkpt>
      <trkpt lat="48.12621" lon="7.16478">
        <ele>472</ele>
        <time>2019-04-12T11:27:44Z</time>
      </trkpt>
      <trkpt lat="48.12623" lon="7.16492">
        <ele>471</ele>
        <time>2019-04-12T11:28:44Z</time>
      </trkpt>
      <trkpt lat="48.12627" lon="7.16504">
        <ele>471</ele>
        <time>2019-04-12T11:29:44Z</time>
      </trkpt>
      <trkpt lat="48.12639" lon="7.16519">
        <ele>470</ele>
        <time>2019-04-12T11:30:44Z</time>
      </trkpt>
      <trkpt lat="48.12658" lon="7.1655">
        <ele>469</ele>
        <time>2019-04-12T11:31:44Z</time>
      </trkpt>
      <trkpt lat="48.12682" lon="7.16577">
        <ele>467</ele>
        <time>2019-04-12T11:32:44Z</time>
      </trkpt>
      <trkpt lat="48.12713" lon="7.16605">
        <ele>467</ele>
        <time>2019-04-12T11:33:44Z</time>
      </trkpt>
      <trkpt lat="48.12748" lon="7.16642">
        <ele>466</ele>
        <time>2019-04-12T11:34:44Z</time>
      </trkpt>
      <trkpt lat="48.12791" lon="7.16683">
        <ele>463</ele>
        <time>2019-04-12T11:35:44Z</time>
      </trkpt>
      <trkpt lat="48.12843" lon="7.16718">
        <ele>459</ele>
        <time>2019-04-12T11:36:44Z</time>
      </trkpt>
      <trkpt lat="48.13" lon="7.16895">
        <ele>450</ele>
        <time>2019-04-12T11:37:44Z</time>
      </trkpt>
      <trkpt lat="48.1308" lon="7.16956">
        <ele>446</ele>
        <time>2019-04-12T11:38:44Z</time>
      </trkpt>
      <trkpt lat="48.13094" lon="7.16972">
        <ele>446</ele>
        <time>2019-04-12T11:39:44Z</time>
      </trkpt>
      <trkpt lat="48.13103" lon="7.16988">
        <ele>445</ele>
        <time>2019-04-12T11:40:44Z</time>
      </trkpt>
      <trkpt lat="48.1316" lon="7.17084">
        <ele>442</ele>
        <time>2019-04-12T11:41:44Z</time>
      </trkpt>
      <trkpt lat="48.13179" lon="7.17105">
        <ele>443</ele>
        <time>2019-04-12T11:42:44Z</time>
      </trkpt>
      <trkpt lat="48.1323" lon="7.17146">
        <ele>440</ele>
        <time>2019-04-12T11:43:44Z</time>
      </trkpt>
      <trkpt lat="48.1325" lon="7.17159">
        <ele>438</ele>
        <time>2019-04-12T11:44:44Z</time>
      </trkpt>
      <trkpt lat="48.13307" lon="7.17191">
        <ele>435</ele>
        <time>2019-04-12T11:45:44Z</time>
      </trkpt>
      <trkpt lat="48.13333" lon="7.17203">
        <ele>433</ele>
        <time>2019-04-12T11:46:44Z</time>
      </trkpt>
      <trkpt lat="48.13419" lon="7.1723">
        <ele>435</ele>
        <time>2019-04-12T11:47:44Z</time>
      </trkpt>
      <trkpt lat="48.1344" lon="7.1724">
        <ele>438</ele>
        <time>2019-04-12T11:48:44Z</time>
      </trkpt>
      <trkpt lat="48.13467" lon="7.17256">
        <ele>440</ele>
        <time>2019-04-12T11:49:44Z</time>
      </trkpt>
      <trkpt lat="48.13483" lon="7.17272">
        <ele>440</ele>
        <time>2019-04-12T11:50:44Z</time>
      </trkpt>
      <trkpt lat="48.13498" lon="7.17294">
        <ele>437</ele>
        <time>2019-04-12T11:51:44Z</time>
      </trkpt>
      <trkpt lat="48.13524" lon="7.17378">
        <ele>428</ele>
        <time>2019-04-12T11:52:44Z</time>
      </trkpt>
      <trkpt lat="48.13537" lon="7.17402">
        <ele>426</ele>
        <time>2019-04-12T11:53:44Z</time>
      </trkpt>
      <trkpt lat="48.13601" lon="7.17475">
        <ele>422</ele>
        <time>2019-04-12T11:54:44Z</time>
      </trkpt>
      <trkpt lat="48.13618" lon="7.17492">
        <ele>421</ele>
        <time>2019-04-12T11:55:44Z</time>
      </trkpt>
      <trkpt lat="48.13649" lon="7.17511">
        <ele>419</ele>
        <time>2019-04-12T11:56:44Z</time>
      </trkpt>
      <trkpt lat="48.13661" lon="7.17515">
        <ele>419</ele>
        <time>2019-04-12T11:57:44Z</time>
      </trkpt>
      <trkpt lat="48.13674" lon="7.17516">
        <ele>419</ele>
        <time>2019-04-12T11:58:44Z</time>
      </trkpt>
      <trkpt lat="48.13717" lon="7.1751">
        <ele>418</ele>
        <time>2019-04-12T11:59:44Z</time>
      </trkpt>
      <trkpt lat="48.13732" lon="7.17511">
        <ele>417</ele>
        <time>2019-04-12T12:00:44Z</time>
      </trkpt>
      <trkpt lat="48.13752" lon="7.17515">
        <ele>417</ele>
        <time>2019-04-12T12:01:44Z</time>
      </trkpt>
      <trkpt lat="48.1379" lon="7.17528">
        <ele>419</ele>
        <time>2019-04-12T12:02:44Z</time>
      </trkpt>
      <trkpt lat="48.13807" lon="7.17538">
        <ele>419</ele>
        <time>2019-04-12T12:03:44Z</time>
      </trkpt>
      <trkpt lat="48.13821" lon="7.17551">
        <ele>418</ele>
        <time>2019-04-12T12:04:44Z</time>
      </trkpt>
      <trkpt lat="48.13831" lon="7.17564">
        <ele>416</ele>
        <time>2019-04-12T12:05:44Z</time>
      </trkpt>
      <trkpt lat="48.13893" lon="7.1768">
        <ele>420</ele>
        <time>2019-04-12T12:06:44Z</time>
      </trkpt>
      <trkpt lat="48.13938" lon="7.17755">
        <ele>420</ele>
        <time>2019-04-12T12:07:44Z</time>
      </trkpt>
      <trkpt lat="48.13956" lon="7.17774">
        <ele>419</ele>
        <time>2019-04-12T12:08:44Z</time>
      </trkpt>
      <trkpt lat="48.13979" lon="7.17791">
        <ele>418</ele>
        <time>2019-04-12T12:09:44Z</time>
      </trkpt>
      <trkpt lat="48.14082" lon="7.1785">
        <ele>416</ele>
        <time>2019-04-12T12:10:44Z</time>
      </trkpt>
      <trkpt lat="48.14096" lon="7.17861">
        <ele>417</ele>
        <time>2019-04-12T12:11:44Z</time>
      </trkpt>
      <trkpt lat="48.14113" lon="7.17879">
        <ele>417</ele>
        <time>2019-04-12T12:12:44Z</time>
      </trkpt>
      <trkpt lat="48.14144" lon="7.17927">
        <ele>415</ele>
        <time>2019-04-12T12:13:44Z</time>
      </trkpt>
      <trkpt lat="48.14157" lon="7.17953">
        <ele>414</ele>
        <time>2019-04-12T12:14:44Z</time>
      </trkpt>
      <trkpt lat="48.14166" lon="7.17978">
        <ele>410</ele>
        <time>2019-04-12T12:15:44Z</time>
      </trkpt>
      <trkpt lat="48.14188" lon="7.18075">
        <ele>408</ele>
        <time>2019-04-12T12:16:44Z</time>
      </trkpt>
      <trkpt lat="48.14201" lon="7.18115">
        <ele>406</ele>
        <time>2019-04-12T12:17:44Z</time>
      </trkpt>
      <trkpt lat="48.14209" lon="7.18133">
        <ele>404</ele>
        <time>2019-04-12T12:18:44Z</time>
      </trkpt>
      <trkpt lat="48.1422" lon="7.18148">
        <ele>402</ele>
        <time>2019-04-12T12:19:44Z</time>
      </trkpt>
      <trkpt lat="48.14234" lon="7.18159">
        <ele>400</ele>
        <time>2019-04-12T12:20:44Z</time>
      </trkpt>
      <trkpt lat="48.14311" lon="7.18211">
        <ele>390</ele>
        <time>2019-04-12T12:21:44Z</time>
      </trkpt>
      <trkpt lat="48.14354" lon="7.18237">
        <ele>387</ele>
        <time>2019-04-12T12:22:44Z</time>
      </trkpt>
      <trkpt lat="48.14383" lon="7.18248">
        <ele>386</ele>
        <time>2019-04-12T12:23:44Z</time>
      </trkpt>
      <trkpt lat="48.14419" lon="7.18255">
        <ele>385</ele>
        <time>2019-04-12T12:24:44Z</time>
      </trkpt>
      <trkpt lat="48.14456" lon="7.18259">
        <ele>384</ele>
        <time>2019-04-12T12:25:44Z</time>
      </trkpt>
      <trkpt lat="48.1447" lon="7.18265">
        <ele>383</ele>
        <time>2019-04-12T12:26:44Z</time>
      </trkpt>
      <trkpt lat="48.14469" lon="7.18286">
        <ele>383</ele>
        <time>2019-04-12T12:27:44Z</time>
      </trkpt>
      <trkpt lat="48.14502" lon="7.18309">
        <ele>382</ele>
        <time>2019-04-12T12:28:44Z</time>
      </trkpt>
      <trkpt lat="48.14528" lon="7.18338">
        <ele>382</ele>
        <time>2019-04-12T12:29:44Z</time>
      </trkpt>
      <trkpt lat="48.14552" lon="7.18372">
        <ele>382</ele>
        <time>2019-04-12T12:30:44Z</time>
      </trkpt>
      <trkpt lat="48.1457" lon="7.18411">
        <ele>381</ele>
        <time>2019-04-12T12:31:44Z</time>
      </trkpt>
      <trkpt lat="48.14582" lon="7.18453">
        <ele>381</ele>
        <time>2019-04-12T12:32:44Z</time>
      </trkpt>
      <trkpt lat="48.14626" lon="7.18624">
        <ele>379</ele>
        <time>2019-04-12T12:33:44Z</time>
      </trkpt>
      <trkpt lat="48.14632" lon="7.18625">
        <ele>379</ele>
        <time>2019-04-12T12:34:44Z</time>
      </trkpt>
      <trkpt lat="48.14669" lon="7.18761">
        <ele>376</ele>
        <time>2019-04-12T12:35:44Z</time>
      </trkpt>
      <trkpt lat="48.14683" lon="7.18791">
        <ele>376</ele>
        <time>2019-04-12T12:36:44Z</time>
      </trkpt>
      <trkpt lat="48.14705" lon="7.18825">
        <ele>376</ele>
        <time>2019-04-12T12:37:44Z</time>
      </trkpt>
      <trkpt lat="48.14719" lon="7.18843">
        <ele>376</ele>
        <time>2019-04-12T12:38:44Z</time>
      </trkpt>
      <trkpt lat="48.14743" lon="7.18861">
        <ele>376</ele>
        <time>2019-04-12T12:39:44Z</time>
      </trkpt>
      <trkpt lat="48.14758" lon="7.18877">
        <ele>376</ele>
        <time>2019-04-12T12:40:44Z</time>
      </trkpt>
      <trkpt lat="48.14774" lon="7.18904">
        <ele>375</ele>
        <time>2019-04-12T12:41:44Z</time>
      </trkpt>
      <trkpt lat="48.14793" lon="7.18985">
        <ele>377</ele>
        <time>2019-04-12T12:42:44Z</time>
      </trkpt>
      <trkpt lat="48.14824" lon="7.19088">
        <ele>376</ele>
        <time>2019-04-12T12:43:44Z</time>
      </trkpt>
      <trkpt lat="48.14836" lon="7.19138">
        <ele>376</ele>
        <time>2019-04-12T12:44:44Z</time>
      </trkpt>
      <trkpt lat="48.14846" lon="7.19199">
        <ele>377</ele>
        <time>2019-04-12T12:45:44Z</time>
      </trkpt>
      <trkpt lat="48.14865" lon="7.19268">
        <ele>375</ele>
        <time>2019-04-12T12:46:44Z</time>
      </trkpt>
      <trkpt lat="48.14888" lon="7.1933">
        <ele>371</ele>
        <time>2019-04-12T12:47:44Z</time>
      </trkpt>
      <trkpt lat="48.14918" lon="7.19395">
        <ele>370</ele>
        <time>2019-04-12T12:48:44Z</time>
      </trkpt>
      <trkpt lat="48.15009" lon="7.19558">
        <ele>366</ele>
        <time>2019-04-12T12:49:44Z</time>
      </trkpt>
      <trkpt lat="48.15023" lon="7.1958">
        <ele>367</ele>
        <time>2019-04-12T12:50:44Z</time>
      </trkpt>
      <trkpt lat="48.1516" lon="7.19753">
        <ele>361</ele>
        <time>2019-04-12T12:51:44Z</time>
      </trkpt>
      <trkpt lat="48.15277" lon="7.19921">
        <ele>359</ele>
        <time>2019-04-12T12:52:44Z</time>
      </trkpt>
      <trkpt lat="48.15338" lon="7.20023">
        <ele>356</ele>
        <time>2019-04-12T12:53:44Z</time>
      </trkpt>
      <trkpt lat="48.15388" lon="7.20154">
        <ele>358</ele>
        <time>2019-04-12T12:54:44Z</time>
      </trkpt>
      <trkpt lat="48.15425" lon="7.20279">
        <ele>353</ele>
        <time>2019-04-12T12:55:44Z</time>
      </trkpt>
      <trkpt lat="48.15429" lon="7.20345">
        <ele>355</ele>
        <time>2019-04-12T12:56:44Z</time>
      </trkpt>
      <trkpt lat="48.15427" lon="7.20392">
        <ele>356</ele>
        <time>2019-04-12T12:57:44Z</time>
      </trkpt>
      <trkpt lat="48.15415" lon="7.20454">
        <ele>354</ele>
        <time>2019-04-12T12:58:44Z</time>
      </trkpt>
      <trkpt lat="48.1537" lon="7.20597">
        <ele>361</ele>
        <time>2019-04-12T12:59:44Z</time>
      </trkpt>
      <trkpt lat="48.15335" lon="7.20717">
        <ele>350</ele>
        <time>2019-04-12T13:00:44Z</time>
      </trkpt>
      <trkpt lat="48.15329" lon="7.20764">
        <ele>344</ele>
        <time>2019-04-12T13:01:44Z</time>
      </trkpt>
      <trkpt lat="48.15329" lon="7.208">
        <ele>341</ele>
        <time>2019-04-12T13:02:44Z</time>
      </trkpt>
      <trkpt lat="48.15332" lon="7.20845">
        <ele>339</ele>
        <time>2019-04-12T13:03:44Z</time>
      </trkpt>
      <trkpt lat="48.15337" lon="7.20877">
        <ele>341</ele>
        <time>2019-04-12T13:04:44Z</time>
      </trkpt>
      <trkpt lat="48.15344" lon="7.20903">
        <ele>341</ele>
        <time>2019-04-12T13:05:44Z</time>
      </trkpt>
      <trkpt lat="48.15356" lon="7.2094">
        <ele>345</ele>
        <time>2019-04-12T13:06:44Z</time>
      </trkpt>
      <trkpt lat="48.15482" lon="7.21234">
        <ele>343</ele>
        <time>2019-04-12T13:07:44Z</time>
      </trkpt>
      <trkpt lat="48.15511" lon="7.21308">
        <ele>341</ele>
        <time>2019-04-12T13:08:44Z</time>
      </trkpt>
      <trkpt lat="48.15543" lon="7.21415">
        <ele>342</ele>
        <time>2019-04-12T13:09:44Z</time>
      </trkpt>
      <trkpt lat="48.15593" lon="7.21593">
        <ele>334</ele>
        <time>2019-04-12T13:10:44Z</time>
      </trkpt>
      <trkpt lat="48.15603" lon="7.21639">
        <ele>331</ele>
        <time>2019-04-12T13:11:44Z</time>
      </trkpt>
      <trkpt lat="48.1561" lon="7.21686">
        <ele>329</ele>
        <time>2019-04-12T13:12:44Z</time>
      </trkpt>
      <trkpt lat="48.15614" lon="7.2175">
        <ele>327</ele>
        <time>2019-04-12T13:13:44Z</time>
      </trkpt>
      <trkpt lat="48.15606" lon="7.21753">
        <ele>328</ele>
        <time>2019-04-12T13:14:44Z</time>
      </trkpt>
      <trkpt lat="48.15599" lon="7.2176">
        <ele>328</ele>
        <time>2019-04-12T13:15:44Z</time>
      </trkpt>
      <trkpt lat="48.15597" lon="7.21765">
        <ele>329</ele>
        <time>2019-04-12T13:16:44Z</time>
      </trkpt>
      <trkpt lat="48.15595" lon="7.21777">
        <ele>328</ele>
        <time>2019-04-12T13:17:44Z</time>
      </trkpt>
      <trkpt lat="48.15596" lon="7.21783">
        <ele>328</ele>
        <time>2019-04-12T13:18:44Z</time>
      </trkpt>
      <trkpt lat="48.156" lon="7.21793">
        <ele>327</ele>
        <time>2019-04-12T13:19:44Z</time>
      </trkpt>
      <trkpt lat="48.15603" lon="7.21797">
        <ele>327</ele>
        <time>2019-04-12T13:20:44Z</time>
      </trkpt>
      <trkpt lat="48.1561" lon="7.21801">
        <ele>326</ele>
        <time>2019-04-12T13:21:44Z</time>
      </trkpt>
      <trkpt lat="48.15618" lon="7.218">
        <ele>325</ele>
        <time>2019-04-12T13:22:44Z</time>
      </trkpt>
      <trkpt lat="48.15626" lon="7.21791">
        <ele>324</ele>
        <time>2019-04-12T13:23:44Z</time>
      </trkpt>
      <trkpt lat="48.15629" lon="7.21776">
        <ele>324</ele>
        <time>2019-04-12T13:24:44Z</time>
      </trkpt>
      <trkpt lat="48.15629" lon="7.21771">
        <ele>324</ele>
        <time>2019-04-12T13:25:44Z</time>
      </trkpt>
      <trkpt lat="48.157" lon="7.21753">
        <ele>332</ele>
        <time>2019-04-12T13:26:44Z</time>
      </trkpt>
      <trkpt lat="48.15708" lon="7.21746">
        <ele>335</ele>
        <time>2019-04-12T13:27:44Z</time>
      </trkpt>
      <trkpt lat="48.15708" lon="7.21899">
        <ele>338</ele>
        <time>2019-04-12T13:28:44Z</time>
      </trkpt>
      <trkpt lat="48.1572" lon="7.22089">
        <ele>332</ele>
        <time>2019-04-12T13:29:44Z</time>
      </trkpt>
      <trkpt lat="48.15723" lon="7.22217">
        <ele>326</ele>
        <time>2019-04-12T13:30:44Z</time>
      </trkpt>
      <trkpt lat="48.15736" lon="7.22309">
        <ele>326</ele>
        <time>2019-04-12T13:31:44Z</time>
      </trkpt>
      <trkpt lat="48.15749" lon="7.22383">
        <ele>325</ele>
        <time>2019-04-12T13:32:44Z</time>
      </trkpt>
      <trkpt lat="48.15753" lon="7.22424">
        <ele>325</ele>
        <time>2019-04-12T13:33:44Z</time>
      </trkpt>
      <trkpt lat="48.15752" lon="7.22463">
        <ele>325</ele>
        <time>2019-04-12T13:34:44Z</time>
      </trkpt>
      <trkpt lat="48.15758" lon="7.22546">
        <ele>327</ele>
        <time>2019-04-12T13:35:44Z</time>
      </trkpt>
      <trkpt lat="48.15758" lon="7.22603">
        <ele>325</ele>
        <time>2019-04-12T13:36:44Z</time>
      </trkpt>
      <trkpt lat="48.15752" lon="7.22655">
        <ele>321</ele>
        <time>2019-04-12T13:37:44Z</time>
      </trkpt>
      <trkpt lat="48.15746" lon="7.22682">
        <ele>321</ele>
        <time>2019-04-12T13:38:44Z</time>
      </trkpt>
      <trkpt lat="48.15729" lon="7.22731">
        <ele>321</ele>
        <time>2019-04-12T13:39:44Z</time>
      </trkpt>
      <trkpt lat="48.1572" lon="7.22765">
        <ele>321</ele>
        <time>2019-04-12T13:40:44Z</time>
      </trkpt>
      <trkpt lat="48.15704" lon="7.22796">
        <ele>319</ele>
        <time>2019-04-12T13:41:44Z</time>
      </trkpt>
      <trkpt lat="48.15696" lon="7.22816">
        <ele>317</ele>
        <time>2019-04-12T13:42:44Z</time>
      </trkpt>
      <trkpt lat="48.15693" lon="7.22874">
        <ele>318</ele>
        <time>2019-04-12T13:43:44Z</time>
      </trkpt>
      <trkpt lat="48.15694" lon="7.22954">
        <ele>322</ele>
        <time>2019-04-12T13:44:44Z</time>
      </trkpt>
      <trkpt lat="48.15691" lon="7.22977">
        <ele>322</ele>
        <time>2019-04-12T13:45:44Z</time>
      </trkpt>
      <trkpt lat="48.15684" lon="7.23008">
        <ele>321</ele>
        <time>2019-04-12T13:46:44Z</time>
      </trkpt>
      <trkpt lat="48.15671" lon="7.23051">
        <ele>319</ele>
        <time>2019-04-12T13:47:44Z</time>
      </trkpt>
      <trkpt lat="48.15659" lon="7.23079">
        <ele>318</ele>
        <time>2019-04-12T13:48:44Z</time>
      </trkpt>
      <trkpt lat="48.15636" lon="7.23121">
        <ele>316</ele>
        <time>2019-04-12T13:49:44Z</time>
      </trkpt>
      <trkpt lat="48.15612" lon="7.23192">
        <ele>314</ele>
        <time>2019-04-12T13:50:44Z</time>
      </trkpt>
      <trkpt lat="48.15598" lon="7.23215">
        <ele>313</ele>
        <time>2019-04-12T13:51:44Z</time>
      </trkpt>
      <trkpt lat="48.15547" lon="7.23266">
        <ele>310</ele>
        <time>2019-04-12T13:52:44Z</time>
      </trkpt>
      <trkpt lat="48.1553" lon="7.23288">
        <ele>309</ele>
        <time>2019-04-12T13:53:44Z</time>
      </trkpt>
      <trkpt lat="48.15524" lon="7.233">
        <ele>309</ele>
        <time>2019-04-12T13:54:44Z</time>
      </trkpt>
      <trkpt lat="48.15508" lon="7.23344">
        <ele>309</ele>
        <time>2019-04-12T13:55:44Z</time>
      </trkpt>
      <trkpt lat="48.15503" lon="7.23344">
        <ele>308</ele>
        <time>2019-04-12T13:56:44Z</time>
      </trkpt>
      <trkpt lat="48.15469" lon="7.23453">
        <ele>313</ele>
        <time>2019-04-12T13:57:44Z</time>
      </trkpt>
      <trkpt lat="48.15405" lon="7.23555">
        <ele>304</ele>
        <time>2019-04-12T13:58:44Z</time>
      </trkpt>
      <trkpt lat="48.15383" lon="7.23602">
        <ele>302</ele>
        <time>2019-04-12T13:59:44Z</time>
      </trkpt>
      <trkpt lat="48.15379" lon="7.23614">
        <ele>301</ele>
        <time>2019-04-12T14:00:44Z</time>
      </trkpt>
      <trkpt lat="48.15376" lon="7.23631">
        <ele>300</ele>
        <time>2019-04-12T14:01:44Z</time>
      </trkpt>
      <trkpt lat="48.15374" lon="7.23685">
        <ele>299</ele>
        <time>2019-04-12T14:02:44Z</time>
      </trkpt>
      <trkpt lat="48.15378" lon="7.23753">
        <ele>299</ele>
        <time>2019-04-12T14:03:44Z</time>
      </trkpt>
      <trkpt lat="48.1539" lon="7.23853">
        <ele>299</ele>
        <time>2019-04-12T14:04:44Z</time>
      </trkpt>
      <trkpt lat="48.15412" lon="7.24007">
        <ele>296</ele>
        <time>2019-04-12T14:05:44Z</time>
      </trkpt>
      <trkpt lat="48.15418" lon="7.24071">
        <ele>293</ele>
        <time>2019-04-12T14:06:44Z</time>
      </trkpt>
      <trkpt lat="48.15419" lon="7.24107">
        <ele>292</ele>
        <time>2019-04-12T14:07:44Z</time>
      </trkpt>
      <trkpt lat="48.15421" lon="7.24158">
        <ele>290</ele>
        <time>2019-04-12T14:08:44Z</time>
      </trkpt>
      <trkpt lat="48.15419" lon="7.24409">
        <ele>286</ele>
        <time>2019-04-12T14:09:44Z</time>
      </trkpt>
      <trkpt lat="48.15417" lon="7.2443">
        <ele>285</ele>
        <time>2019-04-12T14:10:44Z</time>
      </trkpt>
      <trkpt lat="48.15411" lon="7.24466">
        <ele>286</ele>
        <time>2019-04-12T14:11:44Z</time>
      </trkpt>
      <trkpt lat="48.15398" lon="7.24503">
        <ele>286</ele>
        <time>2019-04-12T14:12:44Z</time>
      </trkpt>
      <trkpt lat="48.15365" lon="7.24569">
        <ele>286</ele>
        <time>2019-04-12T14:13:44Z</time>
      </trkpt>
      <trkpt lat="48.15356" lon="7.24573">
        <ele>284</ele>
        <time>2019-04-12T14:14:44Z</time>
      </trkpt>
      <trkpt lat="48.15339" lon="7.24573">
        <ele>280</ele>
        <time>2019-04-12T14:15:44Z</time>
      </trkpt>
      <trkpt lat="48.15334" lon="7.24575">
        <ele>278</ele>
        <time>2019-04-12T14:16:44Z</time>
      </trkpt>
      <trkpt lat="48.15329" lon="7.24581">
        <ele>278</ele>
        <time>2019-04-12T14:17:44Z</time>
      </trkpt>
      <trkpt lat="48.15324" lon="7.24583">
        <ele>278</ele>
        <time>2019-04-12T14:18:44Z</time>
      </trkpt>
      <trkpt lat="48.15317" lon="7.24583">
        <ele>277</ele>
        <time>2019-04-12T14:19:44Z</time>
      </trkpt>
      <trkpt lat="48.15213" lon="7.24549">
        <ele>277</ele>
        <time>2019-04-12T14:20:44Z</time>
      </trkpt>
      <trkpt lat="48.15171" lon="7.24545">
        <ele>279</ele>
        <time>2019-04-12T14:21:44Z</time>
      </trkpt>
      <trkpt lat="48.15154" lon="7.24566">
        <ele>278</ele>
        <time>2019-04-12T14:22:44Z</time>
      </trkpt>
      <trkpt lat="48.15131" lon="7.24604">
        <ele>277</ele>
        <time>2019-04-12T14:23:44Z</time>
      </trkpt>
      <trkpt lat="48.15104" lon="7.24667">
        <ele>274</ele>
        <time>2019-04-12T14:24:44Z</time>
      </trkpt>
      <trkpt lat="48.15098" lon="7.24704">
        <ele>273</ele>
        <time>2019-04-12T14:25:44Z</time>
      </trkpt>
      <trkpt lat="48.15067" lon="7.24811">
        <ele>273</ele>
        <time>2019-04-12T14:26:44Z</time>
      </trkpt>
      <trkpt lat="48.1505" lon="7.24885">
        <ele>271</ele>
        <time>2019-04-12T14:27:44Z</time>
      </trkpt>
      <trkpt lat="48.15047" lon="7.24956">
        <ele>270</ele>
        <time>2019-04-12T14:28:44Z</time>
      </trkpt>
      <trkpt lat="48.15048" lon="7.24992">
        <ele>269</ele>
        <time>2019-04-12T14:29:44Z</time>
      </trkpt>
      <trkpt lat="48.15045" lon="7.25016">
        <ele>269</ele>
        <time>2019-04-12T14:30:44Z</time>
      </trkpt>
      <trkpt lat="48.15012" lon="7.25113">
        <ele>268</ele>
        <time>2019-04-12T14:31:44Z</time>
      </trkpt>
      <trkpt lat="48.15003" lon="7.25147">
        <ele>268</ele>
        <time>2019-04-12T14:32:44Z</time>
      </trkpt>
      <trkpt lat="48.14996" lon="7.25212">
        <ele>267</ele>
        <time>2019-04-12T14:33:44Z</time>
      </trkpt>
      <trkpt lat="48.14992" lon="7.25271">
        <ele>268</ele>
        <time>2019-04-12T14:34:44Z</time>
      </trkpt>
      <trkpt lat="48.14981" lon="7.25321">
        <ele>269</ele>
        <time>2019-04-12T14:35:44Z</time>
      </trkpt>
      <trkpt lat="48.1497" lon="7.25366">
        <ele>271</ele>
        <time>2019-04-12T14:36:44Z</time>
      </trkpt>
      <trkpt lat="48.14959" lon="7.25389">
        <ele>272</ele>
        <time>2019-04-12T14:37:44Z</time>
      </trkpt>
      <trkpt lat="48.14937" lon="7.25425">
        <ele>271</ele>
        <time>2019-04-12T14:38:44Z</time>
      </trkpt>
      <trkpt lat="48.14867" lon="7.25529">
        <ele>268</ele>
        <time>2019-04-12T14:39:44Z</time>
      </trkpt>
      <trkpt lat="48.14849" lon="7.25568">
        <ele>269</ele>
        <time>2019-04-12T14:40:44Z</time>
      </trkpt>
      <trkpt lat="48.14843" lon="7.2558">
        <ele>269</ele>
        <time>2019-04-12T14:41:44Z</time>
      </trkpt>
      <trkpt lat="48.14813" lon="7.25605">
        <ele>269</ele>
        <time>2019-04-12T14:42:44Z</time>
      </trkpt>
      <trkpt lat="48.14804" lon="7.25609">
        <ele>269</ele>
        <time>2019-04-12T14:43:44Z</time>
      </trkpt>
      <trkpt lat="48.14795" lon="7.25608">
        <ele>268</ele>
        <time>2019-04-12T14:44:44Z</time>
      </trkpt>
      <trkpt lat="48.14778" lon="7.256">
        <ele>266</ele>
        <time>2019-04-12T14:45:44Z</time>
      </trkpt>
      <trkpt lat="48.14746" lon="7.25596">
        <ele>263</ele>
        <time>2019-04-12T14:46:44Z</time>
      </trkpt>
      <trkpt lat="48.14731" lon="7.256">
        <ele>263</ele>
        <time>2019-04-12T14:47:44Z</time>
      </trkpt>
      <trkpt lat="48.14685" lon="7.25645">
        <ele>265</ele>
        <time>2019-04-12T14:48:44Z</time>
      </trkpt>
      <trkpt lat="48.14659" lon="7.25676">
        <ele>264</ele>
        <time>2019-04-12T14:49:44Z</time>
      </trkpt>
      <trkpt lat="48.14661" lon="7.25682">
        <ele>264</ele>
        <time>2019-04-12T14:50:44Z</time>
      </trkpt>
      <trkpt lat="48.14602" lon="7.25723">
        <ele>261</ele>
        <time>2019-04-12T14:51:44Z</time>
      </trkpt>
      <trkpt lat="48.14569" lon="7.25737">
        <ele>259</ele>
        <time>2019-04-12T14:52:44Z</time>
      </trkpt>
      <trkpt lat="48.14534" lon="7.25759">
        <ele>258</ele>
        <time>2019-04-12T14:53:44Z</time>
      </trkpt>
      <trkpt lat="48.14468" lon="7.2582">
        <ele>257</ele>
        <time>2019-04-12T14:54:44Z</time>
      </trkpt>
      <trkpt lat="48.14434" lon="7.25848">
        <ele>256</ele>
        <time>2019-04-12T14:55:44Z</time>
      </trkpt>
      <trkpt lat="48.14388" lon="7.25898">
        <ele>256</ele>
        <time>2019-04-12T14:56:44Z</time>
      </trkpt>
      <trkpt lat="48.14337" lon="7.25968">
        <ele>255</ele>
        <time>2019-04-12T14:57:44Z</time>
      </trkpt>
      <trkpt lat="48.14275" lon="7.26028">
        <ele>256</ele>
        <time>2019-04-12T14:58:44Z</time>
      </trkpt>
      <trkpt lat="48.14227" lon="7.2606">
        <ele>258</ele>
        <time>2019-04-12T14:59:44Z</time>
      </trkpt>
      <trkpt lat="48.14197" lon="7.2609">
        <ele>260</ele>
        <time>2019-04-12T15:00:44Z</time>
      </trkpt>
      <trkpt lat="48.1418" lon="7.26097">
        <ele>262</ele>
        <time>2019-04-12T15:01:44Z</time>
      </trkpt>
      <trkpt lat="48.14133" lon="7.26104">
        <ele>262</ele>
        <time>2019-04-12T15:02:44Z</time>
      </trkpt>
      <trkpt lat="48.14086" lon="7.26117">
        <ele>262</ele>
        <time>2019-04-12T15:03:44Z</time>
      </trkpt>
      <trkpt lat="48.14032" lon="7.26121">
        <ele>260</ele>
        <time>2019-04-12T15:04:44Z</time>
      </trkpt>
      <trkpt lat="48.14" lon="7.26117">
        <ele>257</ele>
        <time>2019-04-12T15:05:44Z</time>
      </trkpt>
      <trkpt lat="48.1399" lon="7.26112">
        <ele>256</ele>
        <time>2019-04-12T15:06:44Z</time>
      </trkpt>
      <trkpt lat="48.13966" lon="7.26119">
        <ele>256</ele>
        <time>2019-04-12T15:07:44Z</time>
      </trkpt>
      <trkpt lat="48.13929" lon="7.26136">
        <ele>255</ele>
        <time>2019-04-12T15:08:44Z</time>
      </trkpt>
      <trkpt lat="48.13914" lon="7.26151">
        <ele>254</ele>
        <time>2019-04-12T15:09:44Z</time>
      </trkpt>
      <trkpt lat="48.13905" lon="7.26164">
        <ele>253</ele>
        <time>2019-04-12T15:10:44Z</time>
      </trkpt>
      <trkpt lat="48.13893" lon="7.26198">
        <ele>253</ele>
        <time>2019-04-12T15:11:44Z</time>
      </trkpt>
      <trkpt lat="48.13885" lon="7.26251">
        <ele>253</ele>
        <time>2019-04-12T15:12:44Z</time>
      </trkpt>
      <trkpt lat="48.13879" lon="7.26325">
        <ele>252</ele>
        <time>2019-04-12T15:13:44Z</time>
      </trkpt>
      <trkpt lat="48.13876" lon="7.26392">
        <ele>250</ele>
        <time>2019-04-12T15:14:44Z</time>
      </trkpt>
      <trkpt lat="48.13872" lon="7.26438">
        <ele>249</ele>
        <time>2019-04-12T15:15:44Z</time>
      </trkpt>
      <trkpt lat="48.13907" lon="7.2644">
        <ele>249</ele>
        <time>2019-04-12T15:16:44Z</time>
      </trkpt>
      <trkpt lat="48.13907" lon="7.26417">
        <ele>249</ele>
        <time>2019-04-12T15:17:44Z</time>
      </trkpt>
      <trkpt lat="48.13924" lon="7.26418">
        <ele>250</ele>
        <time>2019-04-12T15:18:44Z</time>
      </trkpt>
      <trkpt lat="48.13926" lon="7.26421">
        <ele>250</ele>
        <time>2019-04-12T15:19:44Z</time>
      </trkpt>
      <trkpt lat="48.13926" lon="7.26433">
        <ele>250</ele>
        <time>2019-04-12T15:20:44Z</time>
      </trkpt>
      <trkpt lat="48.13926" lon="7.26484">
        <ele>248</ele>
        <time>2019-04-12T15:21:44Z</time>
      </trkpt>
      <trkpt lat="48.13935" lon="7.26485">
        <ele>249</ele>
        <time>2019-04-12T15:22:44Z</time>
      </trkpt>
      <trkpt lat="48.13948" lon="7.26495">
        <ele>251</ele>
        <time>2019-04-12T15:23:44Z</time>
      </trkpt>
      <trkpt lat="48.1395" lon="7.26501">
        <ele>251</ele>
        <time>2019-04-12T15:24:44Z</time>
      </trkpt>
      <trkpt lat="48.13957" lon="7.2656">
        <ele>250</ele>
        <time>2019-04-12T15:25:44Z</time>
      </trkpt>
      <trkpt lat="48.13956" lon="7.26567">
        <ele>250</ele>
        <time>2019-04-12T15:26:44Z</time>
      </trkpt>
      <trkpt lat="48.13959" lon="7.26586">
        <ele>250</ele>
        <time>2019-04-12T15:27:44Z</time>
      </trkpt>
      <trkpt lat="48.13977" lon="7.26689">
        <ele>248</ele>
        <time>2019-04-12T15:28:44Z</time>
      </trkpt>
      <trkpt lat="48.13973" lon="7.26771">
        <ele>249</ele>
        <time>2019-04-12T15:29:44Z</time>
      </trkpt>
      <trkpt lat="48.13969" lon="7.268">
        <ele>249</ele>
        <time>2019-04-12T15:30:44Z</time>
      </trkpt>
      <trkpt lat="48.13967" lon="7.26842">
        <ele>249</ele>
        <time>2019-04-12T15:31:44Z</time>
      </trkpt>
      <trkpt lat="48.13967" lon="7.26873">
        <ele>249</ele>
        <time>2019-04-12T15:32:44Z</time>
      </trkpt>
      <trkpt lat="48.13971" lon="7.26883">
        <ele>250</ele>
        <time>2019-04-12T15:33:44Z</time>
      </trkpt>
      <trkpt lat="48.13994" lon="7.26901">
        <ele>252</ele>
        <time>2019-04-12T15:34:44Z</time>
      </trkpt>
      <trkpt lat="48.14008" lon="7.26917">
        <ele>255</ele>
        <time>2019-04-12T15:35:44Z</time>
      </trkpt>
      <trkpt lat="48.14011" lon="7.26934">
        <ele>256</ele>
        <time>2019-04-12T15:36:44Z</time>
      </trkpt>
      <trkpt lat="48.1401" lon="7.26967">
        <ele>257</ele>
        <time>2019-04-12T15:37:44Z</time>
      </trkpt>
      <trkpt lat="48.14003" lon="7.27015">
        <ele>256</ele>
        <time>2019-04-12T15:38:44Z</time>
      </trkpt>
      <trkpt lat="48.13991" lon="7.27132">
        <ele>254</ele>
        <time>2019-04-12T15:39:44Z</time>
      </trkpt>
      <trkpt lat="48.13992" lon="7.27174">
        <ele>252</ele>
        <time>2019-04-12T15:40:44Z</time>
      </trkpt>
      <trkpt lat="48.14003" lon="7.27275">
        <ele>253</ele>
        <time>2019-04-12T15:41:44Z</time>
      </trkpt>
      <trkpt lat="48.14004" lon="7.27323">
        <ele>254</ele>
        <time>2019-04-12T15:42:44Z</time>
      </trkpt>
      <trkpt lat="48.14001" lon="7.27413">
        <ele>253</ele>
        <time>2019-04-12T15:43:44Z</time>
      </trkpt>
      <trkpt lat="48.14008" lon="7.27522">
        <ele>253</ele>
        <time>2019-04-12T15:44:44Z</time>
      </trkpt>
      <trkpt lat="48.1401" lon="7.27538">
        <ele>254</ele>
        <time>2019-04-12T15:45:44Z</time>
      </trkpt>
      <trkpt lat="48.14005" lon="7.27546">
        <ele>253</ele>
        <time>2019-04-12T15:46:44Z</time>
      </trkpt>
      <trkpt lat="48.13989" lon="7.27556">
        <ele>250</ele>
        <time>2019-04-12T15:47:44Z</time>
      </trkpt>
      <trkpt lat="48.13973" lon="7.27595">
        <ele>247</ele>
        <time>2019-04-12T15:48:44Z</time>
      </trkpt>
      <trkpt lat="48.13913" lon="7.27714">
        <ele>236</ele>
        <time>2019-04-12T15:49:44Z</time>
      </trkpt>
      <trkpt lat="48.13897" lon="7.27734">
        <ele>234</ele>
        <time>2019-04-12T15:50:44Z</time>
      </trkpt>
      <trkpt lat="48.1388" lon="7.27764">
        <ele>233</ele>
        <time>2019-04-12T15:51:44Z</time>
      </trkpt>
      <trkpt lat="48.13877" lon="7.27788">
        <ele>232</ele>
        <time>2019-04-12T15:52:44Z</time>
      </trkpt>
      <trkpt lat="48.13866" lon="7.27822">
        <ele>231</ele>
        <time>2019-04-12T15:53:44Z</time>
      </trkpt>
      <trkpt lat="48.13856" lon="7.27838">
        <ele>230</ele>
        <time>2019-04-12T15:54:44Z</time>
      </trkpt>
      <trkpt lat="48.13817" lon="7.27889">
        <ele>228</ele>
        <time>2019-04-12T15:55:44Z</time>
      </trkpt>
      <trkpt lat="48.1377" lon="7.27958">
        <ele>227</ele>
        <time>2019-04-12T15:56:44Z</time>
      </trkpt>
      <trkpt lat="48.13738" lon="7.28">
        <ele>227</ele>
        <time>2019-04-12T15:57:44Z</time>
      </trkpt>
      <trkpt lat="48.13702" lon="7.2804">
        <ele>227</ele>
        <time>2019-04-12T15:58:44Z</time>
      </trkpt>
      <trkpt lat="48.13685" lon="7.28053">
        <ele>228</ele>
        <time>2019-04-12T15:59:44Z</time>
      </trkpt>
      <trkpt lat="48.1368" lon="7.2805">
        <ele>228</ele>
        <time>2019-04-12T16:00:44Z</time>
      </trkpt>
      <trkpt lat="48.13661" lon="7.28123">
        <ele>228</ele>
        <time>2019-04-12T16:01:44Z</time>
      </trkpt>
      <trkpt lat="48.13645" lon="7.28159">
        <ele>228</ele>
        <time>2019-04-12T16:02:44Z</time>
      </trkpt>
      <trkpt lat="48.13681" lon="7.28222">
        <ele>227</ele>
        <time>2019-04-12T16:03:44Z</time>
      </trkpt>
      <trkpt lat="48.13704" lon="7.28258">
        <ele>227</ele>
        <time>2019-04-12T16:04:44Z</time>
      </trkpt>
      <trkpt lat="48.13713" lon="7.28267">
        <ele>227</ele>
        <time>2019-04-12T16:05:44Z</time>
      </trkpt>
      <trkpt lat="48.13717" lon="7.28289">
        <ele>227</ele>
        <time>2019-04-12T16:06:44Z</time>
      </trkpt>
      <trkpt lat="48.13724" lon="7.28347">
        <ele>227</ele>
        <time>2019-04-12T16:07:44Z</time>
      </trkpt>
      <trkpt lat="48.13735" lon="7.28376">
        <ele>226</ele>
        <time>2019-04-12T16:08:44Z</time>
      </trkpt>
      <trkpt lat="48.13736" lon="7.28388">
        <ele>226</ele>
        <time>2019-04-12T16:09:44Z</time>
      </trkpt>
      <trkpt lat="48.13735" lon="7.28396">
        <ele>226</ele>
        <time>2019-04-12T16:10:44Z</time>
      </trkpt>
      <trkpt lat="48.13748" lon="7.28437">
        <ele>226</ele>
        <time>2019-04-12T16:11:44Z</time>
      </trkpt>
      <trkpt lat="48.13749" lon="7.28489">
        <ele>225</ele>
        <time>2019-04-12T16:12:44Z</time>
      </trkpt>
      <trkpt lat="48.13739" lon="7.28687">
        <ele>225</ele>
        <time>2019-04-12T16:13:44Z</time>
      </trkpt>
      <trkpt lat="48.1374" lon="7.28771">
        <ele>223</ele>
        <time>2019-04-12T16:14:44Z</time>
      </trkpt>
      <trkpt lat="48.13812" lon="7.2877">
        <ele>224</ele>
        <time>2019-04-12T16:15:44Z</time>
      </trkpt>
      <trkpt lat="48.13911" lon="7.28779">
        <ele>227</ele>
        <time>2019-04-12T16:16:44Z</time>
      </trkpt>
      <trkpt lat="48.13925" lon="7.28779">
        <ele>228</ele>
        <time>2019-04-12T16:17:44Z</time>
      </trkpt>
      <trkpt lat="48.14002" lon="7.2876">
        <ele>233</ele>
        <time>2019-04-12T16:18:44Z</time>
      </trkpt>
      <trkpt lat="48.1402" lon="7.28758">
        <ele>235</ele>
        <time>2019-04-12T16:19:44Z</time>
      </trkpt>
      <trkpt lat="48.14087" lon="7.28755">
        <ele>241</ele>
        <time>2019-04-12T16:20:44Z</time>
      </trkpt>
      <trkpt lat="48.14121" lon="7.28754">
        <ele>244</ele>
        <time>2019-04-12T16:21:44Z</time>
      </trkpt>
      <trkpt lat="48.14148" lon="7.28757">
        <ele>247</ele>
        <time>2019-04-12T16:22:44Z</time>
      </trkpt>
      <trkpt lat="48.14154" lon="7.28756">
        <ele>247</ele>
        <time>2019-04-12T16:23:44Z</time>
      </trkpt>
      <trkpt lat="48.1416" lon="7.28752">
        <ele>248</ele>
        <time>2019-04-12T16:24:44Z</time>
      </trkpt>
      <trkpt lat="48.14166" lon="7.28745">
        <ele>248</ele>
        <time>2019-04-12T16:25:44Z</time>
      </trkpt>
      <trkpt lat="48.14184" lon="7.28719">
        <ele>248</ele>
        <time>2019-04-12T16:26:44Z</time>
      </trkpt>
      <trkpt lat="48.14204" lon="7.28695">
        <ele>249</ele>
        <time>2019-04-12T16:27:44Z</time>
      </trkpt>
      <trkpt lat="48.14248" lon="7.28649">
        <ele>251</ele>
        <time>2019-04-12T16:28:44Z</time>
      </trkpt>
      <trkpt lat="48.14294" lon="7.28618">
        <ele>254</ele>
        <time>2019-04-12T16:29:44Z</time>
      </trkpt>
      <trkpt lat="48.14324" lon="7.28615">
        <ele>257</ele>
        <time>2019-04-12T16:30:44Z</time>
      </trkpt>
      <trkpt lat="48.14332" lon="7.28609">
        <ele>258</ele>
        <time>2019-04-12T16:31:44Z</time>
      </trkpt>
      <trkpt lat="48.14336" lon="7.28604">
        <ele>258</ele>
        <time>2019-04-12T16:32:44Z</time>
      </trkpt>
      <trkpt lat="48.14354" lon="7.28575">
        <ele>260</ele>
        <time>2019-04-12T16:33:44Z</time>
      </trkpt>
      <trkpt lat="48.14369" lon="7.28556">
        <ele>262</ele>
        <time>2019-04-12T16:34:44Z</time>
      </trkpt>
      <trkpt lat="48.14396" lon="7.2848">
        <ele>264</ele>
        <time>2019-04-12T16:35:44Z</time>
      </trkpt>
      <trkpt lat="48.14418" lon="7.28398">
        <ele>268</ele>
        <time>2019-04-12T16:36:44Z</time>
      </trkpt>
      <trkpt lat="48.14423" lon="7.28388">
        <ele>269</ele>
        <time>2019-04-12T16:37:44Z</time>
      </trkpt>
      <trkpt lat="48.1443" lon="7.28389">
        <ele>270</ele>
        <time>2019-04-12T16:38:44Z</time>
      </trkpt>
      <trkpt lat="48.14459" lon="7.28408">
        <ele>270</ele>
        <time>2019-04-12T16:39:44Z</time>
      </trkpt>
      <trkpt lat="48.14499" lon="7.28421">
        <ele>272</ele>
        <time>2019-04-12T16:40:44Z</time>
      </trkpt>
      <trkpt lat="48.14546" lon="7.28428">
        <ele>277</ele>
        <time>2019-04-12T16:41:44Z</time>
      </trkpt>
      <trkpt lat="48.14561" lon="7.28432">
        <ele>278</ele>
        <time>2019-04-12T16:42:44Z</time>
      </trkpt>
      <trkpt lat="48.14615" lon="7.28457">
        <ele>286</ele>
        <time>2019-04-12T16:43:44Z</time>
      </trkpt>
      <trkpt lat="48.14635" lon="7.28463">
        <ele>289</ele>
        <time>2019-04-12T16:44:44Z</time>
      </trkpt>
      <trkpt lat="48.14659" lon="7.28467">
        <ele>292</ele>
        <time>2019-04-12T16:45:44Z</time>
      </trkpt>
      <trkpt lat="48.14679" lon="7.28475">
        <ele>295</ele>
        <time>2019-04-12T16:46:44Z</time>
      </trkpt>
      <trkpt lat="48.14708" lon="7.2849">
        <ele>298</ele>
        <time>2019-04-12T16:47:44Z</time>
      </trkpt>
      <trkpt lat="48.1478" lon="7.28554">
        <ele>307</ele>
        <time>2019-04-12T16:48:44Z</time>
      </trkpt>
      <trkpt lat="48.14827" lon="7.28589">
        <ele>312</ele>
        <time>2019-04-12T16:49:44Z</time>
      </trkpt>
      <trkpt lat="48.14866" lon="7.28597">
        <ele>317</ele>
        <time>2019-04-12T16:50:44Z</time>
      </trkpt>
      <trkpt lat="48.14875" lon="7.28602">
        <ele>318</ele>
        <time>2019-04-12T16:51:44Z</time>
      </trkpt>
      <trkpt lat="48.14935" lon="7.28648">
        <ele>325</ele>
        <time>2019-04-12T16:52:44Z</time>
      </trkpt>
      <trkpt lat="48.14997" lon="7.28685">
        <ele>330</ele>
        <time>2019-04-12T16:53:44Z</time>
      </trkpt>
      <trkpt lat="48.1504" lon="7.28715">
        <ele>331</ele>
        <time>2019-04-12T16:54:44Z</time>
      </trkpt>
      <trkpt lat="48.15056" lon="7.28723">
        <ele>330</ele>
        <time>2019-04-12T16:55:44Z</time>
      </trkpt>
      <trkpt lat="48.15079" lon="7.28731">
        <ele>330</ele>
        <time>2019-04-12T16:56:44Z</time>
      </trkpt>
      <trkpt lat="48.15132" lon="7.28743">
        <ele>328</ele>
        <time>2019-04-12T16:57:44Z</time>
      </trkpt>
      <trkpt lat="48.15148" lon="7.2875">
        <ele>326</ele>
        <time>2019-04-12T16:58:44Z</time>
      </trkpt>
      <trkpt lat="48.15183" lon="7.28777">
        <ele>324</ele>
        <time>2019-04-12T16:59:44Z</time>
      </trkpt>
      <trkpt lat="48.15227" lon="7.28831">
        <ele>319</ele>
        <time>2019-04-12T17:00:44Z</time>
      </trkpt>
      <trkpt lat="48.15273" lon="7.2888">
        <ele>317</ele>
        <time>2019-04-12T17:01:44Z</time>
      </trkpt>
      <trkpt lat="48.153" lon="7.28917">
        <ele>315</ele>
        <time>2019-04-12T17:02:44Z</time>
      </trkpt>
      <trkpt lat="48.15316" lon="7.28935">
        <ele>314</ele>
        <time>2019-04-12T17:03:44Z</time>
      </trkpt>
      <trkpt lat="48.15328" lon="7.28943">
        <ele>314</ele>
        <time>2019-04-12T17:04:44Z</time>
      </trkpt>
      <trkpt lat="48.15376" lon="7.28965">
        <ele>314</ele>
        <time>2019-04-12T17:05:44Z</time>
      </trkpt>
      <trkpt lat="48.15406" lon="7.28975">
        <ele>315</ele>
        <time>2019-04-12T17:06:44Z</time>
      </trkpt>
      <trkpt lat="48.15432" lon="7.28986">
        <ele>315</ele>
        <time>2019-04-12T17:07:44Z</time>
      </trkpt>
      <trkpt lat="48.1547" lon="7.29009">
        <ele>316</ele>
        <time>2019-04-12T17:08:44Z</time>
      </trkpt>
      <trkpt lat="48.15525" lon="7.29049">
        <ele>318</ele>
        <time>2019-04-12T17:09:44Z</time>
      </trkpt>
      <trkpt lat="48.15536" lon="7.29066">
        <ele>318</ele>
        <time>2019-04-12T17:10:44Z</time>
      </trkpt>
      <trkpt lat="48.15548" lon="7.29079">
        <ele>318</ele>
        <time>2019-04-12T17:11:44Z</time>
      </trkpt>
      <trkpt lat="48.15565" lon="7.29092">
        <ele>318</ele>
        <time>2019-04-12T17:12:44Z</time>
      </trkpt>
      <trkpt lat="48.15618" lon="7.29124">
        <ele>321</ele>
        <time>2019-04-12T17:13:44Z</time>
      </trkpt>
      <trkpt lat="48.15634" lon="7.29137">
        <ele>322</ele>
        <time>2019-04-12T17:14:44Z</time>
      </trkpt>
      <trkpt lat="48.15695" lon="7.29205">
        <ele>324</ele>
        <time>2019-04-12T17:15:44Z</time>
      </trkpt>
      <trkpt lat="48.15739" lon="7.29237">
        <ele>327</ele>
        <time>2019-04-12T17:16:44Z</time>
      </trkpt>
      <trkpt lat="48.15771" lon="7.29254">
        <ele>328</ele>
        <time>2019-04-12T17:17:44Z</time>
      </trkpt>
      <trkpt lat="48.15813" lon="7.29283">
        <ele>330</ele>
        <time>2019-04-12T17:18:44Z</time>
      </trkpt>
      <trkpt lat="48.15846" lon="7.29308">
        <ele>331</ele>
        <time>2019-04-12T17:19:44Z</time>
      </trkpt>
      <trkpt lat="48.15866" lon="7.29326">
        <ele>331</ele>
        <time>2019-04-12T17:20:44Z</time>
      </trkpt>
      <trkpt lat="48.15916" lon="7.29385">
        <ele>331</ele>
        <time>2019-04-12T17:21:44Z</time>
      </trkpt>
      <trkpt lat="48.15944" lon="7.29409">
        <ele>331</ele>
        <time>2019-04-12T17:22:44Z</time>
      </trkpt>
      <trkpt lat="48.15961" lon="7.29419">
        <ele>332</ele>
        <time>2019-04-12T17:23:44Z</time>
      </trkpt>
      <trkpt lat="48.16005" lon="7.29439">
        <ele>333</ele>
        <time>2019-04-12T17:24:44Z</time>
      </trkpt>
      <trkpt lat="48.16034" lon="7.29455">
        <ele>332</ele>
        <time>2019-04-12T17:25:44Z</time>
      </trkpt>
      <trkpt lat="48.16054" lon="7.29469">
        <ele>332</ele>
        <time>2019-04-12T17:26:44Z</time>
      </trkpt>
      <trkpt lat="48.16066" lon="7.29482">
        <ele>332</ele>
        <time>2019-04-12T17:27:44Z</time>
      </trkpt>
      <trkpt lat="48.1607" lon="7.2949">
        <ele>332</ele>
        <time>2019-04-12T17:28:44Z</time>
      </trkpt>
      <trkpt lat="48.16069" lon="7.29497">
        <ele>332</ele>
        <time>2019-04-12T17:29:44Z</time>
      </trkpt>
      <trkpt lat="48.1607" lon="7.2949">
        <ele>332</ele>
        <time>2019-04-12T17:30:44Z</time>
      </trkpt>
      <trkpt lat="48.16083" lon="7.29505">
        <ele>332</ele>
        <time>2019-04-12T17:31:44Z</time>
      </trkpt>
      <trkpt lat="48.161" lon="7.29519">
        <ele>330</ele>
        <time>2019-04-12T17:32:44Z</time>
      </trkpt>
      <trkpt lat="48.16116" lon="7.29528">
        <ele>328</ele>
        <time>2019-04-12T17:33:44Z</time>
      </trkpt>
      <trkpt lat="48.16142" lon="7.29539">
        <ele>325</ele>
        <time>2019-04-12T17:34:44Z</time>
      </trkpt>
      <trkpt lat="48.16191" lon="7.29572">
        <ele>321</ele>
        <time>2019-04-12T17:35:44Z</time>
      </trkpt>
      <trkpt lat="48.16205" lon="7.29579">
        <ele>319</ele>
        <time>2019-04-12T17:36:44Z</time>
      </trkpt>
      <trkpt lat="48.16282" lon="7.29605">
        <ele>312</ele>
        <time>2019-04-12T17:37:44Z</time>
      </trkpt>
      <trkpt lat="48.16328" lon="7.29624">
        <ele>307</ele>
        <time>2019-04-12T17:38:44Z</time>
      </trkpt>
      <trkpt lat="48.16346" lon="7.29635">
        <ele>306</ele>
        <time>2019-04-12T17:39:44Z</time>
      </trkpt>
      <trkpt lat="48.16382" lon="7.29627">
        <ele>305</ele>
        <time>2019-04-12T17:40:44Z</time>
      </trkpt>
      <trkpt lat="48.16412" lon="7.2963">
        <ele>303</ele>
        <time>2019-04-12T17:41:44Z</time>
      </trkpt>
      <trkpt lat="48.16455" lon="7.29641">
        <ele>303</ele>
        <time>2019-04-12T17:42:44Z</time>
      </trkpt>
      <trkpt lat="48.16467" lon="7.29599">
        <ele>306</ele>
        <time>2019-04-12T17:43:44Z</time>
      </trkpt>
      <trkpt lat="48.16481" lon="7.29568">
        <ele>308</ele>
        <time>2019-04-12T17:44:44Z</time>
      </trkpt>
      <trkpt lat="48.16495" lon="7.29549">
        <ele>309</ele>
        <time>2019-04-12T17:45:44Z</time>
      </trkpt>
      <trkpt lat="48.16576" lon="7.29457">
        <ele>314</ele>
        <time>2019-04-12T17:46:44Z</time>
      </trkpt>
      <trkpt lat="48.16582" lon="7.29452">
        <ele>314</ele>
        <time>2019-04-12T17:47:44Z</time>
      </trkpt>
      <trkpt lat="48.16597" lon="7.2945">
        <ele>314</ele>
        <time>2019-04-12T17:48:44Z</time>
      </trkpt>
      <trkpt lat="48.16658" lon="7.29454">
        <ele>315</ele>
        <time>2019-04-12T17:49:44Z</time>
      </trkpt>
      <trkpt lat="48.16703" lon="7.29449">
        <ele>317</ele>
        <time>2019-04-12T17:50:44Z</time>
      </trkpt>
      <trkpt lat="48.16721" lon="7.29452">
        <ele>317</ele>
        <time>2019-04-12T17:51:44Z</time>
      </trkpt>
      <trkpt lat="48.16729" lon="7.29456">
        <ele>317</ele>
        <time>2019-04-12T17:52:44Z</time>
      </trkpt>
      <trkpt lat="48.16733" lon="7.29464">
        <ele>317</ele>
        <time>2019-04-12T17:53:44Z</time>
      </trkpt>
      <trkpt lat="48.1673" lon="7.29484">
        <ele>316</ele>
        <time>2019-04-12T17:54:44Z</time>
      </trkpt>
      <trkpt lat="48.16769" lon="7.29502">
        <ele>316</ele>
        <time>2019-04-12T17:55:44Z</time>
      </trkpt>
      <trkpt lat="48.16815" lon="7.29512">
        <ele>315</ele>
        <time>2019-04-12T17:56:44Z</time>
      </trkpt>
      <trkpt lat="48.16978" lon="7.29486">
        <ele>335</ele>
        <time>2019-04-12T17:57:44Z</time>
      </trkpt>
      <trkpt lat="48.16988" lon="7.2948">
        <ele>336</ele>
        <time>2019-04-12T17:58:44Z</time>
      </trkpt>
      <trkpt lat="48.17009" lon="7.2946">
        <ele>339</ele>
        <time>2019-04-12T17:59:44Z</time>
      </trkpt>
      <trkpt lat="48.17028" lon="7.29452">
        <ele>342</ele>
        <time>2019-04-12T18:00:44Z</time>
      </trkpt>
      <trkpt lat="48.17047" lon="7.29448">
        <ele>345</ele>
        <time>2019-04-12T18:01:44Z</time>
      </trkpt>
      <trkpt lat="48.17067" lon="7.29452">
        <ele>348</ele>
        <time>2019-04-12T18:02:44Z</time>
      </trkpt>
      <trkpt lat="48.17092" lon="7.2946">
        <ele>352</ele>
        <time>2019-04-12T18:03:44Z</time>
      </trkpt>
      <trkpt lat="48.17105" lon="7.29455">
        <ele>354</ele>
        <time>2019-04-12T18:04:44Z</time>
      </trkpt>
      <trkpt lat="48.17129" lon="7.2946">
        <ele>358</ele>
        <time>2019-04-12T18:05:44Z</time>
      </trkpt>
      <trkpt lat="48.1719" lon="7.29481">
        <ele>366</ele>
        <time>2019-04-12T18:06:44Z</time>
      </trkpt>
      <trkpt lat="48.17205" lon="7.29491">
        <ele>368</ele>
        <time>2019-04-12T18:07:44Z</time>
      </trkpt>
      <trkpt lat="48.17217" lon="7.29502">
        <ele>370</ele>
        <time>2019-04-12T18:08:44Z</time>
      </trkpt>
      <trkpt lat="48.17301" lon="7.29616">
        <ele>378</ele>
        <time>2019-04-12T18:09:44Z</time>
      </trkpt>
      <trkpt lat="48.17357" lon="7.29713">
        <ele>379</ele>
        <time>2019-04-12T18:10:44Z</time>
      </trkpt>
      <trkpt lat="48.17419" lon="7.29807">
        <ele>372</ele>
        <time>2019-04-12T18:11:44Z</time>
      </trkpt>
      <trkpt lat="48.17454" lon="7.29847">
        <ele>368</ele>
        <time>2019-04-12T18:12:44Z</time>
      </trkpt>
      <trkpt lat="48.17468" lon="7.29868">
        <ele>365</ele>
        <time>2019-04-12T18:13:44Z</time>
      </trkpt>
      <trkpt lat="48.17499" lon="7.29921">
        <ele>356</ele>
        <time>2019-04-12T18:14:44Z</time>
      </trkpt>
      <trkpt lat="48.17535" lon="7.30004">
        <ele>345</ele>
        <time>2019-04-12T18:15:44Z</time>
      </trkpt>
      <trkpt lat="48.17573" lon="7.30047">
        <ele>339</ele>
        <time>2019-04-12T18:16:44Z</time>
      </trkpt>
      <trkpt lat="48.17579" lon="7.30052">
        <ele>339</ele>
        <time>2019-04-12T18:17:44Z</time>
      </trkpt>
      <trkpt lat="48.17585" lon="7.30061">
        <ele>338</ele>
        <time>2019-04-12T18:18:44Z</time>
      </trkpt>
      <trkpt lat="48.17601" lon="7.30095">
        <ele>336</ele>
        <time>2019-04-12T18:19:44Z</time>
      </trkpt>
      <trkpt lat="48.17611" lon="7.30124">
        <ele>334</ele>
        <time>2019-04-12T18:20:44Z</time>
      </trkpt>
      <trkpt lat="48.17633" lon="7.30175">
        <ele>331</ele>
        <time>2019-04-12T18:21:44Z</time>
      </trkpt>
      <trkpt lat="48.17664" lon="7.30242">
        <ele>323</ele>
        <time>2019-04-12T18:22:44Z</time>
      </trkpt>
      <trkpt lat="48.17674" lon="7.30259">
        <ele>322</ele>
        <time>2019-04-12T18:23:44Z</time>
      </trkpt>
      <trkpt lat="48.17723" lon="7.30329">
        <ele>320</ele>
        <time>2019-04-12T18:24:44Z</time>
      </trkpt>
      <trkpt lat="48.17737" lon="7.30353">
        <ele>319</ele>
        <time>2019-04-12T18:25:44Z</time>
      </trkpt>
      <trkpt lat="48.1779" lon="7.30464">
        <ele>313</ele>
        <time>2019-04-12T18:26:44Z</time>
      </trkpt>
      <trkpt lat="48.17793" lon="7.30478">
        <ele>312</ele>
        <time>2019-04-12T18:27:44Z</time>
      </trkpt>
      <trkpt lat="48.17802" lon="7.30532">
        <ele>307</ele>
        <time>2019-04-12T18:28:44Z</time>
      </trkpt>
      <trkpt lat="48.1782" lon="7.3059">
        <ele>303</ele>
        <time>2019-04-12T18:29:44Z</time>
      </trkpt>
      <trkpt lat="48.17836" lon="7.30623">
        <ele>301</ele>
        <time>2019-04-12T18:30:44Z</time>
      </trkpt>
      <trkpt lat="48.17862" lon="7.30656">
        <ele>298</ele>
        <time>2019-04-12T18:31:44Z</time>
      </trkpt>
      <trkpt lat="48.17883" lon="7.30679">
        <ele>295</ele>
        <time>2019-04-12T18:32:44Z</time>
      </trkpt>
      <trkpt lat="48.17911" lon="7.30707">
        <ele>291</ele>
        <time>2019-04-12T18:33:44Z</time>
      </trkpt>
      <trkpt lat="48.17933" lon="7.30726">
        <ele>290</ele>
        <time>2019-04-12T18:34:44Z</time>
      </trkpt>
      <trkpt lat="48.17949" lon="7.30734">
        <ele>289</ele>
        <time>2019-04-12T18:35:44Z</time>
      </trkpt>
      <trkpt lat="48.17963" lon="7.30738">
        <ele>288</ele>
        <time>2019-04-12T18:36:44Z</time>
      </trkpt>
      <trkpt lat="48.17964" lon="7.30725">
        <ele>289</ele>
        <time>2019-04-12T18:37:44Z</time>
      </trkpt>
      <trkpt lat="48.17969" lon="7.30729">
        <ele>288</ele>
        <time>2019-04-12T18:38:44Z</time>
      </trkpt>
      <trkpt lat="48.17978" lon="7.30747">
        <ele>287</ele>
        <time>2019-04-12T18:39:44Z</time>
      </trkpt>
      <trkpt lat="48.17989" lon="7.30777">
        <ele>285</ele>
        <time>2019-04-12T18:40:44Z</time>
      </trkpt>
      <trkpt lat="48.17993" lon="7.30806">
        <ele>283</ele>
        <time>2019-04-12T18:41:44Z</time>
      </trkpt>
      <trkpt lat="48.17995" lon="7.30826">
        <ele>282</ele>
        <time>2019-04-12T18:42:44Z</time>
      </trkpt>
      <trkpt lat="48.18042" lon="7.30831">
        <ele>282</ele>
        <time>2019-04-12T18:43:44Z</time>
      </trkpt>
      <trkpt lat="48.18128" lon="7.30853">
        <ele>281</ele>
        <time>2019-04-12T18:44:44Z</time>
      </trkpt>
      <trkpt lat="48.18212" lon="7.30853">
        <ele>286</ele>
        <time>2019-04-12T18:45:44Z</time>
      </trkpt>
      <trkpt lat="48.18284" lon="7.30865">
        <ele>290</ele>
        <time>2019-04-12T18:46:44Z</time>
      </trkpt>
      <trkpt lat="48.18331" lon="7.30884">
        <ele>293</ele>
        <time>2019-04-12T18:47:44Z</time>
      </trkpt>
      <trkpt lat="48.18502" lon="7.30984">
        <ele>300</ele>
        <time>2019-04-12T18:48:44Z</time>
      </trkpt>
      <trkpt lat="48.18519" lon="7.3099">
        <ele>299</ele>
        <time>2019-04-12T18:49:44Z</time>
      </trkpt>
      <trkpt lat="48.18528" lon="7.30989">
        <ele>299</ele>
        <time>2019-04-12T18:50:44Z</time>
      </trkpt>
      <trkpt lat="48.18597" lon="7.31007">
        <ele>297</ele>
        <time>2019-04-12T18:51:44Z</time>
      </trkpt>
      <trkpt lat="48.18656" lon="7.31015">
        <ele>296</ele>
        <time>2019-04-12T18:52:44Z</time>
      </trkpt>
      <trkpt lat="48.18677" lon="7.3102">
        <ele>296</ele>
        <time>2019-04-12T18:53:44Z</time>
      </trkpt>
      <trkpt lat="48.18791" lon="7.31054">
        <ele>301</ele>
        <time>2019-04-12T18:54:44Z</time>
      </trkpt>
      <trkpt lat="48.18835" lon="7.31076">
        <ele>304</ele>
        <time>2019-04-12T18:55:44Z</time>
      </trkpt>
      <trkpt lat="48.18893" lon="7.31094">
        <ele>306</ele>
        <time>2019-04-12T18:56:44Z</time>
      </trkpt>
      <trkpt lat="48.18939" lon="7.31111">
        <ele>306</ele>
        <time>2019-04-12T18:57:44Z</time>
      </trkpt>
      <trkpt lat="48.18987" lon="7.31122">
        <ele>304</ele>
        <time>2019-04-12T18:58:44Z</time>
      </trkpt>
      <trkpt lat="48.19" lon="7.31116">
        <ele>304</ele>
        <time>2019-04-12T18:59:44Z</time>
      </trkpt>
      <trkpt lat="48.19009" lon="7.31115">
        <ele>303</ele>
        <time>2019-04-12T19:00:44Z</time>
      </trkpt>
      <trkpt lat="48.19056" lon="7.31125">
        <ele>298</ele>
        <time>2019-04-12T19:01:44Z</time>
      </trkpt>
      <trkpt lat="48.19082" lon="7.31135">
        <ele>296</ele>
        <time>2019-04-12T19:02:44Z</time>
      </trkpt>
      <trkpt lat="48.19195" lon="7.31204">
        <ele>284</ele>
        <time>2019-04-12T19:03:44Z</time>
      </trkpt>
      <trkpt lat="48.19221" lon="7.31217">
        <ele>284</ele>
        <time>2019-04-12T19:04:44Z</time>
      </trkpt>
      <trkpt lat="48.19238" lon="7.31221">
        <ele>283</ele>
        <time>2019-04-12T19:05:44Z</time>
      </trkpt>
      <trkpt lat="48.19248" lon="7.31227">
        <ele>283</ele>
        <time>2019-04-12T19:06:44Z</time>
      </trkpt>
      <trkpt lat="48.19255" lon="7.31235">
        <ele>282</ele>
        <time>2019-04-12T19:07:44Z</time>
      </trkpt>
      <trkpt lat="48.19272" lon="7.31269">
        <ele>280</ele>
        <time>2019-04-12T19:08:44Z</time>
      </trkpt>
      <trkpt lat="48.1928" lon="7.31281">
        <ele>279</ele>
        <time>2019-04-12T19:09:44Z</time>
      </trkpt>
      <trkpt lat="48.19336" lon="7.3133">
        <ele>274</ele>
        <time>2019-04-12T19:10:44Z</time>
      </trkpt>
      <trkpt lat="48.19373" lon="7.31374">
        <ele>271</ele>
        <time>2019-04-12T19:11:44Z</time>
      </trkpt>
      <trkpt lat="48.19396" lon="7.31391">
        <ele>269</ele>
        <time>2019-04-12T19:12:44Z</time>
      </trkpt>
      <trkpt lat="48.19346" lon="7.31488">
        <ele>270</ele>
        <time>2019-04-12T19:13:44Z</time>
      </trkpt>
      <trkpt lat="48.19334" lon="7.31522">
        <ele>271</ele>
        <time>2019-04-12T19:14:44Z</time>
      </trkpt>
      <trkpt lat="48.19326" lon="7.3156">
        <ele>271</ele>
        <time>2019-04-12T19:15:44Z</time>
      </trkpt>
      <trkpt lat="48.19316" lon="7.31644">
        <ele>271</ele>
        <time>2019-04-12T19:16:44Z</time>
      </trkpt>
      <trkpt lat="48.19306" lon="7.31715">
        <ele>268</ele>
        <time>2019-04-12T19:17:44Z</time>
      </trkpt>
      <trkpt lat="48.19173" lon="7.32335">
        <ele>246</ele>
        <time>2019-04-12T19:18:44Z</time>
      </trkpt>
      <trkpt lat="48.19161" lon="7.32421">
        <ele>242</ele>
        <time>2019-04-12T19:19:44Z</time>
      </trkpt>
      <trkpt lat="48.19155" lon="7.32452">
        <ele>240</ele>
        <time>2019-04-12T19:20:44Z</time>
      </trkpt>
      <trkpt lat="48.19154" lon="7.3246">
        <ele>240</ele>
        <time>2019-04-12T19:21:44Z</time>
      </trkpt>
      <trkpt lat="48.19152" lon="7.32467">
        <ele>240</ele>
        <time>2019-04-12T19:22:44Z</time>
      </trkpt>
      <trkpt lat="48.19153" lon="7.32472">
        <ele>239</ele>
        <time>2019-04-12T19:23:44Z</time>
      </trkpt>
      <trkpt lat="48.19155" lon="7.32476">
        <ele>239</ele>
        <time>2019-04-12T19:24:44Z</time>
      </trkpt>
      <trkpt lat="48.19159" lon="7.32478">
        <ele>238</ele>
        <time>2019-04-12T19:25:44Z</time>
      </trkpt>
      <trkpt lat="48.19221" lon="7.32469">
        <ele>239</ele>
        <time>2019-04-12T19:26:44Z</time>
      </trkpt>
      <trkpt lat="48.19229" lon="7.32476">
        <ele>238</ele>
        <time>2019-04-12T19:27:44Z</time>
      </trkpt>
      <trkpt lat="48.19233" lon="7.32483">
        <ele>238</ele>
        <time>2019-04-12T19:28:44Z</time>
      </trkpt>
      <trkpt lat="48.19233" lon="7.32488">
        <ele>238</ele>
        <time>2019-04-12T19:29:44Z</time>
      </trkpt>
      <trkpt lat="48.19236" lon="7.32497">
        <ele>238</ele>
        <time>2019-04-12T19:30:44Z</time>
      </trkpt>
      <trkpt lat="48.19241" lon="7.32503">
        <ele>238</ele>
        <time>2019-04-12T19:31:44Z</time>
      </trkpt>
      <trkpt lat="48.19247" lon="7.32504">
        <ele>238</ele>
        <time>2019-04-12T19:32:44Z</time>
      </trkpt>
      <trkpt lat="48.19253" lon="7.32501">
        <ele>238</ele>
        <time>2019-04-12T19:33:44Z</time>
      </trkpt>
      <trkpt lat="48.19258" lon="7.32492">
        <ele>238</ele>
        <time>2019-04-12T19:34:44Z</time>
      </trkpt>
      <trkpt lat="48.19282" lon="7.32458">
        <ele>240</ele>
        <time>2019-04-12T19:35:44Z</time>
      </trkpt>
      <trkpt lat="48.19296" lon="7.32456">
        <ele>240</ele>
        <time>2019-04-12T19:36:44Z</time>
      </trkpt>
      <trkpt lat="48.19319" lon="7.32462">
        <ele>241</ele>
        <time>2019-04-12T19:37:44Z</time>
      </trkpt>
      <trkpt lat="48.19407" lon="7.32495">
        <ele>241</ele>
        <time>2019-04-12T19:38:44Z</time>
      </trkpt>
      <trkpt lat="48.19422" lon="7.32503">
        <ele>242</ele>
        <time>2019-04-12T19:39:44Z</time>
      </trkpt>
      <trkpt lat="48.19426" lon="7.32507">
        <ele>242</ele>
        <time>2019-04-12T19:40:44Z</time>
      </trkpt>
      <trkpt lat="48.19429" lon="7.32514">
        <ele>243</ele>
        <time>2019-04-12T19:41:44Z</time>
      </trkpt>
      <trkpt lat="48.19439" lon="7.3255">
        <ele>244</ele>
        <time>2019-04-12T19:42:44Z</time>
      </trkpt>
      <trkpt lat="48.19447" lon="7.32604">
        <ele>244</ele>
        <time>2019-04-12T19:43:44Z</time>
      </trkpt>
      <trkpt lat="48.19454" lon="7.32784">
        <ele>239</ele>
        <time>2019-04-12T19:44:44Z</time>
      </trkpt>
      <trkpt lat="48.19466" lon="7.32909">
        <ele>236</ele>
        <time>2019-04-12T19:45:44Z</time>
      </trkpt>
      <trkpt lat="48.19475" lon="7.32959">
        <ele>236</ele>
        <time>2019-04-12T19:46:44Z</time>
      </trkpt>
      <trkpt lat="48.195" lon="7.33037">
        <ele>236</ele>
        <time>2019-04-12T19:47:44Z</time>
      </trkpt>
      <trkpt lat="48.19521" lon="7.33081">
        <ele>237</ele>
        <time>2019-04-12T19:48:44Z</time>
      </trkpt>
      <trkpt lat="48.19584" lon="7.33184">
        <ele>236</ele>
        <time>2019-04-12T19:49:44Z</time>
      </trkpt>
      <trkpt lat="48.19619" lon="7.33253">
        <ele>234</ele>
        <time>2019-04-12T19:50:44Z</time>
      </trkpt>
      <trkpt lat="48.19636" lon="7.33278">
        <ele>234</ele>
        <time>2019-04-12T19:51:44Z</time>
      </trkpt>
      <trkpt lat="48.19732" lon="7.33396">
        <ele>229</ele>
        <time>2019-04-12T19:52:44Z</time>
      </trkpt>
      <trkpt lat="48.19771" lon="7.33452">
        <ele>228</ele>
        <time>2019-04-12T19:53:44Z</time>
      </trkpt>
      <trkpt lat="48.19785" lon="7.33488">
        <ele>229</ele>
        <time>2019-04-12T19:54:44Z</time>
      </trkpt>
      <trkpt lat="48.19807" lon="7.33587">
        <ele>228</ele>
        <time>2019-04-12T19:55:44Z</time>
      </trkpt>
      <trkpt lat="48.19815" lon="7.33609">
        <ele>228</ele>
        <time>2019-04-12T19:56:44Z</time>
      </trkpt>
      <trkpt lat="48.19853" lon="7.33694">
        <ele>229</ele>
        <time>2019-04-12T19:57:44Z</time>
      </trkpt>
      <trkpt lat="48.1987" lon="7.33725">
        <ele>229</ele>
        <time>2019-04-12T19:58:44Z</time>
      </trkpt>
      <trkpt lat="48.19889" lon="7.3375">
        <ele>229</ele>
        <time>2019-04-12T19:59:44Z</time>
      </trkpt>
      <trkpt lat="48.19955" lon="7.33802">
        <ele>233</ele>
        <time>2019-04-12T20:00:44Z</time>
      </trkpt>
      <trkpt lat="48.19968" lon="7.33818">
        <ele>234</ele>
        <time>2019-04-12T20:01:44Z</time>
      </trkpt>
      <trkpt lat="48.19981" lon="7.33841">
        <ele>235</ele>
        <time>2019-04-12T20:02:44Z</time>
      </trkpt>
      <trkpt lat="48.20012" lon="7.33915">
        <ele>238</ele>
        <time>2019-04-12T20:03:44Z</time>
      </trkpt>
      <trkpt lat="48.20021" lon="7.33931">
        <ele>238</ele>
        <time>2019-04-12T20:04:44Z</time>
      </trkpt>
      <trkpt lat="48.20086" lon="7.34018">
        <ele>238</ele>
        <time>2019-04-12T20:05:44Z</time>
      </trkpt>
      <trkpt lat="48.20109" lon="7.34054">
        <ele>239</ele>
        <time>2019-04-12T20:06:44Z</time>
      </trkpt>
      <trkpt lat="48.20119" lon="7.34078">
        <ele>239</ele>
        <time>2019-04-12T20:07:44Z</time>
      </trkpt>
      <trkpt lat="48.20127" lon="7.34109">
        <ele>239</ele>
        <time>2019-04-12T20:08:44Z</time>
      </trkpt>
      <trkpt lat="48.20137" lon="7.34183">
        <ele>239</ele>
        <time>2019-04-12T20:09:44Z</time>
      </trkpt>
      <trkpt lat="48.20144" lon="7.34297">
        <ele>238</ele>
        <time>2019-04-12T20:10:44Z</time>
      </trkpt>
      <trkpt lat="48.20147" lon="7.34397">
        <ele>239</ele>
        <time>2019-04-12T20:11:44Z</time>
      </trkpt>
      <trkpt lat="48.2015" lon="7.34431">
        <ele>240</ele>
        <time>2019-04-12T20:12:44Z</time>
      </trkpt>
      <trkpt lat="48.20157" lon="7.34461">
        <ele>240</ele>
        <time>2019-04-12T20:13:44Z</time>
      </trkpt>
      <trkpt lat="48.20184" lon="7.34532">
        <ele>240</ele>
        <time>2019-04-12T20:14:44Z</time>
      </trkpt>
      <trkpt lat="48.20205" lon="7.34604">
        <ele>240</ele>
        <time>2019-04-12T20:15:44Z</time>
      </trkpt>
      <trkpt lat="48.20231" lon="7.34667">
        <ele>241</ele>
        <time>2019-04-12T20:16:44Z</time>
      </trkpt>
      <trkpt lat="48.20264" lon="7.34729">
        <ele>239</ele>
        <time>2019-04-12T20:17:44Z</time>
      </trkpt>
      <trkpt lat="48.20281" lon="7.34755">
        <ele>238</ele>
        <time>2019-04-12T20:18:44Z</time>
      </trkpt>
      <trkpt lat="48.20295" lon="7.34771">
        <ele>236</ele>
        <time>2019-04-12T20:19:44Z</time>
      </trkpt>
      <trkpt lat="48.2035" lon="7.34826">
        <ele>231</ele>
        <time>2019-04-12T20:20:44Z</time>
      </trkpt>
      <trkpt lat="48.20367" lon="7.34851">
        <ele>229</ele>
        <time>2019-04-12T20:21:44Z</time>
      </trkpt>
      <trkpt lat="48.2038" lon="7.34874">
        <ele>228</ele>
        <time>2019-04-12T20:22:44Z</time>
      </trkpt>
      <trkpt lat="48.20393" lon="7.34905">
        <ele>228</ele>
        <time>2019-04-12T20:23:44Z</time>
      </trkpt>
      <trkpt lat="48.20409" lon="7.34963">
        <ele>228</ele>
        <time>2019-04-12T20:24:44Z</time>
      </trkpt>
      <trkpt lat="48.20421" lon="7.34998">
        <ele>228</ele>
        <time>2019-04-12T20:25:44Z</time>
      </trkpt>
      <trkpt lat="48.20459" lon="7.35062">
        <ele>226</ele>
        <time>2019-04-12T20:26:44Z</time>
      </trkpt>
      <trkpt lat="48.20469" lon="7.35088">
        <ele>226</ele>
        <time>2019-04-12T20:27:44Z</time>
      </trkpt>
      <trkpt lat="48.20485" lon="7.3507">
        <ele>226</ele>
        <time>2019-04-12T20:28:44Z</time>
      </trkpt>
      <trkpt lat="48.20505" lon="7.34984">
        <ele>227</ele>
        <time>2019-04-12T20:29:44Z</time>
      </trkpt>
      <trkpt lat="48.20519" lon="7.3495">
        <ele>227</ele>
        <time>2019-04-12T20:30:44Z</time>
      </trkpt>
      <trkpt lat="48.20547" lon="7.34905">
        <ele>226</ele>
        <time>2019-04-12T20:31:44Z</time>
      </trkpt>
      <trkpt lat="48.20573" lon="7.34869">
        <ele>227</ele>
        <time>2019-04-12T20:32:44Z</time>
      </trkpt>
      <trkpt lat="48.20586" lon="7.34856">
        <ele>227</ele>
        <time>2019-04-12T20:33:44Z</time>
      </trkpt>
      <trkpt lat="48.20596" lon="7.34873">
        <ele>226</ele>
        <time>2019-04-12T20:34:44Z</time>
      </trkpt>
      <trkpt lat="48.2063" lon="7.34913">
        <ele>225</ele>
        <time>2019-04-12T20:35:44Z</time>
      </trkpt>
      <trkpt lat="48.20721" lon="7.35007">
        <ele>223</ele>
        <time>2019-04-12T20:36:44Z</time>
      </trkpt>
      <trkpt lat="48.20754" lon="7.35035">
        <ele>223</ele>
        <time>2019-04-12T20:37:44Z</time>
      </trkpt>
      <trkpt lat="48.20781" lon="7.3496">
        <ele>226</ele>
        <time>2019-04-12T20:38:44Z</time>
      </trkpt>
      <trkpt lat="48.20789" lon="7.34922">
        <ele>227</ele>
        <time>2019-04-12T20:39:44Z</time>
      </trkpt>
      <trkpt lat="48.20791" lon="7.34892">
        <ele>228</ele>
        <time>2019-04-12T20:40:44Z</time>
      </trkpt>
      <trkpt lat="48.20787" lon="7.34806">
        <ele>228</ele>
        <time>2019-04-12T20:41:44Z</time>
      </trkpt>
      <trkpt lat="48.208" lon="7.34706">
        <ele>230</ele>
        <time>2019-04-12T20:42:44Z</time>
      </trkpt>
      <trkpt lat="48.20807" lon="7.34662">
        <ele>231</ele>
        <time>2019-04-12T20:43:44Z</time>
      </trkpt>
      <trkpt lat="48.20826" lon="7.34598">
        <ele>233</ele>
        <time>2019-04-12T20:44:44Z</time>
      </trkpt>
      <trkpt lat="48.20839" lon="7.34529">
        <ele>234</ele>
        <time>2019-04-12T20:45:44Z</time>
      </trkpt>
      <trkpt lat="48.20847" lon="7.34501">
        <ele>234</ele>
        <time>2019-04-12T20:46:44Z</time>
      </trkpt>
      <trkpt lat="48.20855" lon="7.3448">
        <ele>235</ele>
        <time>2019-04-12T20:47:44Z</time>
      </trkpt>
      <trkpt lat="48.20878" lon="7.34438">
        <ele>237</ele>
        <time>2019-04-12T20:48:44Z</time>
      </trkpt>
      <trkpt lat="48.20893" lon="7.34417">
        <ele>238</ele>
        <time>2019-04-12T20:49:44Z</time>
      </trkpt>
      <trkpt lat="48.20912" lon="7.34399">
        <ele>239</ele>
        <time>2019-04-12T20:50:44Z</time>
      </trkpt>
      <trkpt lat="48.20939" lon="7.34382">
        <ele>240</ele>
        <time>2019-04-12T20:51:44Z</time>
      </trkpt>
      <trkpt lat="48.20975" lon="7.34372">
        <ele>240</ele>
        <time>2019-04-12T20:52:44Z</time>
      </trkpt>
      <trkpt lat="48.21001" lon="7.34353">
        <ele>240</ele>
        <time>2019-04-12T20:53:44Z</time>
      </trkpt>
      <trkpt lat="48.21033" lon="7.34318">
        <ele>242</ele>
        <time>2019-04-12T20:54:44Z</time>
      </trkpt>
      <trkpt lat="48.21111" lon="7.34237">
        <ele>247</ele>
        <time>2019-04-12T20:55:44Z</time>
      </trkpt>
      <trkpt lat="48.21148" lon="7.34195">
        <ele>250</ele>
        <time>2019-04-12T20:56:44Z</time>
      </trkpt>
      <trkpt lat="48.21188" lon="7.34143">
        <ele>252</ele>
        <time>2019-04-12T20:57:44Z</time>
      </trkpt>
      <trkpt lat="48.21227" lon="7.34077">
        <ele>252</ele>
        <time>2019-04-12T20:58:44Z</time>
      </trkpt>
      <trkpt lat="48.21273" lon="7.33989">
        <ele>254</ele>
        <time>2019-04-12T20:59:44Z</time>
      </trkpt>
      <trkpt lat="48.21294" lon="7.33931">
        <ele>256</ele>
        <time>2019-04-12T21:00:44Z</time>
      </trkpt>
      <trkpt lat="48.21326" lon="7.33836">
        <ele>258</ele>
        <time>2019-04-12T21:01:44Z</time>
      </trkpt>
      <trkpt lat="48.21339" lon="7.33801">
        <ele>260</ele>
        <time>2019-04-12T21:02:44Z</time>
      </trkpt>
      <trkpt lat="48.21374" lon="7.33748">
        <ele>267</ele>
        <time>2019-04-12T21:03:44Z</time>
      </trkpt>
      <trkpt lat="48.21406" lon="7.33686">
        <ele>269</ele>
        <time>2019-04-12T21:04:44Z</time>
      </trkpt>
      <trkpt lat="48.21427" lon="7.33666">
        <ele>268</ele>
        <time>2019-04-12T21:05:44Z</time>
      </trkpt>
      <trkpt lat="48.21454" lon="7.33649">
        <ele>270</ele>
        <time>2019-04-12T21:06:44Z</time>
      </trkpt>
      <trkpt lat="48.21497" lon="7.33614">
        <ele>269</ele>
        <time>2019-04-12T21:07:44Z</time>
      </trkpt>
      <trkpt lat="48.21538" lon="7.33571">
        <ele>270</ele>
        <time>2019-04-12T21:08:44Z</time>
      </trkpt>
      <trkpt lat="48.21604" lon="7.33513">
        <ele>274</ele>
        <time>2019-04-12T21:09:44Z</time>
      </trkpt>
      <trkpt lat="48.21685" lon="7.33397">
        <ele>288</ele>
        <time>2019-04-12T21:10:44Z</time>
      </trkpt>
      <trkpt lat="48.21711" lon="7.33364">
        <ele>291</ele>
        <time>2019-04-12T21:11:44Z</time>
      </trkpt>
      <trkpt lat="48.21731" lon="7.33333">
        <ele>289</ele>
        <time>2019-04-12T21:12:44Z</time>
      </trkpt>
      <trkpt lat="48.21744" lon="7.333">
        <ele>289</ele>
        <time>2019-04-12T21:13:44Z</time>
      </trkpt>
      <trkpt lat="48.21752" lon="7.33268">
        <ele>287</ele>
        <time>2019-04-12T21:14:44Z</time>
      </trkpt>
      <trkpt lat="48.21758" lon="7.33219">
        <ele>289</ele>
        <time>2019-04-12T21:15:44Z</time>
      </trkpt>
      <trkpt lat="48.2178" lon="7.33154">
        <ele>294</ele>
        <time>2019-04-12T21:16:44Z</time>
      </trkpt>
      <trkpt lat="48.21833" lon="7.33061">
        <ele>293</ele>
        <time>2019-04-12T21:17:44Z</time>
      </trkpt>
      <trkpt lat="48.21895" lon="7.32945">
        <ele>299</ele>
        <time>2019-04-12T21:18:44Z</time>
      </trkpt>
      <trkpt lat="48.21926" lon="7.32885">
        <ele>296</ele>
        <time>2019-04-12T21:19:44Z</time>
      </trkpt>
      <trkpt lat="48.21965" lon="7.32815">
        <ele>300</ele>
        <time>2019-04-12T21:20:44Z</time>
      </trkpt>
      <trkpt lat="48.21996" lon="7.32764">
        <ele>295</ele>
        <time>2019-04-12T21:21:44Z</time>
      </trkpt>
      <trkpt lat="48.2204" lon="7.32701">
        <ele>301</ele>
        <time>2019-04-12T21:22:44Z</time>
      </trkpt>
      <trkpt lat="48.22068" lon="7.32655">
        <ele>300</ele>
        <time>2019-04-12T21:23:44Z</time>
      </trkpt>
      <trkpt lat="48.22108" lon="7.32572">
        <ele>302</ele>
        <time>2019-04-12T21:24:44Z</time>
      </trkpt>
      <trkpt lat="48.22127" lon="7.32514">
        <ele>310</ele>
        <time>2019-04-12T21:25:44Z</time>
      </trkpt>
      <trkpt lat="48.22144" lon="7.32424">
        <ele>322</ele>
        <time>2019-04-12T21:26:44Z</time>
      </trkpt>
      <trkpt lat="48.22152" lon="7.32261">
        <ele>325</ele>
        <time>2019-04-12T21:27:44Z</time>
      </trkpt>
      <trkpt lat="48.22155" lon="7.32242">
        <ele>325</ele>
        <time>2019-04-12T21:28:44Z</time>
      </trkpt>
      <trkpt lat="48.22168" lon="7.32221">
        <ele>324</ele>
        <time>2019-04-12T21:29:44Z</time>
      </trkpt>
      <trkpt lat="48.22194" lon="7.32197">
        <ele>330</ele>
        <time>2019-04-12T21:30:44Z</time>
      </trkpt>
      <trkpt lat="48.2221" lon="7.32172">
        <ele>330</ele>
        <time>2019-04-12T21:31:44Z</time>
      </trkpt>
      <trkpt lat="48.22222" lon="7.3214">
        <ele>329</ele>
        <time>2019-04-12T21:32:44Z</time>
      </trkpt>
      <trkpt lat="48.22231" lon="7.32105">
        <ele>327</ele>
        <time>2019-04-12T21:33:44Z</time>
      </trkpt>
      <trkpt lat="48.22233" lon="7.32046">
        <ele>327</ele>
        <time>2019-04-12T21:34:44Z</time>
      </trkpt>
      <trkpt lat="48.22227" lon="7.32007">
        <ele>330</ele>
        <time>2019-04-12T21:35:44Z</time>
      </trkpt>
      <trkpt lat="48.22202" lon="7.31932">
        <ele>335</ele>
        <time>2019-04-12T21:36:44Z</time>
      </trkpt>
      <trkpt lat="48.22178" lon="7.31842">
        <ele>332</ele>
        <time>2019-04-12T21:37:44Z</time>
      </trkpt>
      <trkpt lat="48.22174" lon="7.3181">
        <ele>332</ele>
        <time>2019-04-12T21:38:44Z</time>
      </trkpt>
      <trkpt lat="48.22175" lon="7.31788">
        <ele>334</ele>
        <time>2019-04-12T21:39:44Z</time>
      </trkpt>
      <trkpt lat="48.22184" lon="7.31722">
        <ele>340</ele>
        <time>2019-04-12T21:40:44Z</time>
      </trkpt>
      <trkpt lat="48.22189" lon="7.31696">
        <ele>342</ele>
        <time>2019-04-12T21:41:44Z</time>
      </trkpt>
      <trkpt lat="48.22195" lon="7.31675">
        <ele>343</ele>
        <time>2019-04-12T21:42:44Z</time>
      </trkpt>
      <trkpt lat="48.22209" lon="7.31652">
        <ele>346</ele>
        <time>2019-04-12T21:43:44Z</time>
      </trkpt>
      <trkpt lat="48.22248" lon="7.31639">
        <ele>345</ele>
        <time>2019-04-12T21:44:44Z</time>
      </trkpt>
      <trkpt lat="48.2232" lon="7.31625">
        <ele>347</ele>
        <time>2019-04-12T21:45:44Z</time>
      </trkpt>
      <trkpt lat="48.22333" lon="7.31618">
        <ele>347</ele>
        <time>2019-04-12T21:46:44Z</time>
      </trkpt>
      <trkpt lat="48.22343" lon="7.31591">
        <ele>351</ele>
        <time>2019-04-12T21:47:44Z</time>
      </trkpt>
      <trkpt lat="48.22359" lon="7.31518">
        <ele>362</ele>
        <time>2019-04-12T21:48:44Z</time>
      </trkpt>
      <trkpt lat="48.22359" lon="7.31497">
        <ele>364</ele>
        <time>2019-04-12T21:49:44Z</time>
      </trkpt>
      <trkpt lat="48.22354" lon="7.31461">
        <ele>367</ele>
        <time>2019-04-12T21:50:44Z</time>
      </trkpt>
      <trkpt lat="48.22354" lon="7.31428">
        <ele>371</ele>
        <time>2019-04-12T21:51:44Z</time>
      </trkpt>
      <trkpt lat="48.22359" lon="7.3141">
        <ele>373</ele>
        <time>2019-04-12T21:52:44Z</time>
      </trkpt>
      <trkpt lat="48.22369" lon="7.31398">
        <ele>374</ele>
        <time>2019-04-12T21:53:44Z</time>
      </trkpt>
      <trkpt lat="48.2238" lon="7.31399">
        <ele>373</ele>
        <time>2019-04-12T21:54:44Z</time>
      </trkpt>
      <trkpt lat="48.22393" lon="7.31415">
        <ele>370</ele>
        <time>2019-04-12T21:55:44Z</time>
      </trkpt>
      <trkpt lat="48.2241" lon="7.3143">
        <ele>368</ele>
        <time>2019-04-12T21:56:44Z</time>
      </trkpt>
      <trkpt lat="48.2242" lon="7.31433">
        <ele>369</ele>
        <time>2019-04-12T21:57:44Z</time>
      </trkpt>
      <trkpt lat="48.2243" lon="7.31425">
        <ele>370</ele>
        <time>2019-04-12T21:58:44Z</time>
      </trkpt>
      <trkpt lat="48.2246" lon="7.31394">
        <ele>377</ele>
        <time>2019-04-12T21:59:44Z</time>
      </trkpt>
      <trkpt lat="48.22499" lon="7.31365">
        <ele>383</ele>
        <time>2019-04-12T22:00:44Z</time>
      </trkpt>
      <trkpt lat="48.22533" lon="7.31354">
        <ele>388</ele>
        <time>2019-04-12T22:01:44Z</time>
      </trkpt>
      <trkpt lat="48.22546" lon="7.31343">
        <ele>389</ele>
        <time>2019-04-12T22:02:44Z</time>
      </trkpt>
      <trkpt lat="48.22559" lon="7.31323">
        <ele>390</ele>
        <time>2019-04-12T22:03:44Z</time>
      </trkpt>
      <trkpt lat="48.2257" lon="7.31288">
        <ele>391</ele>
        <time>2019-04-12T22:04:44Z</time>
      </trkpt>
      <trkpt lat="48.22591" lon="7.31184">
        <ele>392</ele>
        <time>2019-04-12T22:05:44Z</time>
      </trkpt>
      <trkpt lat="48.22592" lon="7.31163">
        <ele>392</ele>
        <time>2019-04-12T22:06:44Z</time>
      </trkpt>
      <trkpt lat="48.22589" lon="7.31125">
        <ele>394</ele>
        <time>2019-04-12T22:07:44Z</time>
      </trkpt>
      <trkpt lat="48.22589" lon="7.31095">
        <ele>396</ele>
        <time>2019-04-12T22:08:44Z</time>
      </trkpt>
      <trkpt lat="48.22596" lon="7.3108">
        <ele>398</ele>
        <time>2019-04-12T22:09:44Z</time>
      </trkpt>
      <trkpt lat="48.22606" lon="7.31064">
        <ele>400</ele>
        <time>2019-04-12T22:10:44Z</time>
      </trkpt>
      <trkpt lat="48.22631" lon="7.31031">
        <ele>402</ele>
        <time>2019-04-12T22:11:44Z</time>
      </trkpt>
      <trkpt lat="48.22644" lon="7.31011">
        <ele>403</ele>
        <time>2019-04-12T22:12:44Z</time>
      </trkpt>
      <trkpt lat="48.22657" lon="7.31008">
        <ele>402</ele>
        <time>2019-04-12T22:13:44Z</time>
      </trkpt>
      <trkpt lat="48.22666" lon="7.31012">
        <ele>401</ele>
        <time>2019-04-12T22:14:44Z</time>
      </trkpt>
      <trkpt lat="48.22675" lon="7.31022">
        <ele>402</ele>
        <time>2019-04-12T22:15:44Z</time>
      </trkpt>
      <trkpt lat="48.2268" lon="7.31037">
        <ele>402</ele>
        <time>2019-04-12T22:16:44Z</time>
      </trkpt>
      <trkpt lat="48.2268" lon="7.31071">
        <ele>401</ele>
        <time>2019-04-12T22:17:44Z</time>
      </trkpt>
      <trkpt lat="48.22683" lon="7.311">
        <ele>403</ele>
        <time>2019-04-12T22:18:44Z</time>
      </trkpt>
      <trkpt lat="48.22688" lon="7.31117">
        <ele>407</ele>
        <time>2019-04-12T22:19:44Z</time>
      </trkpt>
      <trkpt lat="48.22697" lon="7.31126">
        <ele>411</ele>
        <time>2019-04-12T22:20:44Z</time>
      </trkpt>
      <trkpt lat="48.2271" lon="7.31126">
        <ele>414</ele>
        <time>2019-04-12T22:21:44Z</time>
      </trkpt>
      <trkpt lat="48.2272" lon="7.31118">
        <ele>414</ele>
        <time>2019-04-12T22:22:44Z</time>
      </trkpt>
      <trkpt lat="48.22751" lon="7.31067">
        <ele>412</ele>
        <time>2019-04-12T22:23:44Z</time>
      </trkpt>
      <trkpt lat="48.22768" lon="7.31049">
        <ele>416</ele>
        <time>2019-04-12T22:24:44Z</time>
      </trkpt>
      <trkpt lat="48.22792" lon="7.3103">
        <ele>420</ele>
        <time>2019-04-12T22:25:44Z</time>
      </trkpt>
      <trkpt lat="48.22812" lon="7.31001">
        <ele>419</ele>
        <time>2019-04-12T22:26:44Z</time>
      </trkpt>
      <trkpt lat="48.22831" lon="7.30967">
        <ele>420</ele>
        <time>2019-04-12T22:27:44Z</time>
      </trkpt>
      <trkpt lat="48.22853" lon="7.30937">
        <ele>423</ele>
        <time>2019-04-12T22:28:44Z</time>
      </trkpt>
      <trkpt lat="48.22879" lon="7.3091">
        <ele>425</ele>
        <time>2019-04-12T22:29:44Z</time>
      </trkpt>
      <trkpt lat="48.22936" lon="7.30865">
        <ele>432</ele>
        <time>2019-04-12T22:30:44Z</time>
      </trkpt>
      <trkpt lat="48.22964" lon="7.30858">
        <ele>435</ele>
        <time>2019-04-12T22:31:44Z</time>
      </trkpt>
      <trkpt lat="48.22987" lon="7.30847">
        <ele>435</ele>
        <time>2019-04-12T22:32:44Z</time>
      </trkpt>
      <trkpt lat="48.22997" lon="7.30837">
        <ele>433</ele>
        <time>2019-04-12T22:33:44Z</time>
      </trkpt>
      <trkpt lat="48.23003" lon="7.30826">
        <ele>433</ele>
        <time>2019-04-12T22:34:44Z</time>
      </trkpt>
      <trkpt lat="48.23004" lon="7.30816">
        <ele>434</ele>
        <time>2019-04-12T22:35:44Z</time>
      </trkpt>
      <trkpt lat="48.23002" lon="7.30801">
        <ele>435</ele>
        <time>2019-04-12T22:36:44Z</time>
      </trkpt>
      <trkpt lat="48.22998" lon="7.30793">
        <ele>436</ele>
        <time>2019-04-12T22:37:44Z</time>
      </trkpt>
      <trkpt lat="48.2299" lon="7.30784">
        <ele>437</ele>
        <time>2019-04-12T22:38:44Z</time>
      </trkpt>
      <trkpt lat="48.22979" lon="7.30784">
        <ele>438</ele>
        <time>2019-04-12T22:39:44Z</time>
      </trkpt>
      <trkpt lat="48.22926" lon="7.30795">
        <ele>438</ele>
        <time>2019-04-12T22:40:44Z</time>
      </trkpt>
      <trkpt lat="48.22844" lon="7.3083">
        <ele>437</ele>
        <time>2019-04-12T22:41:44Z</time>
      </trkpt>
      <trkpt lat="48.22783" lon="7.30884">
        <ele>431</ele>
        <time>2019-04-12T22:42:44Z</time>
      </trkpt>
      <trkpt lat="48.22763" lon="7.30898">
        <ele>431</ele>
        <time>2019-04-12T22:43:44Z</time>
      </trkpt>
      <trkpt lat="48.22745" lon="7.30901">
        <ele>432</ele>
        <time>2019-04-12T22:44:44Z</time>
      </trkpt>
      <trkpt lat="48.22727" lon="7.30893">
        <ele>432</ele>
        <time>2019-04-12T22:45:44Z</time>
      </trkpt>
      <trkpt lat="48.22708" lon="7.30871">
        <ele>435</ele>
        <time>2019-04-12T22:46:44Z</time>
      </trkpt>
      <trkpt lat="48.22688" lon="7.30839">
        <ele>439</ele>
        <time>2019-04-12T22:47:44Z</time>
      </trkpt>
      <trkpt lat="48.22658" lon="7.30774">
        <ele>444</ele>
        <time>2019-04-12T22:48:44Z</time>
      </trkpt>
      <trkpt lat="48.22669" lon="7.30771">
        <ele>446</ele>
        <time>2019-04-12T22:49:44Z</time>
      </trkpt>
      <trkpt lat="48.22681" lon="7.30772">
        <ele>447</ele>
        <time>2019-04-12T22:50:44Z</time>
      </trkpt>
      <trkpt lat="48.22736" lon="7.30806">
        <ele>447</ele>
        <time>2019-04-12T22:51:44Z</time>
      </trkpt>
      <trkpt lat="48.22743" lon="7.30804">
        <ele>448</ele>
        <time>2019-04-12T22:52:44Z</time>
      </trkpt>
      <trkpt lat="48.22747" lon="7.308">
        <ele>449</ele>
        <time>2019-04-12T22:53:44Z</time>
      </trkpt>
      <trkpt lat="48.22751" lon="7.30793">
        <ele>450</ele>
        <time>2019-04-12T22:54:44Z</time>
      </trkpt>
      <trkpt lat="48.22753" lon="7.30776">
        <ele>452</ele>
        <time>2019-04-12T22:55:44Z</time>
      </trkpt>
      <trkpt lat="48.2277" lon="7.30728">
        <ele>457</ele>
        <time>2019-04-12T22:56:44Z</time>
      </trkpt>
      <trkpt lat="48.22819" lon="7.30658">
        <ele>463</ele>
        <time>2019-04-12T22:57:44Z</time>
      </trkpt>
      <trkpt lat="48.22845" lon="7.30588">
        <ele>471</ele>
        <time>2019-04-12T22:58:44Z</time>
      </trkpt>
      <trkpt lat="48.22848" lon="7.30566">
        <ele>473</ele>
        <time>2019-04-12T22:59:44Z</time>
      </trkpt>
      <trkpt lat="48.22844" lon="7.30546">
        <ele>474</ele>
        <time>2019-04-12T23:00:44Z</time>
      </trkpt>
      <trkpt lat="48.22886" lon="7.30502">
        <ele>475</ele>
        <time>2019-04-12T23:01:44Z</time>
      </trkpt>
      <trkpt lat="48.22899" lon="7.30486">
        <ele>475</ele>
        <time>2019-04-12T23:02:44Z</time>
      </trkpt>
      <trkpt lat="48.22935" lon="7.30428">
        <ele>474</ele>
        <time>2019-04-12T23:03:44Z</time>
      </trkpt>
      <trkpt lat="48.23032" lon="7.30255">
        <ele>481</ele>
        <time>2019-04-12T23:04:44Z</time>
      </trkpt>
      <trkpt lat="48.23037" lon="7.30255">
        <ele>480</ele>
        <time>2019-04-12T23:05:44Z</time>
      </trkpt>
      <trkpt lat="48.23057" lon="7.30225">
        <ele>479</ele>
        <time>2019-04-12T23:06:44Z</time>
      </trkpt>
      <trkpt lat="48.23071" lon="7.30208">
        <ele>477</ele>
        <time>2019-04-12T23:07:44Z</time>
      </trkpt>
      <trkpt lat="48.23083" lon="7.30201">
        <ele>476</ele>
        <time>2019-04-12T23:08:44Z</time>
      </trkpt>
      <trkpt lat="48.23092" lon="7.30201">
        <ele>475</ele>
        <time>2019-04-12T23:09:44Z</time>
      </trkpt>
      <trkpt lat="48.23133" lon="7.30218">
        <ele>472</ele>
        <time>2019-04-12T23:10:44Z</time>
      </trkpt>
      <trkpt lat="48.2315" lon="7.30216">
        <ele>472</ele>
        <time>2019-04-12T23:11:44Z</time>
      </trkpt>
      <trkpt lat="48.23159" lon="7.30222">
        <ele>471</ele>
        <time>2019-04-12T23:12:44Z</time>
      </trkpt>
      <trkpt lat="48.23176" lon="7.30268">
        <ele>470</ele>
        <time>2019-04-12T23:13:44Z</time>
      </trkpt>
      <trkpt lat="48.23183" lon="7.3029">
        <ele>470</ele>
        <time>2019-04-12T23:14:44Z</time>
      </trkpt>
      <trkpt lat="48.23199" lon="7.30365">
        <ele>470</ele>
        <time>2019-04-12T23:15:44Z</time>
      </trkpt>
      <trkpt lat="48.23205" lon="7.30472">
        <ele>466</ele>
        <time>2019-04-12T23:16:44Z</time>
      </trkpt>
      <trkpt lat="48.23212" lon="7.30522">
        <ele>465</ele>
        <time>2019-04-12T23:17:44Z</time>
      </trkpt>
      <trkpt lat="48.23222" lon="7.3056">
        <ele>466</ele>
        <time>2019-04-12T23:18:44Z</time>
      </trkpt>
      <trkpt lat="48.23244" lon="7.306">
        <ele>470</ele>
        <time>2019-04-12T23:19:44Z</time>
      </trkpt>
      <trkpt lat="48.23298" lon="7.30649">
        <ele>473</ele>
        <time>2019-04-12T23:20:44Z</time>
      </trkpt>
      <trkpt lat="48.23313" lon="7.30654">
        <ele>473</ele>
        <time>2019-04-12T23:21:44Z</time>
      </trkpt>
      <trkpt lat="48.23319" lon="7.3065">
        <ele>474</ele>
        <time>2019-04-12T23:22:44Z</time>
      </trkpt>
      <trkpt lat="48.23338" lon="7.30657">
        <ele>474</ele>
        <time>2019-04-12T23:23:44Z</time>
      </trkpt>
      <trkpt lat="48.23355" lon="7.3066">
        <ele>473</ele>
        <time>2019-04-12T23:24:44Z</time>
      </trkpt>
      <trkpt lat="48.23372" lon="7.30656">
        <ele>473</ele>
        <time>2019-04-12T23:25:44Z</time>
      </trkpt>
      <trkpt lat="48.23413" lon="7.30639">
        <ele>473</ele>
        <time>2019-04-12T23:26:44Z</time>
      </trkpt>
      <trkpt lat="48.23429" lon="7.30638">
        <ele>474</ele>
        <time>2019-04-12T23:27:44Z</time>
      </trkpt>
      <trkpt lat="48.23442" lon="7.30646">
        <ele>475</ele>
        <time>2019-04-12T23:28:44Z</time>
      </trkpt>
      <trkpt lat="48.23453" lon="7.30662">
        <ele>476</ele>
        <time>2019-04-12T23:29:44Z</time>
      </trkpt>
      <trkpt lat="48.23461" lon="7.30684">
        <ele>476</ele>
        <time>2019-04-12T23:30:44Z</time>
      </trkpt>
      <trkpt lat="48.23472" lon="7.3075">
        <ele>475</ele>
        <time>2019-04-12T23:31:44Z</time>
      </trkpt>
      <trkpt lat="48.23477" lon="7.30769">
        <ele>475</ele>
        <time>2019-04-12T23:32:44Z</time>
      </trkpt>
      <trkpt lat="48.23487" lon="7.30794">
        <ele>475</ele>
        <time>2019-04-12T23:33:44Z</time>
      </trkpt>
      <trkpt lat="48.23494" lon="7.30807">
        <ele>475</ele>
        <time>2019-04-12T23:34:44Z</time>
      </trkpt>
      <trkpt lat="48.23509" lon="7.30828">
        <ele>477</ele>
        <time>2019-04-12T23:35:44Z</time>
      </trkpt>
      <trkpt lat="48.2354" lon="7.30858">
        <ele>482</ele>
        <time>2019-04-12T23:36:44Z</time>
      </trkpt>
      <trkpt lat="48.23548" lon="7.30875">
        <ele>484</ele>
        <time>2019-04-12T23:37:44Z</time>
      </trkpt>
      <trkpt lat="48.23552" lon="7.30902">
        <ele>485</ele>
        <time>2019-04-12T23:38:44Z</time>
      </trkpt>
      <trkpt lat="48.23567" lon="7.31161">
        <ele>501</ele>
        <time>2019-04-12T23:39:44Z</time>
      </trkpt>
      <trkpt lat="48.23572" lon="7.31179">
        <ele>502</ele>
        <time>2019-04-12T23:40:44Z</time>
      </trkpt>
      <trkpt lat="48.236" lon="7.31237">
        <ele>510</ele>
        <time>2019-04-12T23:41:44Z</time>
      </trkpt>
      <trkpt lat="48.23604" lon="7.31251">
        <ele>512</ele>
        <time>2019-04-12T23:42:44Z</time>
      </trkpt>
      <trkpt lat="48.23567" lon="7.31443">
        <ele>520</ele>
        <time>2019-04-12T23:43:44Z</time>
      </trkpt>
      <trkpt lat="48.23563" lon="7.31459">
        <ele>521</ele>
        <time>2019-04-12T23:44:44Z</time>
      </trkpt>
      <trkpt lat="48.23551" lon="7.3149">
        <ele>522</ele>
        <time>2019-04-12T23:45:44Z</time>
      </trkpt>
      <trkpt lat="48.23531" lon="7.31513">
        <ele>521</ele>
        <time>2019-04-12T23:46:44Z</time>
      </trkpt>
      <trkpt lat="48.23523" lon="7.31526">
        <ele>520</ele>
        <time>2019-04-12T23:47:44Z</time>
      </trkpt>
      <trkpt lat="48.23515" lon="7.3155">
        <ele>520</ele>
        <time>2019-04-12T23:48:44Z</time>
      </trkpt>
      <trkpt lat="48.23515" lon="7.31564">
        <ele>520</ele>
        <time>2019-04-12T23:49:44Z</time>
      </trkpt>
      <trkpt lat="48.23516" lon="7.31582">
        <ele>521</ele>
        <time>2019-04-12T23:50:44Z</time>
      </trkpt>
      <trkpt lat="48.23524" lon="7.31607">
        <ele>521</ele>
        <time>2019-04-12T23:51:44Z</time>
      </trkpt>
      <trkpt lat="48.23533" lon="7.3162">
        <ele>521</ele>
        <time>2019-04-12T23:52:44Z</time>
      </trkpt>
      <trkpt lat="48.23541" lon="7.31628">
        <ele>522</ele>
        <time>2019-04-12T23:53:44Z</time>
      </trkpt>
      <trkpt lat="48.2356" lon="7.3164">
        <ele>524</ele>
        <time>2019-04-12T23:54:44Z</time>
      </trkpt>
      <trkpt lat="48.23583" lon="7.31652">
        <ele>526</ele>
        <time>2019-04-12T23:55:44Z</time>
      </trkpt>
      <trkpt lat="48.23606" lon="7.3167">
        <ele>529</ele>
        <time>2019-04-12T23:56:44Z</time>
      </trkpt>
      <trkpt lat="48.23627" lon="7.3168">
        <ele>532</ele>
        <time>2019-04-12T23:57:44Z</time>
      </trkpt>
      <trkpt lat="48.23645" lon="7.31684">
        <ele>534</ele>
        <time>2019-04-12T23:58:44Z</time>
      </trkpt>
      <trkpt lat="48.23673" lon="7.31678">
        <ele>538</ele>
        <time>2019-04-12T23:59:44Z</time>
      </trkpt>
      <trkpt lat="48.23704" lon="7.31657">
        <ele>542</ele>
        <time>2019-04-13T00:00:44Z</time>
      </trkpt>
      <trkpt lat="48.2376" lon="7.31626">
        <ele>552</ele>
        <time>2019-04-13T00:01:44Z</time>
      </trkpt>
      <trkpt lat="48.23802" lon="7.31595">
        <ele>555</ele>
        <time>2019-04-13T00:02:44Z</time>
      </trkpt>
      <trkpt lat="48.2381" lon="7.31592">
        <ele>555</ele>
        <time>2019-04-13T00:03:44Z</time>
      </trkpt>
      <trkpt lat="48.23817" lon="7.31598">
        <ele>554</ele>
        <time>2019-04-13T00:04:44Z</time>
      </trkpt>
      <trkpt lat="48.2382" lon="7.31609">
        <ele>554</ele>
        <time>2019-04-13T00:05:44Z</time>
      </trkpt>
      <trkpt lat="48.23818" lon="7.31625">
        <ele>553</ele>
        <time>2019-04-13T00:06:44Z</time>
      </trkpt>
      <trkpt lat="48.2381" lon="7.31643">
        <ele>552</ele>
        <time>2019-04-13T00:07:44Z</time>
      </trkpt>
      <trkpt lat="48.23797" lon="7.31683">
        <ele>551</ele>
        <time>2019-04-13T00:08:44Z</time>
      </trkpt>
      <trkpt lat="48.23796" lon="7.31701">
        <ele>552</ele>
        <time>2019-04-13T00:09:44Z</time>
      </trkpt>
      <trkpt lat="48.23788" lon="7.31751">
        <ele>555</ele>
        <time>2019-04-13T00:10:44Z</time>
      </trkpt>
      <trkpt lat="48.23781" lon="7.31782">
        <ele>554</ele>
        <time>2019-04-13T00:11:44Z</time>
      </trkpt>
      <trkpt lat="48.23756" lon="7.31818">
        <ele>552</ele>
        <time>2019-04-13T00:12:44Z</time>
      </trkpt>
      <trkpt lat="48.2375" lon="7.31833">
        <ele>551</ele>
        <time>2019-04-13T00:13:44Z</time>
      </trkpt>
      <trkpt lat="48.23751" lon="7.31851">
        <ele>549</ele>
        <time>2019-04-13T00:14:44Z</time>
      </trkpt>
      <trkpt lat="48.23759" lon="7.31866">
        <ele>548</ele>
        <time>2019-04-13T00:15:44Z</time>
      </trkpt>
      <trkpt lat="48.23773" lon="7.31873">
        <ele>549</ele>
        <time>2019-04-13T00:16:44Z</time>
      </trkpt>
      <trkpt lat="48.23789" lon="7.31872">
        <ele>551</ele>
        <time>2019-04-13T00:17:44Z</time>
      </trkpt>
      <trkpt lat="48.23832" lon="7.31863">
        <ele>557</ele>
        <time>2019-04-13T00:18:44Z</time>
      </trkpt>
      <trkpt lat="48.23886" lon="7.31858">
        <ele>564</ele>
        <time>2019-04-13T00:19:44Z</time>
      </trkpt>
      <trkpt lat="48.23905" lon="7.31863">
        <ele>566</ele>
        <time>2019-04-13T00:20:44Z</time>
      </trkpt>
      <trkpt lat="48.23917" lon="7.3187">
        <ele>567</ele>
        <time>2019-04-13T00:21:44Z</time>
      </trkpt>
      <trkpt lat="48.23943" lon="7.31903">
        <ele>572</ele>
        <time>2019-04-13T00:22:44Z</time>
      </trkpt>
      <trkpt lat="48.23954" lon="7.31925">
        <ele>574</ele>
        <time>2019-04-13T00:23:44Z</time>
      </trkpt>
      <trkpt lat="48.23956" lon="7.3194">
        <ele>573</ele>
        <time>2019-04-13T00:24:44Z</time>
      </trkpt>
      <trkpt lat="48.23951" lon="7.31958">
        <ele>571</ele>
        <time>2019-04-13T00:25:44Z</time>
      </trkpt>
      <trkpt lat="48.23938" lon="7.31983">
        <ele>567</ele>
        <time>2019-04-13T00:26:44Z</time>
      </trkpt>
      <trkpt lat="48.23921" lon="7.32062">
        <ele>564</ele>
        <time>2019-04-13T00:27:44Z</time>
      </trkpt>
      <trkpt lat="48.23919" lon="7.32084">
        <ele>564</ele>
        <time>2019-04-13T00:28:44Z</time>
      </trkpt>
      <trkpt lat="48.2392" lon="7.32128">
        <ele>567</ele>
        <time>2019-04-13T00:29:44Z</time>
      </trkpt>
      <trkpt lat="48.2393" lon="7.32213">
        <ele>576</ele>
        <time>2019-04-13T00:30:44Z</time>
      </trkpt>
      <trkpt lat="48.2393" lon="7.32264">
        <ele>579</ele>
        <time>2019-04-13T00:31:44Z</time>
      </trkpt>
      <trkpt lat="48.23924" lon="7.32329">
        <ele>577</ele>
        <time>2019-04-13T00:32:44Z</time>
      </trkpt>
      <trkpt lat="48.23929" lon="7.32365">
        <ele>581</ele>
        <time>2019-04-13T00:33:44Z</time>
      </trkpt>
      <trkpt lat="48.2394" lon="7.32413">
        <ele>585</ele>
        <time>2019-04-13T00:34:44Z</time>
      </trkpt>
      <trkpt lat="48.23955" lon="7.32433">
        <ele>586</ele>
        <time>2019-04-13T00:35:44Z</time>
      </trkpt>
      <trkpt lat="48.23967" lon="7.32442">
        <ele>586</ele>
        <time>2019-04-13T00:36:44Z</time>
      </trkpt>
      <trkpt lat="48.24023" lon="7.32457">
        <ele>588</ele>
        <time>2019-04-13T00:37:44Z</time>
      </trkpt>
      <trkpt lat="48.24034" lon="7.32461">
        <ele>588</ele>
        <time>2019-04-13T00:38:44Z</time>
      </trkpt>
      <trkpt lat="48.24049" lon="7.32471">
        <ele>587</ele>
        <time>2019-04-13T00:39:44Z</time>
      </trkpt>
      <trkpt lat="48.24095" lon="7.32508">
        <ele>584</ele>
        <time>2019-04-13T00:40:44Z</time>
      </trkpt>
      <trkpt lat="48.24131" lon="7.3253">
        <ele>584</ele>
        <time>2019-04-13T00:41:44Z</time>
      </trkpt>
      <trkpt lat="48.24287" lon="7.32586">
        <ele>589</ele>
        <time>2019-04-13T00:42:44Z</time>
      </trkpt>
      <trkpt lat="48.24325" lon="7.32603">
        <ele>588</ele>
        <time>2019-04-13T00:43:44Z</time>
      </trkpt>
      <trkpt lat="48.24364" lon="7.32625">
        <ele>583</ele>
        <time>2019-04-13T00:44:44Z</time>
      </trkpt>
      <trkpt lat="48.24387" lon="7.32649">
        <ele>581</ele>
        <time>2019-04-13T00:45:44Z</time>
      </trkpt>
      <trkpt lat="48.24395" lon="7.32661">
        <ele>581</ele>
        <time>2019-04-13T00:46:44Z</time>
      </trkpt>
      <trkpt lat="48.24411" lon="7.32695">
        <ele>580</ele>
        <time>2019-04-13T00:47:44Z</time>
      </trkpt>
      <trkpt lat="48.24417" lon="7.32717">
        <ele>580</ele>
        <time>2019-04-13T00:48:44Z</time>
      </trkpt>
      <trkpt lat="48.24427" lon="7.32805">
        <ele>575</ele>
        <time>2019-04-13T00:49:44Z</time>
      </trkpt>
      <trkpt lat="48.24441" lon="7.32843">
        <ele>574</ele>
        <time>2019-04-13T00:50:44Z</time>
      </trkpt>
      <trkpt lat="48.24485" lon="7.32941">
        <ele>570</ele>
        <time>2019-04-13T00:51:44Z</time>
      </trkpt>
      <trkpt lat="48.24496" lon="7.33">
        <ele>567</ele>
        <time>2019-04-13T00:52:44Z</time>
      </trkpt>
      <trkpt lat="48.24501" lon="7.33076">
        <ele>565</ele>
        <time>2019-04-13T00:53:44Z</time>
      </trkpt>
      <trkpt lat="48.24502" lon="7.33136">
        <ele>564</ele>
        <time>2019-04-13T00:54:44Z</time>
      </trkpt>
      <trkpt lat="48.24494" lon="7.33217">
        <ele>560</ele>
        <time>2019-04-13T00:55:44Z</time>
      </trkpt>
      <trkpt lat="48.24483" lon="7.33288">
        <ele>554</ele>
        <time>2019-04-13T00:56:44Z</time>
      </trkpt>
      <trkpt lat="48.2449" lon="7.33476">
        <ele>545</ele>
        <time>2019-04-13T00:57:44Z</time>
      </trkpt>
      <trkpt lat="48.24491" lon="7.3354">
        <ele>541</ele>
        <time>2019-04-13T00:58:44Z</time>
      </trkpt>
      <trkpt lat="48.24487" lon="7.33584">
        <ele>536</ele>
        <time>2019-04-13T00:59:44Z</time>
      </trkpt>
      <trkpt lat="48.24472" lon="7.33699">
        <ele>530</ele>
        <time>2019-04-13T01:00:44Z</time>
      </trkpt>
      <trkpt lat="48.24484" lon="7.3371">
        <ele>535</ele>
        <time>2019-04-13T01:01:44Z</time>
      </trkpt>
      <trkpt lat="48.2449" lon="7.33734">
        <ele>537</ele>
        <time>2019-04-13T01:02:44Z</time>
      </trkpt>
      <trkpt lat="48.24493" lon="7.33802">
        <ele>535</ele>
        <time>2019-04-13T01:03:44Z</time>
      </trkpt>
      <trkpt lat="48.24497" lon="7.33817">
        <ele>535</ele>
        <time>2019-04-13T01:04:44Z</time>
      </trkpt>
      <trkpt lat="48.24524" lon="7.33854">
        <ele>544</ele>
        <time>2019-04-13T01:05:44Z</time>
      </trkpt>
      <trkpt lat="48.24528" lon="7.33879">
        <ele>544</ele>
        <time>2019-04-13T01:06:44Z</time>
      </trkpt>
      <trkpt lat="48.24523" lon="7.33973">
        <ele>541</ele>
        <time>2019-04-13T01:07:44Z</time>
      </trkpt>
      <trkpt lat="48.24531" lon="7.34038">
        <ele>546</ele>
        <time>2019-04-13T01:08:44Z</time>
      </trkpt>
      <trkpt lat="48.24553" lon="7.34129">
        <ele>554</ele>
        <time>2019-04-13T01:09:44Z</time>
      </trkpt>
      <trkpt lat="48.24575" lon="7.34342">
        <ele>560</ele>
        <time>2019-04-13T01:10:44Z</time>
      </trkpt>
      <trkpt lat="48.24585" lon="7.34381">
        <ele>560</ele>
        <time>2019-04-13T01:11:44Z</time>
      </trkpt>
      <trkpt lat="48.24626" lon="7.34488">
        <ele>563</ele>
        <time>2019-04-13T01:12:44Z</time>
      </trkpt>
      <trkpt lat="48.24632" lon="7.34507">
        <ele>564</ele>
        <time>2019-04-13T01:13:44Z</time>
      </trkpt>
      <trkpt lat="48.24649" lon="7.34611">
        <ele>560</ele>
        <time>2019-04-13T01:14:44Z</time>
      </trkpt>
      <trkpt lat="48.24648" lon="7.34627">
        <ele>559</ele>
        <time>2019-04-13T01:15:44Z</time>
      </trkpt>
      <trkpt lat="48.24642" lon="7.34667">
        <ele>554</ele>
        <time>2019-04-13T01:16:44Z</time>
      </trkpt>
      <trkpt lat="48.24642" lon="7.3468">
        <ele>553</ele>
        <time>2019-04-13T01:17:44Z</time>
      </trkpt>
      <trkpt lat="48.24646" lon="7.3469">
        <ele>553</ele>
        <time>2019-04-13T01:18:44Z</time>
      </trkpt>
      <trkpt lat="48.24649" lon="7.34695">
        <ele>553</ele>
        <time>2019-04-13T01:19:44Z</time>
      </trkpt>
      <trkpt lat="48.24662" lon="7.347">
        <ele>557</ele>
        <time>2019-04-13T01:20:44Z</time>
      </trkpt>
      <trkpt lat="48.24676" lon="7.34701">
        <ele>561</ele>
        <time>2019-04-13T01:21:44Z</time>
      </trkpt>
      <trkpt lat="48.24671" lon="7.3466">
        <ele>563</ele>
        <time>2019-04-13T01:22:44Z</time>
      </trkpt>
      <trkpt lat="48.24669" lon="7.34568">
        <ele>572</ele>
        <time>2019-04-13T01:23:44Z</time>
      </trkpt>
      <trkpt lat="48.24662" lon="7.3446">
        <ele>579</ele>
        <time>2019-04-13T01:24:44Z</time>
      </trkpt>
      <trkpt lat="48.24661" lon="7.34402">
        <ele>584</ele>
        <time>2019-04-13T01:25:44Z</time>
      </trkpt>
      <trkpt lat="48.24662" lon="7.34323">
        <ele>590</ele>
        <time>2019-04-13T01:26:44Z</time>
      </trkpt>
      <trkpt lat="48.24656" lon="7.34216">
        <ele>592</ele>
        <time>2019-04-13T01:27:44Z</time>
      </trkpt>
      <trkpt lat="48.24662" lon="7.34104">
        <ele>598</ele>
        <time>2019-04-13T01:28:44Z</time>
      </trkpt>
      <trkpt lat="48.24667" lon="7.34055">
        <ele>600</ele>
        <time>2019-04-13T01:29:44Z</time>
      </trkpt>
      <trkpt lat="48.24669" lon="7.33971">
        <ele>601</ele>
        <time>2019-04-13T01:30:44Z</time>
      </trkpt>
      <trkpt lat="48.24677" lon="7.33873">
        <ele>610</ele>
        <time>2019-04-13T01:31:44Z</time>
      </trkpt>
      <trkpt lat="48.2468" lon="7.33762">
        <ele>618</ele>
        <time>2019-04-13T01:32:44Z</time>
      </trkpt>
      <trkpt lat="48.24677" lon="7.33664">
        <ele>620</ele>
        <time>2019-04-13T01:33:44Z</time>
      </trkpt>
      <trkpt lat="48.24682" lon="7.33578">
        <ele>622</ele>
        <time>2019-04-13T01:34:44Z</time>
      </trkpt>
      <trkpt lat="48.24682" lon="7.33506">
        <ele>621</ele>
        <time>2019-04-13T01:35:44Z</time>
      </trkpt>
      <trkpt lat="48.24686" lon="7.33452">
        <ele>625</ele>
        <time>2019-04-13T01:36:44Z</time>
      </trkpt>
      <trkpt lat="48.24696" lon="7.3339">
        <ele>629</ele>
        <time>2019-04-13T01:37:44Z</time>
      </trkpt>
      <trkpt lat="48.24702" lon="7.33369">
        <ele>629</ele>
        <time>2019-04-13T01:38:44Z</time>
      </trkpt>
      <trkpt lat="48.24711" lon="7.33351">
        <ele>630</ele>
        <time>2019-04-13T01:39:44Z</time>
      </trkpt>
      <trkpt lat="48.2472" lon="7.33342">
        <ele>631</ele>
        <time>2019-04-13T01:40:44Z</time>
      </trkpt>
      <trkpt lat="48.24727" lon="7.3334">
        <ele>633</ele>
        <time>2019-04-13T01:41:44Z</time>
      </trkpt>
      <trkpt lat="48.24735" lon="7.3334">
        <ele>634</ele>
        <time>2019-04-13T01:42:44Z</time>
      </trkpt>
      <trkpt lat="48.24759" lon="7.33355">
        <ele>639</ele>
        <time>2019-04-13T01:43:44Z</time>
      </trkpt>
      <trkpt lat="48.24841" lon="7.33442">
        <ele>652</ele>
        <time>2019-04-13T01:44:44Z</time>
      </trkpt>
      <trkpt lat="48.24851" lon="7.33459">
        <ele>652</ele>
        <time>2019-04-13T01:45:44Z</time>
      </trkpt>
      <trkpt lat="48.24853" lon="7.33476">
        <ele>654</ele>
        <time>2019-04-13T01:46:44Z</time>
      </trkpt>
      <trkpt lat="48.2485" lon="7.33485">
        <ele>655</ele>
        <time>2019-04-13T01:47:44Z</time>
      </trkpt>
      <trkpt lat="48.24841" lon="7.33491">
        <ele>657</ele>
        <time>2019-04-13T01:48:44Z</time>
      </trkpt>
      <trkpt lat="48.24802" lon="7.33486">
        <ele>654</ele>
        <time>2019-04-13T01:49:44Z</time>
      </trkpt>
      <trkpt lat="48.24788" lon="7.33488">
        <ele>653</ele>
        <time>2019-04-13T01:50:44Z</time>
      </trkpt>
      <trkpt lat="48.24779" lon="7.33492">
        <ele>652</ele>
        <time>2019-04-13T01:51:44Z</time>
      </trkpt>
      <trkpt lat="48.24771" lon="7.33499">
        <ele>651</ele>
        <time>2019-04-13T01:52:44Z</time>
      </trkpt>
      <trkpt lat="48.24765" lon="7.33508">
        <ele>651</ele>
        <time>2019-04-13T01:53:44Z</time>
      </trkpt>
      <trkpt lat="48.24762" lon="7.33523">
        <ele>652</ele>
        <time>2019-04-13T01:54:44Z</time>
      </trkpt>
      <trkpt lat="48.2476" lon="7.33559">
        <ele>654</ele>
        <time>2019-04-13T01:55:44Z</time>
      </trkpt>
      <trkpt lat="48.24764" lon="7.33647">
        <ele>660</ele>
        <time>2019-04-13T01:56:44Z</time>
      </trkpt>
      <trkpt lat="48.24771" lon="7.33715">
        <ele>665</ele>
        <time>2019-04-13T01:57:44Z</time>
      </trkpt>
      <trkpt lat="48.2481" lon="7.33973">
        <ele>680</ele>
        <time>2019-04-13T01:58:44Z</time>
      </trkpt>
      <trkpt lat="48.24825" lon="7.34064">
        <ele>685</ele>
        <time>2019-04-13T01:59:44Z</time>
      </trkpt>
      <trkpt lat="48.24834" lon="7.34149">
        <ele>690</ele>
        <time>2019-04-13T02:00:44Z</time>
      </trkpt>
      <trkpt lat="48.24844" lon="7.3421">
        <ele>694</ele>
        <time>2019-04-13T02:01:44Z</time>
      </trkpt>
      <trkpt lat="48.24863" lon="7.34343">
        <ele>694</ele>
        <time>2019-04-13T02:02:44Z</time>
      </trkpt>
      <trkpt lat="48.24874" lon="7.34402">
        <ele>696</ele>
        <time>2019-04-13T02:03:44Z</time>
      </trkpt>
      <trkpt lat="48.24907" lon="7.34545">
        <ele>698</ele>
        <time>2019-04-13T02:04:44Z</time>
      </trkpt>
      <trkpt lat="48.24924" lon="7.346">
        <ele>694</ele>
        <time>2019-04-13T02:05:44Z</time>
      </trkpt>
      <trkpt lat="48.24939" lon="7.3463">
        <ele>689</ele>
        <time>2019-04-13T02:06:44Z</time>
      </trkpt>
      <trkpt lat="48.24944" lon="7.34633">
        <ele>689</ele>
        <time>2019-04-13T02:07:44Z</time>
      </trkpt>
      <trkpt lat="48.24953" lon="7.34632">
        <ele>690</ele>
        <time>2019-04-13T02:08:44Z</time>
      </trkpt>
      <trkpt lat="48.24943" lon="7.34614">
        <ele>693</ele>
        <time>2019-04-13T02:09:44Z</time>
      </trkpt>
      <trkpt lat="48.24953" lon="7.34632">
        <ele>690</ele>
        <time>2019-04-13T02:10:44Z</time>
      </trkpt>
      <trkpt lat="48.24955" lon="7.34631">
        <ele>690</ele>
        <time>2019-04-13T02:11:44Z</time>
      </trkpt>
      <trkpt lat="48.24969" lon="7.34618">
        <ele>694</ele>
        <time>2019-04-13T02:12:44Z</time>
      </trkpt>
      <trkpt lat="48.24976" lon="7.34606">
        <ele>697</ele>
        <time>2019-04-13T02:13:44Z</time>
      </trkpt>
      <trkpt lat="48.24986" lon="7.3458">
        <ele>702</ele>
        <time>2019-04-13T02:14:44Z</time>
      </trkpt>
      <trkpt lat="48.24996" lon="7.34524">
        <ele>709</ele>
        <time>2019-04-13T02:15:44Z</time>
      </trkpt>
      <trkpt lat="48.25002" lon="7.34477">
        <ele>711</ele>
        <time>2019-04-13T02:16:44Z</time>
      </trkpt>
      <trkpt lat="48.25008" lon="7.34366">
        <ele>711</ele>
        <time>2019-04-13T02:17:44Z</time>
      </trkpt>
      <trkpt lat="48.25008" lon="7.34215">
        <ele>710</ele>
        <time>2019-04-13T02:18:44Z</time>
      </trkpt>
      <trkpt lat="48.25024" lon="7.33904">
        <ele>687</ele>
        <time>2019-04-13T02:19:44Z</time>
      </trkpt>
      <trkpt lat="48.25021" lon="7.3382">
        <ele>678</ele>
        <time>2019-04-13T02:20:44Z</time>
      </trkpt>
      <trkpt lat="48.25015" lon="7.33758">
        <ele>672</ele>
        <time>2019-04-13T02:21:44Z</time>
      </trkpt>
      <trkpt lat="48.24998" lon="7.33701">
        <ele>669</ele>
        <time>2019-04-13T02:22:44Z</time>
      </trkpt>
      <trkpt lat="48.24947" lon="7.33617">
        <ele>666</ele>
        <time>2019-04-13T02:23:44Z</time>
      </trkpt>
      <trkpt lat="48.24887" lon="7.33531">
        <ele>660</ele>
        <time>2019-04-13T02:24:44Z</time>
      </trkpt>
      <trkpt lat="48.2485" lon="7.33455">
        <ele>652</ele>
        <time>2019-04-13T02:25:44Z</time>
      </trkpt>
      <trkpt lat="48.24841" lon="7.33442">
        <ele>652</ele>
        <time>2019-04-13T02:26:44Z</time>
      </trkpt>
      <trkpt lat="48.24759" lon="7.33355">
        <ele>639</ele>
        <time>2019-04-13T02:27:44Z</time>
      </trkpt>
      <trkpt lat="48.24735" lon="7.3334">
        <ele>634</ele>
        <time>2019-04-13T02:28:44Z</time>
      </trkpt>
      <trkpt lat="48.24727" lon="7.3334">
        <ele>633</ele>
        <time>2019-04-13T02:29:44Z</time>
      </trkpt>
      <trkpt lat="48.2472" lon="7.33342">
        <ele>631</ele>
        <time>2019-04-13T02:30:44Z</time>
      </trkpt>
      <trkpt lat="48.24707" lon="7.33357">
        <ele>630</ele>
        <time>2019-04-13T02:31:44Z</time>
      </trkpt>
      <trkpt lat="48.24702" lon="7.33369">
        <ele>629</ele>
        <time>2019-04-13T02:32:44Z</time>
      </trkpt>
      <trkpt lat="48.24696" lon="7.3339">
        <ele>629</ele>
        <time>2019-04-13T02:33:44Z</time>
      </trkpt>
      <trkpt lat="48.24686" lon="7.33452">
        <ele>625</ele>
        <time>2019-04-13T02:34:44Z</time>
      </trkpt>
      <trkpt lat="48.24682" lon="7.33506">
        <ele>621</ele>
        <time>2019-04-13T02:35:44Z</time>
      </trkpt>
      <trkpt lat="48.24682" lon="7.33578">
        <ele>622</ele>
        <time>2019-04-13T02:36:44Z</time>
      </trkpt>
      <trkpt lat="48.24677" lon="7.33664">
        <ele>620</ele>
        <time>2019-04-13T02:37:44Z</time>
      </trkpt>
      <trkpt lat="48.2468" lon="7.33762">
        <ele>618</ele>
        <time>2019-04-13T02:38:44Z</time>
      </trkpt>
      <trkpt lat="48.24677" lon="7.33873">
        <ele>610</ele>
        <time>2019-04-13T02:39:44Z</time>
      </trkpt>
      <trkpt lat="48.24669" lon="7.33971">
        <ele>601</ele>
        <time>2019-04-13T02:40:44Z</time>
      </trkpt>
      <trkpt lat="48.24667" lon="7.34055">
        <ele>600</ele>
        <time>2019-04-13T02:41:44Z</time>
      </trkpt>
      <trkpt lat="48.24662" lon="7.34104">
        <ele>598</ele>
        <time>2019-04-13T02:42:44Z</time>
      </trkpt>
      <trkpt lat="48.24656" lon="7.34216">
        <ele>592</ele>
        <time>2019-04-13T02:43:44Z</time>
      </trkpt>
      <trkpt lat="48.24662" lon="7.34323">
        <ele>590</ele>
        <time>2019-04-13T02:44:44Z</time>
      </trkpt>
      <trkpt lat="48.24661" lon="7.34402">
        <ele>584</ele>
        <time>2019-04-13T02:45:44Z</time>
      </trkpt>
      <trkpt lat="48.24662" lon="7.3446">
        <ele>579</ele>
        <time>2019-04-13T02:46:44Z</time>
      </trkpt>
      <trkpt lat="48.24669" lon="7.34568">
        <ele>572</ele>
        <time>2019-04-13T02:47:44Z</time>
      </trkpt>
      <trkpt lat="48.24671" lon="7.3466">
        <ele>563</ele>
        <time>2019-04-13T02:48:44Z</time>
      </trkpt>
      <trkpt lat="48.24676" lon="7.34701">
        <ele>561</ele>
        <time>2019-04-13T02:49:44Z</time>
      </trkpt>
      <trkpt lat="48.24662" lon="7.347">
        <ele>557</ele>
        <time>2019-04-13T02:50:44Z</time>
      </trkpt>
      <trkpt lat="48.24649" lon="7.34695">
        <ele>553</ele>
        <time>2019-04-13T02:51:44Z</time>
      </trkpt>
      <trkpt lat="48.24646" lon="7.3469">
        <ele>553</ele>
        <time>2019-04-13T02:52:44Z</time>
      </trkpt>
      <trkpt lat="48.24642" lon="7.3468">
        <ele>553</ele>
        <time>2019-04-13T02:53:44Z</time>
      </trkpt>
      <trkpt lat="48.24642" lon="7.34667">
        <ele>554</ele>
        <time>2019-04-13T02:54:44Z</time>
      </trkpt>
      <trkpt lat="48.24648" lon="7.34627">
        <ele>559</ele>
        <time>2019-04-13T02:55:44Z</time>
      </trkpt>
      <trkpt lat="48.24649" lon="7.34611">
        <ele>560</ele>
        <time>2019-04-13T02:56:44Z</time>
      </trkpt>
      <trkpt lat="48.24632" lon="7.34507">
        <ele>564</ele>
        <time>2019-04-13T02:57:44Z</time>
      </trkpt>
      <trkpt lat="48.24626" lon="7.34488">
        <ele>563</ele>
        <time>2019-04-13T02:58:44Z</time>
      </trkpt>
      <trkpt lat="48.24585" lon="7.34381">
        <ele>560</ele>
        <time>2019-04-13T02:59:44Z</time>
      </trkpt>
      <trkpt lat="48.24575" lon="7.34342">
        <ele>560</ele>
        <time>2019-04-13T03:00:44Z</time>
      </trkpt>
      <trkpt lat="48.24553" lon="7.34129">
        <ele>554</ele>
        <time>2019-04-13T03:01:44Z</time>
      </trkpt>
      <trkpt lat="48.24531" lon="7.34038">
        <ele>546</ele>
        <time>2019-04-13T03:02:44Z</time>
      </trkpt>
      <trkpt lat="48.24523" lon="7.33973">
        <ele>541</ele>
        <time>2019-04-13T03:03:44Z</time>
      </trkpt>
      <trkpt lat="48.24528" lon="7.33879">
        <ele>544</ele>
        <time>2019-04-13T03:04:44Z</time>
      </trkpt>
      <trkpt lat="48.24524" lon="7.33854">
        <ele>544</ele>
        <time>2019-04-13T03:05:44Z</time>
      </trkpt>
      <trkpt lat="48.24497" lon="7.33817">
        <ele>535</ele>
        <time>2019-04-13T03:06:44Z</time>
      </trkpt>
      <trkpt lat="48.24493" lon="7.33802">
        <ele>535</ele>
        <time>2019-04-13T03:07:44Z</time>
      </trkpt>
      <trkpt lat="48.2449" lon="7.33734">
        <ele>537</ele>
        <time>2019-04-13T03:08:44Z</time>
      </trkpt>
      <trkpt lat="48.24484" lon="7.3371">
        <ele>535</ele>
        <time>2019-04-13T03:09:44Z</time>
      </trkpt>
      <trkpt lat="48.24472" lon="7.33699">
        <ele>530</ele>
        <time>2019-04-13T03:10:44Z</time>
      </trkpt>
      <trkpt lat="48.24487" lon="7.33584">
        <ele>536</ele>
        <time>2019-04-13T03:11:44Z</time>
      </trkpt>
      <trkpt lat="48.24491" lon="7.3354">
        <ele>541</ele>
        <time>2019-04-13T03:12:44Z</time>
      </trkpt>
      <trkpt lat="48.2449" lon="7.33476">
        <ele>545</ele>
        <time>2019-04-13T03:13:44Z</time>
      </trkpt>
      <trkpt lat="48.24483" lon="7.33288">
        <ele>554</ele>
        <time>2019-04-13T03:14:44Z</time>
      </trkpt>
      <trkpt lat="48.24494" lon="7.33217">
        <ele>560</ele>
        <time>2019-04-13T03:15:44Z</time>
      </trkpt>
      <trkpt lat="48.24502" lon="7.33136">
        <ele>564</ele>
        <time>2019-04-13T03:16:44Z</time>
      </trkpt>
      <trkpt lat="48.24501" lon="7.33076">
        <ele>565</ele>
        <time>2019-04-13T03:17:44Z</time>
      </trkpt>
      <trkpt lat="48.24496" lon="7.33">
        <ele>567</ele>
        <time>2019-04-13T03:18:44Z</time>
      </trkpt>
      <trkpt lat="48.24485" lon="7.32941">
        <ele>570</ele>
        <time>2019-04-13T03:19:44Z</time>
      </trkpt>
      <trkpt lat="48.24441" lon="7.32843">
        <ele>574</ele>
        <time>2019-04-13T03:20:44Z</time>
      </trkpt>
      <trkpt lat="48.24427" lon="7.32805">
        <ele>575</ele>
        <time>2019-04-13T03:21:44Z</time>
      </trkpt>
      <trkpt lat="48.24417" lon="7.32717">
        <ele>580</ele>
        <time>2019-04-13T03:22:44Z</time>
      </trkpt>
      <trkpt lat="48.24411" lon="7.32695">
        <ele>580</ele>
        <time>2019-04-13T03:23:44Z</time>
      </trkpt>
      <trkpt lat="48.24395" lon="7.32661">
        <ele>581</ele>
        <time>2019-04-13T03:24:44Z</time>
      </trkpt>
      <trkpt lat="48.24403" lon="7.32647">
        <ele>581</ele>
        <time>2019-04-13T03:25:44Z</time>
      </trkpt>
      <trkpt lat="48.24405" lon="7.32624">
        <ele>581</ele>
        <time>2019-04-13T03:26:44Z</time>
      </trkpt>
      <trkpt lat="48.24401" lon="7.32403">
        <ele>595</ele>
        <time>2019-04-13T03:27:44Z</time>
      </trkpt>
      <trkpt lat="48.24402" lon="7.32388">
        <ele>596</ele>
        <time>2019-04-13T03:28:44Z</time>
      </trkpt>
      <trkpt lat="48.24408" lon="7.32369">
        <ele>596</ele>
        <time>2019-04-13T03:29:44Z</time>
      </trkpt>
      <trkpt lat="48.24416" lon="7.3236">
        <ele>594</ele>
        <time>2019-04-13T03:30:44Z</time>
      </trkpt>
      <trkpt lat="48.2444" lon="7.32359">
        <ele>589</ele>
        <time>2019-04-13T03:31:44Z</time>
      </trkpt>
      <trkpt lat="48.24489" lon="7.32374">
        <ele>575</ele>
        <time>2019-04-13T03:32:44Z</time>
      </trkpt>
      <trkpt lat="48.24498" lon="7.32374">
        <ele>573</ele>
        <time>2019-04-13T03:33:44Z</time>
      </trkpt>
      <trkpt lat="48.24509" lon="7.32372">
        <ele>570</ele>
        <time>2019-04-13T03:34:44Z</time>
      </trkpt>
      <trkpt lat="48.24516" lon="7.32363">
        <ele>570</ele>
        <time>2019-04-13T03:35:44Z</time>
      </trkpt>
      <trkpt lat="48.24523" lon="7.32349">
        <ele>571</ele>
        <time>2019-04-13T03:36:44Z</time>
      </trkpt>
      <trkpt lat="48.24529" lon="7.32327">
        <ele>572</ele>
        <time>2019-04-13T03:37:44Z</time>
      </trkpt>
      <trkpt lat="48.24536" lon="7.3229">
        <ele>571</ele>
        <time>2019-04-13T03:38:44Z</time>
      </trkpt>
      <trkpt lat="48.24544" lon="7.32218">
        <ele>573</ele>
        <time>2019-04-13T03:39:44Z</time>
      </trkpt>
      <trkpt lat="48.24548" lon="7.32202">
        <ele>574</ele>
        <time>2019-04-13T03:40:44Z</time>
      </trkpt>
      <trkpt lat="48.24555" lon="7.32191">
        <ele>573</ele>
        <time>2019-04-13T03:41:44Z</time>
      </trkpt>
      <trkpt lat="48.24564" lon="7.32183">
        <ele>571</ele>
        <time>2019-04-13T03:42:44Z</time>
      </trkpt>
      <trkpt lat="48.24579" lon="7.32179">
        <ele>568</ele>
        <time>2019-04-13T03:43:44Z</time>
      </trkpt>
      <trkpt lat="48.24606" lon="7.32179">
        <ele>561</ele>
        <time>2019-04-13T03:44:44Z</time>
      </trkpt>
      <trkpt lat="48.24615" lon="7.32176">
        <ele>560</ele>
        <time>2019-04-13T03:45:44Z</time>
      </trkpt>
      <trkpt lat="48.24625" lon="7.32169">
        <ele>559</ele>
        <time>2019-04-13T03:46:44Z</time>
      </trkpt>
      <trkpt lat="48.24664" lon="7.3212">
        <ele>559</ele>
        <time>2019-04-13T03:47:44Z</time>
      </trkpt>
      <trkpt lat="48.24718" lon="7.32038">
        <ele>556</ele>
        <time>2019-04-13T03:48:44Z</time>
      </trkpt>
      <trkpt lat="48.24751" lon="7.31985">
        <ele>550</ele>
        <time>2019-04-13T03:49:44Z</time>
      </trkpt>
      <trkpt lat="48.24757" lon="7.31969">
        <ele>549</ele>
        <time>2019-04-13T03:50:44Z</time>
      </trkpt>
      <trkpt lat="48.24761" lon="7.31953">
        <ele>548</ele>
        <time>2019-04-13T03:51:44Z</time>
      </trkpt>
      <trkpt lat="48.24762" lon="7.3194">
        <ele>548</ele>
        <time>2019-04-13T03:52:44Z</time>
      </trkpt>
      <trkpt lat="48.24761" lon="7.31918">
        <ele>548</ele>
        <time>2019-04-13T03:53:44Z</time>
      </trkpt>
      <trkpt lat="48.24756" lon="7.31904">
        <ele>548</ele>
        <time>2019-04-13T03:54:44Z</time>
      </trkpt>
      <trkpt lat="48.24713" lon="7.31855">
        <ele>556</ele>
        <time>2019-04-13T03:55:44Z</time>
      </trkpt>
      <trkpt lat="48.24709" lon="7.31839">
        <ele>557</ele>
        <time>2019-04-13T03:56:44Z</time>
      </trkpt>
      <trkpt lat="48.24707" lon="7.31826">
        <ele>558</ele>
        <time>2019-04-13T03:57:44Z</time>
      </trkpt>
      <trkpt lat="48.2471" lon="7.31811">
        <ele>558</ele>
        <time>2019-04-13T03:58:44Z</time>
      </trkpt>
      <trkpt lat="48.24719" lon="7.31795">
        <ele>558</ele>
        <time>2019-04-13T03:59:44Z</time>
      </trkpt>
      <trkpt lat="48.24779" lon="7.31744">
        <ele>549</ele>
        <time>2019-04-13T04:00:44Z</time>
      </trkpt>
      <trkpt lat="48.24863" lon="7.31667">
        <ele>545</ele>
        <time>2019-04-13T04:01:44Z</time>
      </trkpt>
      <trkpt lat="48.24939" lon="7.31564">
        <ele>537</ele>
        <time>2019-04-13T04:02:44Z</time>
      </trkpt>
      <trkpt lat="48.24992" lon="7.31477">
        <ele>530</ele>
        <time>2019-04-13T04:03:44Z</time>
      </trkpt>
      <trkpt lat="48.25012" lon="7.31451">
        <ele>527</ele>
        <time>2019-04-13T04:04:44Z</time>
      </trkpt>
      <trkpt lat="48.25055" lon="7.3141">
        <ele>519</ele>
        <time>2019-04-13T04:05:44Z</time>
      </trkpt>
      <trkpt lat="48.25066" lon="7.31396">
        <ele>517</ele>
        <time>2019-04-13T04:06:44Z</time>
      </trkpt>
      <trkpt lat="48.25071" lon="7.31382">
        <ele>517</ele>
        <time>2019-04-13T04:07:44Z</time>
      </trkpt>
      <trkpt lat="48.2508" lon="7.31345">
        <ele>519</ele>
        <time>2019-04-13T04:08:44Z</time>
      </trkpt>
      <trkpt lat="48.25114" lon="7.31048">
        <ele>508</ele>
        <time>2019-04-13T04:09:44Z</time>
      </trkpt>
      <trkpt lat="48.25118" lon="7.30989">
        <ele>504</ele>
        <time>2019-04-13T04:10:44Z</time>
      </trkpt>
      <trkpt lat="48.25118" lon="7.3096">
        <ele>500</ele>
        <time>2019-04-13T04:11:44Z</time>
      </trkpt>
      <trkpt lat="48.25114" lon="7.30923">
        <ele>499</ele>
        <time>2019-04-13T04:12:44Z</time>
      </trkpt>
      <trkpt lat="48.25085" lon="7.30811">
        <ele>502</ele>
        <time>2019-04-13T04:13:44Z</time>
      </trkpt>
      <trkpt lat="48.25078" lon="7.30775">
        <ele>503</ele>
        <time>2019-04-13T04:14:44Z</time>
      </trkpt>
      <trkpt lat="48.25077" lon="7.30754">
        <ele>502</ele>
        <time>2019-04-13T04:15:44Z</time>
      </trkpt>
      <trkpt lat="48.2508" lon="7.30725">
        <ele>501</ele>
        <time>2019-04-13T04:16:44Z</time>
      </trkpt>
      <trkpt lat="48.25105" lon="7.30647">
        <ele>499</ele>
        <time>2019-04-13T04:17:44Z</time>
      </trkpt>
      <trkpt lat="48.25123" lon="7.30612">
        <ele>499</ele>
        <time>2019-04-13T04:18:44Z</time>
      </trkpt>
      <trkpt lat="48.25168" lon="7.30539">
        <ele>494</ele>
        <time>2019-04-13T04:19:44Z</time>
      </trkpt>
      <trkpt lat="48.25218" lon="7.30446">
        <ele>495</ele>
        <time>2019-04-13T04:20:44Z</time>
      </trkpt>
      <trkpt lat="48.2526" lon="7.30344">
        <ele>484</ele>
        <time>2019-04-13T04:21:44Z</time>
      </trkpt>
      <trkpt lat="48.25286" lon="7.30301">
        <ele>481</ele>
        <time>2019-04-13T04:22:44Z</time>
      </trkpt>
      <trkpt lat="48.25309" lon="7.30273">
        <ele>478</ele>
        <time>2019-04-13T04:23:44Z</time>
      </trkpt>
      <trkpt lat="48.2533" lon="7.30259">
        <ele>477</ele>
        <time>2019-04-13T04:24:44Z</time>
      </trkpt>
      <trkpt lat="48.25403" lon="7.30238">
        <ele>471</ele>
        <time>2019-04-13T04:25:44Z</time>
      </trkpt>
      <trkpt lat="48.25447" lon="7.30231">
        <ele>470</ele>
        <time>2019-04-13T04:26:44Z</time>
      </trkpt>
      <trkpt lat="48.25501" lon="7.30227">
        <ele>471</ele>
        <time>2019-04-13T04:27:44Z</time>
      </trkpt>
      <trkpt lat="48.25517" lon="7.30223">
        <ele>472</ele>
        <time>2019-04-13T04:28:44Z</time>
      </trkpt>
      <trkpt lat="48.25588" lon="7.30176">
        <ele>465</ele>
        <time>2019-04-13T04:29:44Z</time>
      </trkpt>
      <trkpt lat="48.25642" lon="7.30133">
        <ele>457</ele>
        <time>2019-04-13T04:30:44Z</time>
      </trkpt>
      <trkpt lat="48.25681" lon="7.30111">
        <ele>451</ele>
        <time>2019-04-13T04:31:44Z</time>
      </trkpt>
      <trkpt lat="48.25728" lon="7.30091">
        <ele>443</ele>
        <time>2019-04-13T04:32:44Z</time>
      </trkpt>
      <trkpt lat="48.25814" lon="7.30076">
        <ele>437</ele>
        <time>2019-04-13T04:33:44Z</time>
      </trkpt>
      <trkpt lat="48.25874" lon="7.30084">
        <ele>443</ele>
        <time>2019-04-13T04:34:44Z</time>
      </trkpt>
      <trkpt lat="48.25883" lon="7.30081">
        <ele>442</ele>
        <time>2019-04-13T04:35:44Z</time>
      </trkpt>
      <trkpt lat="48.25895" lon="7.30073">
        <ele>441</ele>
        <time>2019-04-13T04:36:44Z</time>
      </trkpt>
      <trkpt lat="48.25904" lon="7.30058">
        <ele>437</ele>
        <time>2019-04-13T04:37:44Z</time>
      </trkpt>
      <trkpt lat="48.25918" lon="7.30018">
        <ele>427</ele>
        <time>2019-04-13T04:38:44Z</time>
      </trkpt>
      <trkpt lat="48.2594" lon="7.29962">
        <ele>416</ele>
        <time>2019-04-13T04:39:44Z</time>
      </trkpt>
      <trkpt lat="48.25953" lon="7.29945">
        <ele>413</ele>
        <time>2019-04-13T04:40:44Z</time>
      </trkpt>
      <trkpt lat="48.25966" lon="7.29938">
        <ele>414</ele>
        <time>2019-04-13T04:41:44Z</time>
      </trkpt>
      <trkpt lat="48.25999" lon="7.29935">
        <ele>420</ele>
        <time>2019-04-13T04:42:44Z</time>
      </trkpt>
      <trkpt lat="48.2614" lon="7.29894">
        <ele>410</ele>
        <time>2019-04-13T04:43:44Z</time>
      </trkpt>
      <trkpt lat="48.26168" lon="7.29895">
        <ele>410</ele>
        <time>2019-04-13T04:44:44Z</time>
      </trkpt>
      <trkpt lat="48.26234" lon="7.29906">
        <ele>404</ele>
        <time>2019-04-13T04:45:44Z</time>
      </trkpt>
      <trkpt lat="48.2626" lon="7.29907">
        <ele>400</ele>
        <time>2019-04-13T04:46:44Z</time>
      </trkpt>
      <trkpt lat="48.26289" lon="7.29918">
        <ele>394</ele>
        <time>2019-04-13T04:47:44Z</time>
      </trkpt>
      <trkpt lat="48.26302" lon="7.2992">
        <ele>391</ele>
        <time>2019-04-13T04:48:44Z</time>
      </trkpt>
      <trkpt lat="48.26313" lon="7.29919">
        <ele>389</ele>
        <time>2019-04-13T04:49:44Z</time>
      </trkpt>
      <trkpt lat="48.26324" lon="7.29914">
        <ele>387</ele>
        <time>2019-04-13T04:50:44Z</time>
      </trkpt>
      <trkpt lat="48.26329" lon="7.29905">
        <ele>387</ele>
        <time>2019-04-13T04:51:44Z</time>
      </trkpt>
      <trkpt lat="48.26336" lon="7.29884">
        <ele>386</ele>
        <time>2019-04-13T04:52:44Z</time>
      </trkpt>
      <trkpt lat="48.26336" lon="7.29865">
        <ele>387</ele>
        <time>2019-04-13T04:53:44Z</time>
      </trkpt>
      <trkpt lat="48.26333" lon="7.29846">
        <ele>389</ele>
        <time>2019-04-13T04:54:44Z</time>
      </trkpt>
      <trkpt lat="48.26325" lon="7.29832">
        <ele>390</ele>
        <time>2019-04-13T04:55:44Z</time>
      </trkpt>
      <trkpt lat="48.26311" lon="7.29823">
        <ele>390</ele>
        <time>2019-04-13T04:56:44Z</time>
      </trkpt>
      <trkpt lat="48.26289" lon="7.29826">
        <ele>391</ele>
        <time>2019-04-13T04:57:44Z</time>
      </trkpt>
      <trkpt lat="48.26279" lon="7.29833">
        <ele>393</ele>
        <time>2019-04-13T04:58:44Z</time>
      </trkpt>
      <trkpt lat="48.26252" lon="7.29844">
        <ele>395</ele>
        <time>2019-04-13T04:59:44Z</time>
      </trkpt>
      <trkpt lat="48.26229" lon="7.29848">
        <ele>396</ele>
        <time>2019-04-13T05:00:44Z</time>
      </trkpt>
      <trkpt lat="48.262" lon="7.29845">
        <ele>396</ele>
        <time>2019-04-13T05:01:44Z</time>
      </trkpt>
      <trkpt lat="48.26172" lon="7.29838">
        <ele>394</ele>
        <time>2019-04-13T05:02:44Z</time>
      </trkpt>
      <trkpt lat="48.26121" lon="7.29833">
        <ele>390</ele>
        <time>2019-04-13T05:03:44Z</time>
      </trkpt>
      <trkpt lat="48.26008" lon="7.29839">
        <ele>385</ele>
        <time>2019-04-13T05:04:44Z</time>
      </trkpt>
      <trkpt lat="48.25935" lon="7.29858">
        <ele>377</ele>
        <time>2019-04-13T05:05:44Z</time>
      </trkpt>
      <trkpt lat="48.25894" lon="7.2989">
        <ele>383</ele>
        <time>2019-04-13T05:06:44Z</time>
      </trkpt>
      <trkpt lat="48.25852" lon="7.29915">
        <ele>385</ele>
        <time>2019-04-13T05:07:44Z</time>
      </trkpt>
      <trkpt lat="48.25823" lon="7.29926">
        <ele>386</ele>
        <time>2019-04-13T05:08:44Z</time>
      </trkpt>
      <trkpt lat="48.25792" lon="7.29931">
        <ele>388</ele>
        <time>2019-04-13T05:09:44Z</time>
      </trkpt>
      <trkpt lat="48.25756" lon="7.29923">
        <ele>386</ele>
        <time>2019-04-13T05:10:44Z</time>
      </trkpt>
      <trkpt lat="48.25745" lon="7.29902">
        <ele>384</ele>
        <time>2019-04-13T05:11:44Z</time>
      </trkpt>
      <trkpt lat="48.25745" lon="7.29882">
        <ele>384</ele>
        <time>2019-04-13T05:12:44Z</time>
      </trkpt>
      <trkpt lat="48.25753" lon="7.29862">
        <ele>383</ele>
        <time>2019-04-13T05:13:44Z</time>
      </trkpt>
      <trkpt lat="48.25796" lon="7.29822">
        <ele>374</ele>
        <time>2019-04-13T05:14:44Z</time>
      </trkpt>
      <trkpt lat="48.25846" lon="7.29753">
        <ele>372</ele>
        <time>2019-04-13T05:15:44Z</time>
      </trkpt>
      <trkpt lat="48.2588" lon="7.2972">
        <ele>371</ele>
        <time>2019-04-13T05:16:44Z</time>
      </trkpt>
      <trkpt lat="48.25922" lon="7.29695">
        <ele>366</ele>
        <time>2019-04-13T05:17:44Z</time>
      </trkpt>
      <trkpt lat="48.25949" lon="7.29684">
        <ele>365</ele>
        <time>2019-04-13T05:18:44Z</time>
      </trkpt>
      <trkpt lat="48.26045" lon="7.29661">
        <ele>354</ele>
        <time>2019-04-13T05:19:44Z</time>
      </trkpt>
      <trkpt lat="48.26066" lon="7.29658">
        <ele>351</ele>
        <time>2019-04-13T05:20:44Z</time>
      </trkpt>
      <trkpt lat="48.26088" lon="7.29661">
        <ele>348</ele>
        <time>2019-04-13T05:21:44Z</time>
      </trkpt>
      <trkpt lat="48.26142" lon="7.29676">
        <ele>344</ele>
        <time>2019-04-13T05:22:44Z</time>
      </trkpt>
      <trkpt lat="48.26167" lon="7.29675">
        <ele>342</ele>
        <time>2019-04-13T05:23:44Z</time>
      </trkpt>
      <trkpt lat="48.26217" lon="7.29653">
        <ele>339</ele>
        <time>2019-04-13T05:24:44Z</time>
      </trkpt>
      <trkpt lat="48.26293" lon="7.29614">
        <ele>333</ele>
        <time>2019-04-13T05:25:44Z</time>
      </trkpt>
      <trkpt lat="48.26397" lon="7.29573">
        <ele>325</ele>
        <time>2019-04-13T05:26:44Z</time>
      </trkpt>
      <trkpt lat="48.26425" lon="7.29558">
        <ele>327</ele>
        <time>2019-04-13T05:27:44Z</time>
      </trkpt>
      <trkpt lat="48.26452" lon="7.29534">
        <ele>327</ele>
        <time>2019-04-13T05:28:44Z</time>
      </trkpt>
      <trkpt lat="48.26469" lon="7.29511">
        <ele>325</ele>
        <time>2019-04-13T05:29:44Z</time>
      </trkpt>
      <trkpt lat="48.26484" lon="7.29478">
        <ele>322</ele>
        <time>2019-04-13T05:30:44Z</time>
      </trkpt>
      <trkpt lat="48.2652" lon="7.29349">
        <ele>313</ele>
        <time>2019-04-13T05:31:44Z</time>
      </trkpt>
      <trkpt lat="48.26535" lon="7.29312">
        <ele>312</ele>
        <time>2019-04-13T05:32:44Z</time>
      </trkpt>
      <trkpt lat="48.26561" lon="7.29266">
        <ele>305</ele>
        <time>2019-04-13T05:33:44Z</time>
      </trkpt>
      <trkpt lat="48.26627" lon="7.29205">
        <ele>298</ele>
        <time>2019-04-13T05:34:44Z</time>
      </trkpt>
      <trkpt lat="48.26717" lon="7.29116">
        <ele>291</ele>
        <time>2019-04-13T05:35:44Z</time>
      </trkpt>
      <trkpt lat="48.26734" lon="7.29106">
        <ele>289</ele>
        <time>2019-04-13T05:36:44Z</time>
      </trkpt>
      <trkpt lat="48.26756" lon="7.29099">
        <ele>286</ele>
        <time>2019-04-13T05:37:44Z</time>
      </trkpt>
      <trkpt lat="48.2687" lon="7.29111">
        <ele>272</ele>
        <time>2019-04-13T05:38:44Z</time>
      </trkpt>
      <trkpt lat="48.26908" lon="7.29126">
        <ele>268</ele>
        <time>2019-04-13T05:39:44Z</time>
      </trkpt>
      <trkpt lat="48.26905" lon="7.28872">
        <ele>273</ele>
        <time>2019-04-13T05:40:44Z</time>
      </trkpt>
      <trkpt lat="48.26908" lon="7.28797">
        <ele>270</ele>
        <time>2019-04-13T05:41:44Z</time>
      </trkpt>
      <trkpt lat="48.26911" lon="7.28773">
        <ele>269</ele>
        <time>2019-04-13T05:42:44Z</time>
      </trkpt>
      <trkpt lat="48.26919" lon="7.28762">
        <ele>266</ele>
        <time>2019-04-13T05:43:44Z</time>
      </trkpt>
      <trkpt lat="48.26922" lon="7.28748">
        <ele>266</ele>
        <time>2019-04-13T05:44:44Z</time>
      </trkpt>
      <trkpt lat="48.26933" lon="7.28717">
        <ele>267</ele>
        <time>2019-04-13T05:45:44Z</time>
      </trkpt>
      <trkpt lat="48.26967" lon="7.2863">
        <ele>268</ele>
        <time>2019-04-13T05:46:44Z</time>
      </trkpt>
      <trkpt lat="48.27011" lon="7.2854">
        <ele>269</ele>
        <time>2019-04-13T05:47:44Z</time>
      </trkpt>
      <trkpt lat="48.27024" lon="7.28518">
        <ele>268</ele>
        <time>2019-04-13T05:48:44Z</time>
      </trkpt>
      <trkpt lat="48.27033" lon="7.28487">
        <ele>268</ele>
        <time>2019-04-13T05:49:44Z</time>
      </trkpt>
      <trkpt lat="48.27042" lon="7.28408">
        <ele>268</ele>
        <time>2019-04-13T05:50:44Z</time>
      </trkpt>
      <trkpt lat="48.27045" lon="7.28343">
        <ele>270</ele>
        <time>2019-04-13T05:51:44Z</time>
      </trkpt>
      <trkpt lat="48.27047" lon="7.28329">
        <ele>270</ele>
        <time>2019-04-13T05:52:44Z</time>
      </trkpt>
      <trkpt lat="48.27061" lon="7.28308">
        <ele>269</ele>
        <time>2019-04-13T05:53:44Z</time>
      </trkpt>
      <trkpt lat="48.27077" lon="7.2829">
        <ele>269</ele>
        <time>2019-04-13T05:54:44Z</time>
      </trkpt>
      <trkpt lat="48.27086" lon="7.28274">
        <ele>269</ele>
        <time>2019-04-13T05:55:44Z</time>
      </trkpt>
      <trkpt lat="48.2709" lon="7.28252">
        <ele>270</ele>
        <time>2019-04-13T05:56:44Z</time>
      </trkpt>
      <trkpt lat="48.27095" lon="7.282">
        <ele>269</ele>
        <time>2019-04-13T05:57:44Z</time>
      </trkpt>
      <trkpt lat="48.27086" lon="7.28151">
        <ele>269</ele>
        <time>2019-04-13T05:58:44Z</time>
      </trkpt>
      <trkpt lat="48.27072" lon="7.27958">
        <ele>270</ele>
        <time>2019-04-13T05:59:44Z</time>
      </trkpt>
      <trkpt lat="48.27062" lon="7.27854">
        <ele>271</ele>
        <time>2019-04-13T06:00:44Z</time>
      </trkpt>
      <trkpt lat="48.27055" lon="7.27738">
        <ele>273</ele>
        <time>2019-04-13T06:01:44Z</time>
      </trkpt>
      <trkpt lat="48.27048" lon="7.276">
        <ele>275</ele>
        <time>2019-04-13T06:02:44Z</time>
      </trkpt>
      <trkpt lat="48.2705" lon="7.27587">
        <ele>275</ele>
        <time>2019-04-13T06:03:44Z</time>
      </trkpt>
      <trkpt lat="48.27056" lon="7.27563">
        <ele>274</ele>
        <time>2019-04-13T06:04:44Z</time>
      </trkpt>
      <trkpt lat="48.27053" lon="7.27555">
        <ele>274</ele>
        <time>2019-04-13T06:05:44Z</time>
      </trkpt>
      <trkpt lat="48.27049" lon="7.27539">
        <ele>274</ele>
        <time>2019-04-13T06:06:44Z</time>
      </trkpt>
      <trkpt lat="48.27043" lon="7.27506">
        <ele>273</ele>
        <time>2019-04-13T06:07:44Z</time>
      </trkpt>
      <trkpt lat="48.27043" lon="7.27493">
        <ele>273</ele>
        <time>2019-04-13T06:08:44Z</time>
      </trkpt>
      <trkpt lat="48.27037" lon="7.27493">
        <ele>273</ele>
        <time>2019-04-13T06:09:44Z</time>
      </trkpt>
      <trkpt lat="48.27035" lon="7.27455">
        <ele>273</ele>
        <time>2019-04-13T06:10:44Z</time>
      </trkpt>
      <trkpt lat="48.27031" lon="7.27426">
        <ele>273</ele>
        <time>2019-04-13T06:11:44Z</time>
      </trkpt>
      <trkpt lat="48.27023" lon="7.27401">
        <ele>273</ele>
        <time>2019-04-13T06:12:44Z</time>
      </trkpt>
      <trkpt lat="48.26961" lon="7.26934">
        <ele>281</ele>
        <time>2019-04-13T06:13:44Z</time>
      </trkpt>
      <trkpt lat="48.26934" lon="7.26706">
        <ele>282</ele>
        <time>2019-04-13T06:14:44Z</time>
      </trkpt>
      <trkpt lat="48.26922" lon="7.26165">
        <ele>286</ele>
        <time>2019-04-13T06:15:44Z</time>
      </trkpt>
      <trkpt lat="48.2691" lon="7.26066">
        <ele>287</ele>
        <time>2019-04-13T06:16:44Z</time>
      </trkpt>
      <trkpt lat="48.26883" lon="7.25956">
        <ele>288</ele>
        <time>2019-04-13T06:17:44Z</time>
      </trkpt>
      <trkpt lat="48.2661" lon="7.2526">
        <ele>292</ele>
        <time>2019-04-13T06:18:44Z</time>
      </trkpt>
      <trkpt lat="48.26503" lon="7.24984">
        <ele>296</ele>
        <time>2019-04-13T06:19:44Z</time>
      </trkpt>
      <trkpt lat="48.26455" lon="7.24838">
        <ele>299</ele>
        <time>2019-04-13T06:20:44Z</time>
      </trkpt>
      <trkpt lat="48.26438" lon="7.24758">
        <ele>299</ele>
        <time>2019-04-13T06:21:44Z</time>
      </trkpt>
      <trkpt lat="48.26427" lon="7.24661">
        <ele>300</ele>
        <time>2019-04-13T06:22:44Z</time>
      </trkpt>
      <trkpt lat="48.26426" lon="7.24562">
        <ele>300</ele>
        <time>2019-04-13T06:23:44Z</time>
      </trkpt>
      <trkpt lat="48.26469" lon="7.23988">
        <ele>307</ele>
        <time>2019-04-13T06:24:44Z</time>
      </trkpt>
      <trkpt lat="48.26472" lon="7.23882">
        <ele>310</ele>
        <time>2019-04-13T06:25:44Z</time>
      </trkpt>
      <trkpt lat="48.26463" lon="7.23784">
        <ele>311</ele>
        <time>2019-04-13T06:26:44Z</time>
      </trkpt>
      <trkpt lat="48.26447" lon="7.23687">
        <ele>311</ele>
        <time>2019-04-13T06:27:44Z</time>
      </trkpt>
      <trkpt lat="48.26419" lon="7.23596">
        <ele>314</ele>
        <time>2019-04-13T06:28:44Z</time>
      </trkpt>
      <trkpt lat="48.26371" lon="7.23493">
        <ele>314</ele>
        <time>2019-04-13T06:29:44Z</time>
      </trkpt>
      <trkpt lat="48.26312" lon="7.23389">
        <ele>316</ele>
        <time>2019-04-13T06:30:44Z</time>
      </trkpt>
      <trkpt lat="48.26256" lon="7.23285">
        <ele>318</ele>
        <time>2019-04-13T06:31:44Z</time>
      </trkpt>
      <trkpt lat="48.26212" lon="7.2317">
        <ele>319</ele>
        <time>2019-04-13T06:32:44Z</time>
      </trkpt>
      <trkpt lat="48.26162" lon="7.23">
        <ele>317</ele>
        <time>2019-04-13T06:33:44Z</time>
      </trkpt>
      <trkpt lat="48.25999" lon="7.22326">
        <ele>323</ele>
        <time>2019-04-13T06:34:44Z</time>
      </trkpt>
      <trkpt lat="48.25951" lon="7.22135">
        <ele>331</ele>
        <time>2019-04-13T06:35:44Z</time>
      </trkpt>
      <trkpt lat="48.25937" lon="7.22093">
        <ele>330</ele>
        <time>2019-04-13T06:36:44Z</time>
      </trkpt>
      <trkpt lat="48.25888" lon="7.21979">
        <ele>330</ele>
        <time>2019-04-13T06:37:44Z</time>
      </trkpt>
      <trkpt lat="48.25834" lon="7.21865">
        <ele>330</ele>
        <time>2019-04-13T06:38:44Z</time>
      </trkpt>
      <trkpt lat="48.25795" lon="7.21876">
        <ele>335</ele>
        <time>2019-04-13T06:39:44Z</time>
      </trkpt>
      <trkpt lat="48.25783" lon="7.21869">
        <ele>336</ele>
        <time>2019-04-13T06:40:44Z</time>
      </trkpt>
      <trkpt lat="48.25746" lon="7.21781">
        <ele>335</ele>
        <time>2019-04-13T06:41:44Z</time>
      </trkpt>
      <trkpt lat="48.25711" lon="7.21723">
        <ele>338</ele>
        <time>2019-04-13T06:42:44Z</time>
      </trkpt>
      <trkpt lat="48.25698" lon="7.21705">
        <ele>339</ele>
        <time>2019-04-13T06:43:44Z</time>
      </trkpt>
      <trkpt lat="48.2569" lon="7.21698">
        <ele>340</ele>
        <time>2019-04-13T06:44:44Z</time>
      </trkpt>
      <trkpt lat="48.25681" lon="7.21685">
        <ele>340</ele>
        <time>2019-04-13T06:45:44Z</time>
      </trkpt>
      <trkpt lat="48.25659" lon="7.21648">
        <ele>343</ele>
        <time>2019-04-13T06:46:44Z</time>
      </trkpt>
      <trkpt lat="48.2565" lon="7.21627">
        <ele>345</ele>
        <time>2019-04-13T06:47:44Z</time>
      </trkpt>
      <trkpt lat="48.25625" lon="7.21592">
        <ele>350</ele>
        <time>2019-04-13T06:48:44Z</time>
      </trkpt>
      <trkpt lat="48.25618" lon="7.21573">
        <ele>349</ele>
        <time>2019-04-13T06:49:44Z</time>
      </trkpt>
      <trkpt lat="48.25589" lon="7.21487">
        <ele>345</ele>
        <time>2019-04-13T06:50:44Z</time>
      </trkpt>
      <trkpt lat="48.25512" lon="7.21295">
        <ele>346</ele>
        <time>2019-04-13T06:51:44Z</time>
      </trkpt>
      <trkpt lat="48.25455" lon="7.21131">
        <ele>354</ele>
        <time>2019-04-13T06:52:44Z</time>
      </trkpt>
      <trkpt lat="48.25434" lon="7.21067">
        <ele>352</ele>
        <time>2019-04-13T06:53:44Z</time>
      </trkpt>
      <trkpt lat="48.25421" lon="7.21001">
        <ele>349</ele>
        <time>2019-04-13T06:54:44Z</time>
      </trkpt>
      <trkpt lat="48.25415" lon="7.2096">
        <ele>349</ele>
        <time>2019-04-13T06:55:44Z</time>
      </trkpt>
      <trkpt lat="48.25416" lon="7.20932">
        <ele>348</ele>
        <time>2019-04-13T06:56:44Z</time>
      </trkpt>
      <trkpt lat="48.25429" lon="7.20827">
        <ele>346</ele>
        <time>2019-04-13T06:57:44Z</time>
      </trkpt>
      <trkpt lat="48.25431" lon="7.20793">
        <ele>346</ele>
        <time>2019-04-13T06:58:44Z</time>
      </trkpt>
      <trkpt lat="48.25437" lon="7.20781">
        <ele>346</ele>
        <time>2019-04-13T06:59:44Z</time>
      </trkpt>
      <trkpt lat="48.25467" lon="7.20753">
        <ele>343</ele>
        <time>2019-04-13T07:00:44Z</time>
      </trkpt>
      <trkpt lat="48.25473" lon="7.2074">
        <ele>343</ele>
        <time>2019-04-13T07:01:44Z</time>
      </trkpt>
      <trkpt lat="48.25494" lon="7.20689">
        <ele>343</ele>
        <time>2019-04-13T07:02:44Z</time>
      </trkpt>
      <trkpt lat="48.25517" lon="7.20619">
        <ele>344</ele>
        <time>2019-04-13T07:03:44Z</time>
      </trkpt>
      <trkpt lat="48.25525" lon="7.20496">
        <ele>347</ele>
        <time>2019-04-13T07:04:44Z</time>
      </trkpt>
      <trkpt lat="48.25521" lon="7.20476">
        <ele>347</ele>
        <time>2019-04-13T07:05:44Z</time>
      </trkpt>
      <trkpt lat="48.25523" lon="7.20429">
        <ele>347</ele>
        <time>2019-04-13T07:06:44Z</time>
      </trkpt>
      <trkpt lat="48.25517" lon="7.20372">
        <ele>346</ele>
        <time>2019-04-13T07:07:44Z</time>
      </trkpt>
      <trkpt lat="48.25518" lon="7.20352">
        <ele>346</ele>
        <time>2019-04-13T07:08:44Z</time>
      </trkpt>
      <trkpt lat="48.25504" lon="7.20329">
        <ele>344</ele>
        <time>2019-04-13T07:09:44Z</time>
      </trkpt>
      <trkpt lat="48.25498" lon="7.20309">
        <ele>344</ele>
        <time>2019-04-13T07:10:44Z</time>
      </trkpt>
      <trkpt lat="48.2546" lon="7.20102">
        <ele>347</ele>
        <time>2019-04-13T07:11:44Z</time>
      </trkpt>
      <trkpt lat="48.25456" lon="7.20092">
        <ele>347</ele>
        <time>2019-04-13T07:12:44Z</time>
      </trkpt>
      <trkpt lat="48.25447" lon="7.20076">
        <ele>347</ele>
        <time>2019-04-13T07:13:44Z</time>
      </trkpt>
      <trkpt lat="48.25424" lon="7.20052">
        <ele>347</ele>
        <time>2019-04-13T07:14:44Z</time>
      </trkpt>
      <trkpt lat="48.25416" lon="7.20041">
        <ele>348</ele>
        <time>2019-04-13T07:15:44Z</time>
      </trkpt>
      <trkpt lat="48.25406" lon="7.20019">
        <ele>349</ele>
        <time>2019-04-13T07:16:44Z</time>
      </trkpt>
      <trkpt lat="48.25348" lon="7.19777">
        <ele>355</ele>
        <time>2019-04-13T07:17:44Z</time>
      </trkpt>
      <trkpt lat="48.25329" lon="7.19722">
        <ele>357</ele>
        <time>2019-04-13T07:18:44Z</time>
      </trkpt>
      <trkpt lat="48.25308" lon="7.19671">
        <ele>359</ele>
        <time>2019-04-13T07:19:44Z</time>
      </trkpt>
      <trkpt lat="48.25273" lon="7.19633">
        <ele>360</ele>
        <time>2019-04-13T07:20:44Z</time>
      </trkpt>
      <trkpt lat="48.25277" lon="7.19624">
        <ele>359</ele>
        <time>2019-04-13T07:21:44Z</time>
      </trkpt>
      <trkpt lat="48.25276" lon="7.1961">
        <ele>359</ele>
        <time>2019-04-13T07:22:44Z</time>
      </trkpt>
      <trkpt lat="48.25274" lon="7.19602">
        <ele>358</ele>
        <time>2019-04-13T07:23:44Z</time>
      </trkpt>
      <trkpt lat="48.25267" lon="7.19595">
        <ele>359</ele>
        <time>2019-04-13T07:24:44Z</time>
      </trkpt>
      <trkpt lat="48.25261" lon="7.19593">
        <ele>359</ele>
        <time>2019-04-13T07:25:44Z</time>
      </trkpt>
      <trkpt lat="48.25254" lon="7.19596">
        <ele>359</ele>
        <time>2019-04-13T07:26:44Z</time>
      </trkpt>
      <trkpt lat="48.25246" lon="7.19608">
        <ele>360</ele>
        <time>2019-04-13T07:27:44Z</time>
      </trkpt>
      <trkpt lat="48.25245" lon="7.19621">
        <ele>361</ele>
        <time>2019-04-13T07:28:44Z</time>
      </trkpt>
      <trkpt lat="48.25248" lon="7.19632">
        <ele>361</ele>
        <time>2019-04-13T07:29:44Z</time>
      </trkpt>
      <trkpt lat="48.25234" lon="7.19645">
        <ele>362</ele>
        <time>2019-04-13T07:30:44Z</time>
      </trkpt>
      <trkpt lat="48.25217" lon="7.19675">
        <ele>364</ele>
        <time>2019-04-13T07:31:44Z</time>
      </trkpt>
      <trkpt lat="48.25155" lon="7.19752">
        <ele>367</ele>
        <time>2019-04-13T07:32:44Z</time>
      </trkpt>
      <trkpt lat="48.25125" lon="7.19778">
        <ele>369</ele>
        <time>2019-04-13T07:33:44Z</time>
      </trkpt>
      <trkpt lat="48.25052" lon="7.19817">
        <ele>374</ele>
        <time>2019-04-13T07:34:44Z</time>
      </trkpt>
      <trkpt lat="48.24992" lon="7.19864">
        <ele>378</ele>
        <time>2019-04-13T07:35:44Z</time>
      </trkpt>
      <trkpt lat="48.24935" lon="7.19901">
        <ele>382</ele>
        <time>2019-04-13T07:36:44Z</time>
      </trkpt>
      <trkpt lat="48.24887" lon="7.19938">
        <ele>386</ele>
        <time>2019-04-13T07:37:44Z</time>
      </trkpt>
      <trkpt lat="48.24805" lon="7.19953">
        <ele>392</ele>
        <time>2019-04-13T07:38:44Z</time>
      </trkpt>
      <trkpt lat="48.24776" lon="7.19955">
        <ele>394</ele>
        <time>2019-04-13T07:39:44Z</time>
      </trkpt>
      <trkpt lat="48.24741" lon="7.19951">
        <ele>396</ele>
        <time>2019-04-13T07:40:44Z</time>
      </trkpt>
      <trkpt lat="48.24716" lon="7.19945">
        <ele>397</ele>
        <time>2019-04-13T07:41:44Z</time>
      </trkpt>
      <trkpt lat="48.24642" lon="7.19919">
        <ele>397</ele>
        <time>2019-04-13T07:42:44Z</time>
      </trkpt>
      <trkpt lat="48.24596" lon="7.19907">
        <ele>400</ele>
        <time>2019-04-13T07:43:44Z</time>
      </trkpt>
      <trkpt lat="48.24562" lon="7.19904">
        <ele>402</ele>
        <time>2019-04-13T07:44:44Z</time>
      </trkpt>
      <trkpt lat="48.24506" lon="7.19906">
        <ele>407</ele>
        <time>2019-04-13T07:45:44Z</time>
      </trkpt>
      <trkpt lat="48.24466" lon="7.19901">
        <ele>410</ele>
        <time>2019-04-13T07:46:44Z</time>
      </trkpt>
      <trkpt lat="48.24469" lon="7.19916">
        <ele>409</ele>
        <time>2019-04-13T07:47:44Z</time>
      </trkpt>
      <trkpt lat="48.24478" lon="7.19933">
        <ele>411</ele>
        <time>2019-04-13T07:48:44Z</time>
      </trkpt>
      <trkpt lat="48.24469" lon="7.19916">
        <ele>409</ele>
        <time>2019-04-13T07:49:44Z</time>
      </trkpt>
      <trkpt lat="48.24466" lon="7.19901">
        <ele>410</ele>
        <time>2019-04-13T07:50:44Z</time>
      </trkpt>
      <trkpt lat="48.24352" lon="7.19844">
        <ele>420</ele>
        <time>2019-04-13T07:51:44Z</time>
      </trkpt>
      <trkpt lat="48.24318" lon="7.19834">
        <ele>424</ele>
        <time>2019-04-13T07:52:44Z</time>
      </trkpt>
      <trkpt lat="48.24287" lon="7.19832">
        <ele>427</ele>
        <time>2019-04-13T07:53:44Z</time>
      </trkpt>
      <trkpt lat="48.24267" lon="7.19835">
        <ele>429</ele>
        <time>2019-04-13T07:54:44Z</time>
      </trkpt>
      <trkpt lat="48.24249" lon="7.1984">
        <ele>431</ele>
        <time>2019-04-13T07:55:44Z</time>
      </trkpt>
      <trkpt lat="48.24188" lon="7.199">
        <ele>434</ele>
        <time>2019-04-13T07:56:44Z</time>
      </trkpt>
      <trkpt lat="48.24181" lon="7.19917">
        <ele>434</ele>
        <time>2019-04-13T07:57:44Z</time>
      </trkpt>
      <trkpt lat="48.24182" lon="7.19936">
        <ele>440</ele>
        <time>2019-04-13T07:58:44Z</time>
      </trkpt>
      <trkpt lat="48.24188" lon="7.19954">
        <ele>445</ele>
        <time>2019-04-13T07:59:44Z</time>
      </trkpt>
      <trkpt lat="48.24199" lon="7.19962">
        <ele>447</ele>
        <time>2019-04-13T08:00:44Z</time>
      </trkpt>
      <trkpt lat="48.24215" lon="7.19968">
        <ele>448</ele>
        <time>2019-04-13T08:01:44Z</time>
      </trkpt>
      <trkpt lat="48.24243" lon="7.1997">
        <ele>447</ele>
        <time>2019-04-13T08:02:44Z</time>
      </trkpt>
      <trkpt lat="48.24276" lon="7.19967">
        <ele>444</ele>
        <time>2019-04-13T08:03:44Z</time>
      </trkpt>
      <trkpt lat="48.24313" lon="7.1997">
        <ele>442</ele>
        <time>2019-04-13T08:04:44Z</time>
      </trkpt>
      <trkpt lat="48.24342" lon="7.19983">
        <ele>443</ele>
        <time>2019-04-13T08:05:44Z</time>
      </trkpt>
      <trkpt lat="48.24389" lon="7.20022">
        <ele>445</ele>
        <time>2019-04-13T08:06:44Z</time>
      </trkpt>
      <trkpt lat="48.24437" lon="7.20052">
        <ele>444</ele>
        <time>2019-04-13T08:07:44Z</time>
      </trkpt>
      <trkpt lat="48.24457" lon="7.20067">
        <ele>445</ele>
        <time>2019-04-13T08:08:44Z</time>
      </trkpt>
      <trkpt lat="48.24507" lon="7.20117">
        <ele>451</ele>
        <time>2019-04-13T08:09:44Z</time>
      </trkpt>
      <trkpt lat="48.24539" lon="7.20159">
        <ele>460</ele>
        <time>2019-04-13T08:10:44Z</time>
      </trkpt>
      <trkpt lat="48.24548" lon="7.20168">
        <ele>462</ele>
        <time>2019-04-13T08:11:44Z</time>
      </trkpt>
      <trkpt lat="48.24587" lon="7.20187">
        <ele>464</ele>
        <time>2019-04-13T08:12:44Z</time>
      </trkpt>
      <trkpt lat="48.2462" lon="7.20198">
        <ele>465</ele>
        <time>2019-04-13T08:13:44Z</time>
      </trkpt>
      <trkpt lat="48.2464" lon="7.20208">
        <ele>467</ele>
        <time>2019-04-13T08:14:44Z</time>
      </trkpt>
      <trkpt lat="48.24657" lon="7.20222">
        <ele>470</ele>
        <time>2019-04-13T08:15:44Z</time>
      </trkpt>
      <trkpt lat="48.24668" lon="7.20228">
        <ele>471</ele>
        <time>2019-04-13T08:16:44Z</time>
      </trkpt>
      <trkpt lat="48.24682" lon="7.20232">
        <ele>471</ele>
        <time>2019-04-13T08:17:44Z</time>
      </trkpt>
      <trkpt lat="48.24698" lon="7.20233">
        <ele>470</ele>
        <time>2019-04-13T08:18:44Z</time>
      </trkpt>
      <trkpt lat="48.24706" lon="7.2024">
        <ele>472</ele>
        <time>2019-04-13T08:19:44Z</time>
      </trkpt>
      <trkpt lat="48.24709" lon="7.2025">
        <ele>474</ele>
        <time>2019-04-13T08:20:44Z</time>
      </trkpt>
      <trkpt lat="48.24709" lon="7.20261">
        <ele>478</ele>
        <time>2019-04-13T08:21:44Z</time>
      </trkpt>
      <trkpt lat="48.24705" lon="7.20267">
        <ele>480</ele>
        <time>2019-04-13T08:22:44Z</time>
      </trkpt>
      <trkpt lat="48.24699" lon="7.20268">
        <ele>481</ele>
        <time>2019-04-13T08:23:44Z</time>
      </trkpt>
      <trkpt lat="48.24645" lon="7.20248">
        <ele>481</ele>
        <time>2019-04-13T08:24:44Z</time>
      </trkpt>
      <trkpt lat="48.24603" lon="7.20242">
        <ele>483</ele>
        <time>2019-04-13T08:25:44Z</time>
      </trkpt>
      <trkpt lat="48.2454" lon="7.2025">
        <ele>490</ele>
        <time>2019-04-13T08:26:44Z</time>
      </trkpt>
      <trkpt lat="48.24516" lon="7.20248">
        <ele>490</ele>
        <time>2019-04-13T08:27:44Z</time>
      </trkpt>
      <trkpt lat="48.24496" lon="7.20243">
        <ele>490</ele>
        <time>2019-04-13T08:28:44Z</time>
      </trkpt>
      <trkpt lat="48.2447" lon="7.20229">
        <ele>490</ele>
        <time>2019-04-13T08:29:44Z</time>
      </trkpt>
      <trkpt lat="48.24448" lon="7.20208">
        <ele>487</ele>
        <time>2019-04-13T08:30:44Z</time>
      </trkpt>
      <trkpt lat="48.24432" lon="7.20198">
        <ele>487</ele>
        <time>2019-04-13T08:31:44Z</time>
      </trkpt>
      <trkpt lat="48.24418" lon="7.20196">
        <ele>489</ele>
        <time>2019-04-13T08:32:44Z</time>
      </trkpt>
      <trkpt lat="48.24406" lon="7.202">
        <ele>493</ele>
        <time>2019-04-13T08:33:44Z</time>
      </trkpt>
      <trkpt lat="48.2438" lon="7.20201">
        <ele>499</ele>
        <time>2019-04-13T08:34:44Z</time>
      </trkpt>
      <trkpt lat="48.24359" lon="7.20195">
        <ele>502</ele>
        <time>2019-04-13T08:35:44Z</time>
      </trkpt>
      <trkpt lat="48.24353" lon="7.20198">
        <ele>504</ele>
        <time>2019-04-13T08:36:44Z</time>
      </trkpt>
      <trkpt lat="48.24352" lon="7.20206">
        <ele>506</ele>
        <time>2019-04-13T08:37:44Z</time>
      </trkpt>
      <trkpt lat="48.24356" lon="7.20211">
        <ele>506</ele>
        <time>2019-04-13T08:38:44Z</time>
      </trkpt>
      <trkpt lat="48.24368" lon="7.20214">
        <ele>504</ele>
        <time>2019-04-13T08:39:44Z</time>
      </trkpt>
      <trkpt lat="48.24384" lon="7.20214">
        <ele>501</ele>
        <time>2019-04-13T08:40:44Z</time>
      </trkpt>
      <trkpt lat="48.24402" lon="7.20219">
        <ele>498</ele>
        <time>2019-04-13T08:41:44Z</time>
      </trkpt>
      <trkpt lat="48.24413" lon="7.20229">
        <ele>498</ele>
        <time>2019-04-13T08:42:44Z</time>
      </trkpt>
      <trkpt lat="48.24448" lon="7.20298">
        <ele>511</ele>
        <time>2019-04-13T08:43:44Z</time>
      </trkpt>
      <trkpt lat="48.24458" lon="7.20314">
        <ele>514</ele>
        <time>2019-04-13T08:44:44Z</time>
      </trkpt>
      <trkpt lat="48.24476" lon="7.20329">
        <ele>516</ele>
        <time>2019-04-13T08:45:44Z</time>
      </trkpt>
      <trkpt lat="48.24523" lon="7.20355">
        <ele>520</ele>
        <time>2019-04-13T08:46:44Z</time>
      </trkpt>
      <trkpt lat="48.24541" lon="7.20362">
        <ele>522</ele>
        <time>2019-04-13T08:47:44Z</time>
      </trkpt>
      <trkpt lat="48.24608" lon="7.20361">
        <ele>520</ele>
        <time>2019-04-13T08:48:44Z</time>
      </trkpt>
      <trkpt lat="48.24641" lon="7.20369">
        <ele>520</ele>
        <time>2019-04-13T08:49:44Z</time>
      </trkpt>
      <trkpt lat="48.24673" lon="7.20388">
        <ele>521</ele>
        <time>2019-04-13T08:50:44Z</time>
      </trkpt>
      <trkpt lat="48.24697" lon="7.20419">
        <ele>521</ele>
        <time>2019-04-13T08:51:44Z</time>
      </trkpt>
      <trkpt lat="48.24708" lon="7.20441">
        <ele>520</ele>
        <time>2019-04-13T08:52:44Z</time>
      </trkpt>
      <trkpt lat="48.24714" lon="7.20463">
        <ele>520</ele>
        <time>2019-04-13T08:53:44Z</time>
      </trkpt>
      <trkpt lat="48.24714" lon="7.20486">
        <ele>523</ele>
        <time>2019-04-13T08:54:44Z</time>
      </trkpt>
      <trkpt lat="48.24709" lon="7.20516">
        <ele>528</ele>
        <time>2019-04-13T08:55:44Z</time>
      </trkpt>
      <trkpt lat="48.24707" lon="7.20608">
        <ele>536</ele>
        <time>2019-04-13T08:56:44Z</time>
      </trkpt>
      <trkpt lat="48.24713" lon="7.2067">
        <ele>538</ele>
        <time>2019-04-13T08:57:44Z</time>
      </trkpt>
      <trkpt lat="48.24716" lon="7.20734">
        <ele>540</ele>
        <time>2019-04-13T08:58:44Z</time>
      </trkpt>
      <trkpt lat="48.24715" lon="7.20793">
        <ele>542</ele>
        <time>2019-04-13T08:59:44Z</time>
      </trkpt>
      <trkpt lat="48.24711" lon="7.20844">
        <ele>544</ele>
        <time>2019-04-13T09:00:44Z</time>
      </trkpt>
      <trkpt lat="48.24704" lon="7.20891">
        <ele>544</ele>
        <time>2019-04-13T09:01:44Z</time>
      </trkpt>
      <trkpt lat="48.24696" lon="7.2092">
        <ele>545</ele>
        <time>2019-04-13T09:02:44Z</time>
      </trkpt>
      <trkpt lat="48.24686" lon="7.20938">
        <ele>545</ele>
        <time>2019-04-13T09:03:44Z</time>
      </trkpt>
      <trkpt lat="48.2467" lon="7.20948">
        <ele>549</ele>
        <time>2019-04-13T09:04:44Z</time>
      </trkpt>
      <trkpt lat="48.24625" lon="7.20964">
        <ele>559</ele>
        <time>2019-04-13T09:05:44Z</time>
      </trkpt>
      <trkpt lat="48.24605" lon="7.20977">
        <ele>562</ele>
        <time>2019-04-13T09:06:44Z</time>
      </trkpt>
      <trkpt lat="48.24585" lon="7.20998">
        <ele>563</ele>
        <time>2019-04-13T09:07:44Z</time>
      </trkpt>
      <trkpt lat="48.24542" lon="7.21058">
        <ele>559</ele>
        <time>2019-04-13T09:08:44Z</time>
      </trkpt>
      <trkpt lat="48.24508" lon="7.21099">
        <ele>560</ele>
        <time>2019-04-13T09:09:44Z</time>
      </trkpt>
      <trkpt lat="48.24466" lon="7.21143">
        <ele>562</ele>
        <time>2019-04-13T09:10:44Z</time>
      </trkpt>
      <trkpt lat="48.24437" lon="7.2118">
        <ele>563</ele>
        <time>2019-04-13T09:11:44Z</time>
      </trkpt>
      <trkpt lat="48.24397" lon="7.21241">
        <ele>568</ele>
        <time>2019-04-13T09:12:44Z</time>
      </trkpt>
      <trkpt lat="48.24372" lon="7.21293">
        <ele>573</ele>
        <time>2019-04-13T09:13:44Z</time>
      </trkpt>
      <trkpt lat="48.24359" lon="7.21324">
        <ele>574</ele>
        <time>2019-04-13T09:14:44Z</time>
      </trkpt>
      <trkpt lat="48.24351" lon="7.21354">
        <ele>577</ele>
        <time>2019-04-13T09:15:44Z</time>
      </trkpt>
      <trkpt lat="48.24348" lon="7.21373">
        <ele>580</ele>
        <time>2019-04-13T09:16:44Z</time>
      </trkpt>
      <trkpt lat="48.24348" lon="7.21388">
        <ele>582</ele>
        <time>2019-04-13T09:17:44Z</time>
      </trkpt>
      <trkpt lat="48.24349" lon="7.21401">
        <ele>583</ele>
        <time>2019-04-13T09:18:44Z</time>
      </trkpt>
      <trkpt lat="48.24352" lon="7.21408">
        <ele>584</ele>
        <time>2019-04-13T09:19:44Z</time>
      </trkpt>
      <trkpt lat="48.2436" lon="7.21416">
        <ele>584</ele>
        <time>2019-04-13T09:20:44Z</time>
      </trkpt>
      <trkpt lat="48.2437" lon="7.21417">
        <ele>584</ele>
        <time>2019-04-13T09:21:44Z</time>
      </trkpt>
      <trkpt lat="48.24385" lon="7.21414">
        <ele>583</ele>
        <time>2019-04-13T09:22:44Z</time>
      </trkpt>
      <trkpt lat="48.24425" lon="7.21415">
        <ele>582</ele>
        <time>2019-04-13T09:23:44Z</time>
      </trkpt>
      <trkpt lat="48.24464" lon="7.2142">
        <ele>582</ele>
        <time>2019-04-13T09:24:44Z</time>
      </trkpt>
      <trkpt lat="48.24489" lon="7.21425">
        <ele>583</ele>
        <time>2019-04-13T09:25:44Z</time>
      </trkpt>
      <trkpt lat="48.24508" lon="7.21433">
        <ele>583</ele>
        <time>2019-04-13T09:26:44Z</time>
      </trkpt>
      <trkpt lat="48.24524" lon="7.21449">
        <ele>584</ele>
        <time>2019-04-13T09:27:44Z</time>
      </trkpt>
      <trkpt lat="48.2454" lon="7.21476">
        <ele>588</ele>
        <time>2019-04-13T09:28:44Z</time>
      </trkpt>
      <trkpt lat="48.24561" lon="7.21536">
        <ele>594</ele>
        <time>2019-04-13T09:29:44Z</time>
      </trkpt>
      <trkpt lat="48.24596" lon="7.21614">
        <ele>597</ele>
        <time>2019-04-13T09:30:44Z</time>
      </trkpt>
      <trkpt lat="48.24601" lon="7.2163">
        <ele>597</ele>
        <time>2019-04-13T09:31:44Z</time>
      </trkpt>
      <trkpt lat="48.24602" lon="7.21676">
        <ele>601</ele>
        <time>2019-04-13T09:32:44Z</time>
      </trkpt>
      <trkpt lat="48.24605" lon="7.21697">
        <ele>602</ele>
        <time>2019-04-13T09:33:44Z</time>
      </trkpt>
      <trkpt lat="48.24621" lon="7.2177">
        <ele>602</ele>
        <time>2019-04-13T09:34:44Z</time>
      </trkpt>
      <trkpt lat="48.24621" lon="7.21782">
        <ele>602</ele>
        <time>2019-04-13T09:35:44Z</time>
      </trkpt>
      <trkpt lat="48.24619" lon="7.21794">
        <ele>603</ele>
        <time>2019-04-13T09:36:44Z</time>
      </trkpt>
      <trkpt lat="48.24612" lon="7.21806">
        <ele>605</ele>
        <time>2019-04-13T09:37:44Z</time>
      </trkpt>
      <trkpt lat="48.24599" lon="7.21817">
        <ele>608</ele>
        <time>2019-04-13T09:38:44Z</time>
      </trkpt>
      <trkpt lat="48.24586" lon="7.21826">
        <ele>610</ele>
        <time>2019-04-13T09:39:44Z</time>
      </trkpt>
      <trkpt lat="48.24572" lon="7.21828">
        <ele>611</ele>
        <time>2019-04-13T09:40:44Z</time>
      </trkpt>
      <trkpt lat="48.24563" lon="7.21823">
        <ele>610</ele>
        <time>2019-04-13T09:41:44Z</time>
      </trkpt>
      <trkpt lat="48.24556" lon="7.21811">
        <ele>610</ele>
        <time>2019-04-13T09:42:44Z</time>
      </trkpt>
      <trkpt lat="48.24552" lon="7.21763">
        <ele>610</ele>
        <time>2019-04-13T09:43:44Z</time>
      </trkpt>
      <trkpt lat="48.24538" lon="7.2172">
        <ele>610</ele>
        <time>2019-04-13T09:44:44Z</time>
      </trkpt>
      <trkpt lat="48.24524" lon="7.21699">
        <ele>611</ele>
        <time>2019-04-13T09:45:44Z</time>
      </trkpt>
      <trkpt lat="48.24507" lon="7.21684">
        <ele>613</ele>
        <time>2019-04-13T09:46:44Z</time>
      </trkpt>
      <trkpt lat="48.24495" lon="7.21677">
        <ele>614</ele>
        <time>2019-04-13T09:47:44Z</time>
      </trkpt>
      <trkpt lat="48.2448" lon="7.21679">
        <ele>615</ele>
        <time>2019-04-13T09:48:44Z</time>
      </trkpt>
      <trkpt lat="48.24462" lon="7.2169">
        <ele>617</ele>
        <time>2019-04-13T09:49:44Z</time>
      </trkpt>
      <trkpt lat="48.24451" lon="7.21705">
        <ele>617</ele>
        <time>2019-04-13T09:50:44Z</time>
      </trkpt>
      <trkpt lat="48.24431" lon="7.21735">
        <ele>617</ele>
        <time>2019-04-13T09:51:44Z</time>
      </trkpt>
      <trkpt lat="48.24397" lon="7.21765">
        <ele>621</ele>
        <time>2019-04-13T09:52:44Z</time>
      </trkpt>
      <trkpt lat="48.24366" lon="7.21784">
        <ele>626</ele>
        <time>2019-04-13T09:53:44Z</time>
      </trkpt>
      <trkpt lat="48.24334" lon="7.21793">
        <ele>630</ele>
        <time>2019-04-13T09:54:44Z</time>
      </trkpt>
      <trkpt lat="48.24206" lon="7.21784">
        <ele>636</ele>
        <time>2019-04-13T09:55:44Z</time>
      </trkpt>
      <trkpt lat="48.24177" lon="7.21785">
        <ele>637</ele>
        <time>2019-04-13T09:56:44Z</time>
      </trkpt>
      <trkpt lat="48.24158" lon="7.21797">
        <ele>638</ele>
        <time>2019-04-13T09:57:44Z</time>
      </trkpt>
      <trkpt lat="48.24141" lon="7.21814">
        <ele>640</ele>
        <time>2019-04-13T09:58:44Z</time>
      </trkpt>
      <trkpt lat="48.24103" lon="7.21862">
        <ele>643</ele>
        <time>2019-04-13T09:59:44Z</time>
      </trkpt>
      <trkpt lat="48.24083" lon="7.21878">
        <ele>644</ele>
        <time>2019-04-13T10:00:44Z</time>
      </trkpt>
      <trkpt lat="48.24065" lon="7.2188">
        <ele>645</ele>
        <time>2019-04-13T10:01:44Z</time>
      </trkpt>
      <trkpt lat="48.24049" lon="7.21867">
        <ele>646</ele>
        <time>2019-04-13T10:02:44Z</time>
      </trkpt>
      <trkpt lat="48.24001" lon="7.21804">
        <ele>649</ele>
        <time>2019-04-13T10:03:44Z</time>
      </trkpt>
      <trkpt lat="48.23968" lon="7.21785">
        <ele>655</ele>
        <time>2019-04-13T10:04:44Z</time>
      </trkpt>
      <trkpt lat="48.23929" lon="7.21781">
        <ele>663</ele>
        <time>2019-04-13T10:05:44Z</time>
      </trkpt>
      <trkpt lat="48.2374" lon="7.21849">
        <ele>685</ele>
        <time>2019-04-13T10:06:44Z</time>
      </trkpt>
      <trkpt lat="48.23703" lon="7.2187">
        <ele>686</ele>
        <time>2019-04-13T10:07:44Z</time>
      </trkpt>
      <trkpt lat="48.23627" lon="7.21945">
        <ele>688</ele>
        <time>2019-04-13T10:08:44Z</time>
      </trkpt>
      <trkpt lat="48.2359" lon="7.21974">
        <ele>690</ele>
        <time>2019-04-13T10:09:44Z</time>
      </trkpt>
      <trkpt lat="48.23516" lon="7.22022">
        <ele>697</ele>
        <time>2019-04-13T10:10:44Z</time>
      </trkpt>
      <trkpt lat="48.2341" lon="7.22102">
        <ele>700</ele>
        <time>2019-04-13T10:11:44Z</time>
      </trkpt>
      <trkpt lat="48.23346" lon="7.22128">
        <ele>706</ele>
        <time>2019-04-13T10:12:44Z</time>
      </trkpt>
      <trkpt lat="48.233" lon="7.22141">
        <ele>704</ele>
        <time>2019-04-13T10:13:44Z</time>
      </trkpt>
      <trkpt lat="48.23232" lon="7.22125">
        <ele>710</ele>
        <time>2019-04-13T10:14:44Z</time>
      </trkpt>
      <trkpt lat="48.23197" lon="7.22111">
        <ele>716</ele>
        <time>2019-04-13T10:15:44Z</time>
      </trkpt>
      <trkpt lat="48.23172" lon="7.22104">
        <ele>718</ele>
        <time>2019-04-13T10:16:44Z</time>
      </trkpt>
      <trkpt lat="48.2315" lon="7.22105">
        <ele>719</ele>
        <time>2019-04-13T10:17:44Z</time>
      </trkpt>
      <trkpt lat="48.23116" lon="7.22115">
        <ele>720</ele>
        <time>2019-04-13T10:18:44Z</time>
      </trkpt>
      <trkpt lat="48.23058" lon="7.22135">
        <ele>725</ele>
        <time>2019-04-13T10:19:44Z</time>
      </trkpt>
      <trkpt lat="48.23031" lon="7.22148">
        <ele>728</ele>
        <time>2019-04-13T10:20:44Z</time>
      </trkpt>
      <trkpt lat="48.23018" lon="7.2216">
        <ele>728</ele>
        <time>2019-04-13T10:21:44Z</time>
      </trkpt>
      <trkpt lat="48.23013" lon="7.2218">
        <ele>727</ele>
        <time>2019-04-13T10:22:44Z</time>
      </trkpt>
      <trkpt lat="48.23014" lon="7.22201">
        <ele>726</ele>
        <time>2019-04-13T10:23:44Z</time>
      </trkpt>
      <trkpt lat="48.2302" lon="7.22231">
        <ele>723</ele>
        <time>2019-04-13T10:24:44Z</time>
      </trkpt>
      <trkpt lat="48.23045" lon="7.22311">
        <ele>720</ele>
        <time>2019-04-13T10:25:44Z</time>
      </trkpt>
      <trkpt lat="48.23066" lon="7.22351">
        <ele>717</ele>
        <time>2019-04-13T10:26:44Z</time>
      </trkpt>
      <trkpt lat="48.23079" lon="7.22381">
        <ele>714</ele>
        <time>2019-04-13T10:27:44Z</time>
      </trkpt>
      <trkpt lat="48.23084" lon="7.22407">
        <ele>715</ele>
        <time>2019-04-13T10:28:44Z</time>
      </trkpt>
      <trkpt lat="48.23087" lon="7.22434">
        <ele>713</ele>
        <time>2019-04-13T10:29:44Z</time>
      </trkpt>
      <trkpt lat="48.23083" lon="7.22453">
        <ele>714</ele>
        <time>2019-04-13T10:30:44Z</time>
      </trkpt>
      <trkpt lat="48.23077" lon="7.22467">
        <ele>715</ele>
        <time>2019-04-13T10:31:44Z</time>
      </trkpt>
      <trkpt lat="48.23066" lon="7.22481">
        <ele>716</ele>
        <time>2019-04-13T10:32:44Z</time>
      </trkpt>
      <trkpt lat="48.23052" lon="7.22495">
        <ele>718</ele>
        <time>2019-04-13T10:33:44Z</time>
      </trkpt>
      <trkpt lat="48.23033" lon="7.22508">
        <ele>720</ele>
        <time>2019-04-13T10:34:44Z</time>
      </trkpt>
      <trkpt lat="48.22983" lon="7.2252">
        <ele>728</ele>
        <time>2019-04-13T10:35:44Z</time>
      </trkpt>
      <trkpt lat="48.22949" lon="7.22521">
        <ele>733</ele>
        <time>2019-04-13T10:36:44Z</time>
      </trkpt>
      <trkpt lat="48.2291" lon="7.22512">
        <ele>741</ele>
        <time>2019-04-13T10:37:44Z</time>
      </trkpt>
      <trkpt lat="48.22872" lon="7.22509">
        <ele>748</ele>
        <time>2019-04-13T10:38:44Z</time>
      </trkpt>
      <trkpt lat="48.2285" lon="7.22513">
        <ele>751</ele>
        <time>2019-04-13T10:39:44Z</time>
      </trkpt>
      <trkpt lat="48.22837" lon="7.22521">
        <ele>753</ele>
        <time>2019-04-13T10:40:44Z</time>
      </trkpt>
      <trkpt lat="48.22831" lon="7.22529">
        <ele>753</ele>
        <time>2019-04-13T10:41:44Z</time>
      </trkpt>
      <trkpt lat="48.22829" lon="7.22542">
        <ele>753</ele>
        <time>2019-04-13T10:42:44Z</time>
      </trkpt>
      <trkpt lat="48.22831" lon="7.22556">
        <ele>751</ele>
        <time>2019-04-13T10:43:44Z</time>
      </trkpt>
      <trkpt lat="48.22832" lon="7.22576">
        <ele>750</ele>
        <time>2019-04-13T10:44:44Z</time>
      </trkpt>
      <trkpt lat="48.22829" lon="7.22597">
        <ele>748</ele>
        <time>2019-04-13T10:45:44Z</time>
      </trkpt>
      <trkpt lat="48.22823" lon="7.22612">
        <ele>747</ele>
        <time>2019-04-13T10:46:44Z</time>
      </trkpt>
      <trkpt lat="48.22815" lon="7.22624">
        <ele>746</ele>
        <time>2019-04-13T10:47:44Z</time>
      </trkpt>
      <trkpt lat="48.22804" lon="7.22628">
        <ele>747</ele>
        <time>2019-04-13T10:48:44Z</time>
      </trkpt>
      <trkpt lat="48.22794" lon="7.22626">
        <ele>749</ele>
        <time>2019-04-13T10:49:44Z</time>
      </trkpt>
      <trkpt lat="48.22765" lon="7.22615">
        <ele>755</ele>
        <time>2019-04-13T10:50:44Z</time>
      </trkpt>
      <trkpt lat="48.22746" lon="7.22614">
        <ele>758</ele>
        <time>2019-04-13T10:51:44Z</time>
      </trkpt>
      <trkpt lat="48.22729" lon="7.22621">
        <ele>759</ele>
        <time>2019-04-13T10:52:44Z</time>
      </trkpt>
      <trkpt lat="48.22713" lon="7.22632">
        <ele>760</ele>
        <time>2019-04-13T10:53:44Z</time>
      </trkpt>
      <trkpt lat="48.22701" lon="7.22659">
        <ele>759</ele>
        <time>2019-04-13T10:54:44Z</time>
      </trkpt>
      <trkpt lat="48.2268" lon="7.22743">
        <ele>757</ele>
        <time>2019-04-13T10:55:44Z</time>
      </trkpt>
      <trkpt lat="48.22669" lon="7.22779">
        <ele>757</ele>
        <time>2019-04-13T10:56:44Z</time>
      </trkpt>
      <trkpt lat="48.22663" lon="7.22809">
        <ele>756</ele>
        <time>2019-04-13T10:57:44Z</time>
      </trkpt>
      <trkpt lat="48.22659" lon="7.22806">
        <ele>758</ele>
        <time>2019-04-13T10:58:44Z</time>
      </trkpt>
      <trkpt lat="48.22655" lon="7.22809">
        <ele>759</ele>
        <time>2019-04-13T10:59:44Z</time>
      </trkpt>
      <trkpt lat="48.22611" lon="7.22924">
        <ele>767</ele>
        <time>2019-04-13T11:00:44Z</time>
      </trkpt>
      <trkpt lat="48.22608" lon="7.22941">
        <ele>768</ele>
        <time>2019-04-13T11:01:44Z</time>
      </trkpt>
      <trkpt lat="48.22603" lon="7.22976">
        <ele>768</ele>
        <time>2019-04-13T11:02:44Z</time>
      </trkpt>
      <trkpt lat="48.226" lon="7.23102">
        <ele>767</ele>
        <time>2019-04-13T11:03:44Z</time>
      </trkpt>
      <trkpt lat="48.22598" lon="7.23116">
        <ele>767</ele>
        <time>2019-04-13T11:04:44Z</time>
      </trkpt>
      <trkpt lat="48.22592" lon="7.23134">
        <ele>768</ele>
        <time>2019-04-13T11:05:44Z</time>
      </trkpt>
      <trkpt lat="48.22583" lon="7.23144">
        <ele>768</ele>
        <time>2019-04-13T11:06:44Z</time>
      </trkpt>
      <trkpt lat="48.22568" lon="7.23148">
        <ele>769</ele>
        <time>2019-04-13T11:07:44Z</time>
      </trkpt>
      <trkpt lat="48.22559" lon="7.23147">
        <ele>769</ele>
        <time>2019-04-13T11:08:44Z</time>
      </trkpt>
      <trkpt lat="48.22541" lon="7.23141">
        <ele>770</ele>
        <time>2019-04-13T11:09:44Z</time>
      </trkpt>
      <trkpt lat="48.22526" lon="7.23133">
        <ele>772</ele>
        <time>2019-04-13T11:10:44Z</time>
      </trkpt>
      <trkpt lat="48.2251" lon="7.23112">
        <ele>776</ele>
        <time>2019-04-13T11:11:44Z</time>
      </trkpt>
      <trkpt lat="48.22496" lon="7.23081">
        <ele>782</ele>
        <time>2019-04-13T11:12:44Z</time>
      </trkpt>
      <trkpt lat="48.22478" lon="7.23059">
        <ele>786</ele>
        <time>2019-04-13T11:13:44Z</time>
      </trkpt>
      <trkpt lat="48.224" lon="7.23042">
        <ele>791</ele>
        <time>2019-04-13T11:14:44Z</time>
      </trkpt>
      <trkpt lat="48.22326" lon="7.2302">
        <ele>793</ele>
        <time>2019-04-13T11:15:44Z</time>
      </trkpt>
      <trkpt lat="48.22263" lon="7.23016">
        <ele>800</ele>
        <time>2019-04-13T11:16:44Z</time>
      </trkpt>
      <trkpt lat="48.22216" lon="7.23024">
        <ele>802</ele>
        <time>2019-04-13T11:17:44Z</time>
      </trkpt>
      <trkpt lat="48.22177" lon="7.23034">
        <ele>803</ele>
        <time>2019-04-13T11:18:44Z</time>
      </trkpt>
      <trkpt lat="48.22158" lon="7.23034">
        <ele>802</ele>
        <time>2019-04-13T11:19:44Z</time>
      </trkpt>
      <trkpt lat="48.22136" lon="7.23021">
        <ele>801</ele>
        <time>2019-04-13T11:20:44Z</time>
      </trkpt>
      <trkpt lat="48.22125" lon="7.22998">
        <ele>803</ele>
        <time>2019-04-13T11:21:44Z</time>
      </trkpt>
      <trkpt lat="48.22111" lon="7.2295">
        <ele>804</ele>
        <time>2019-04-13T11:22:44Z</time>
      </trkpt>
      <trkpt lat="48.22097" lon="7.22879">
        <ele>806</ele>
        <time>2019-04-13T11:23:44Z</time>
      </trkpt>
      <trkpt lat="48.22097" lon="7.22799">
        <ele>808</ele>
        <time>2019-04-13T11:24:44Z</time>
      </trkpt>
      <trkpt lat="48.22099" lon="7.22756">
        <ele>809</ele>
        <time>2019-04-13T11:25:44Z</time>
      </trkpt>
      <trkpt lat="48.22106" lon="7.22718">
        <ele>807</ele>
        <time>2019-04-13T11:26:44Z</time>
      </trkpt>
      <trkpt lat="48.22127" lon="7.22681">
        <ele>809</ele>
        <time>2019-04-13T11:27:44Z</time>
      </trkpt>
      <trkpt lat="48.22152" lon="7.22657">
        <ele>815</ele>
        <time>2019-04-13T11:28:44Z</time>
      </trkpt>
      <trkpt lat="48.22217" lon="7.22607">
        <ele>822</ele>
        <time>2019-04-13T11:29:44Z</time>
      </trkpt>
      <trkpt lat="48.22246" lon="7.22579">
        <ele>825</ele>
        <time>2019-04-13T11:30:44Z</time>
      </trkpt>
      <trkpt lat="48.22274" lon="7.22535">
        <ele>828</ele>
        <time>2019-04-13T11:31:44Z</time>
      </trkpt>
      <trkpt lat="48.22313" lon="7.22463">
        <ele>832</ele>
        <time>2019-04-13T11:32:44Z</time>
      </trkpt>
      <trkpt lat="48.22341" lon="7.22396">
        <ele>838</ele>
        <time>2019-04-13T11:33:44Z</time>
      </trkpt>
      <trkpt lat="48.22348" lon="7.22367">
        <ele>840</ele>
        <time>2019-04-13T11:34:44Z</time>
      </trkpt>
      <trkpt lat="48.22348" lon="7.22346">
        <ele>840</ele>
        <time>2019-04-13T11:35:44Z</time>
      </trkpt>
      <trkpt lat="48.22332" lon="7.22259">
        <ele>841</ele>
        <time>2019-04-13T11:36:44Z</time>
      </trkpt>
      <trkpt lat="48.22313" lon="7.22184">
        <ele>843</ele>
        <time>2019-04-13T11:37:44Z</time>
      </trkpt>
      <trkpt lat="48.22288" lon="7.22097">
        <ele>846</ele>
        <time>2019-04-13T11:38:44Z</time>
      </trkpt>
      <trkpt lat="48.22281" lon="7.22033">
        <ele>847</ele>
        <time>2019-04-13T11:39:44Z</time>
      </trkpt>
      <trkpt lat="48.2228" lon="7.22">
        <ele>848</ele>
        <time>2019-04-13T11:40:44Z</time>
      </trkpt>
      <trkpt lat="48.22293" lon="7.21821">
        <ele>849</ele>
        <time>2019-04-13T11:41:44Z</time>
      </trkpt>
      <trkpt lat="48.22298" lon="7.21776">
        <ele>847</ele>
        <time>2019-04-13T11:42:44Z</time>
      </trkpt>
      <trkpt lat="48.22307" lon="7.21748">
        <ele>847</ele>
        <time>2019-04-13T11:43:44Z</time>
      </trkpt>
      <trkpt lat="48.22321" lon="7.21722">
        <ele>848</ele>
        <time>2019-04-13T11:44:44Z</time>
      </trkpt>
      <trkpt lat="48.22396" lon="7.21638">
        <ele>858</ele>
        <time>2019-04-13T11:45:44Z</time>
      </trkpt>
      <trkpt lat="48.22412" lon="7.2161">
        <ele>859</ele>
        <time>2019-04-13T11:46:44Z</time>
      </trkpt>
      <trkpt lat="48.22421" lon="7.21496">
        <ele>853</ele>
        <time>2019-04-13T11:47:44Z</time>
      </trkpt>
      <trkpt lat="48.22425" lon="7.21318">
        <ele>850</ele>
        <time>2019-04-13T11:48:44Z</time>
      </trkpt>
      <trkpt lat="48.22422" lon="7.21303">
        <ele>851</ele>
        <time>2019-04-13T11:49:44Z</time>
      </trkpt>
      <trkpt lat="48.22415" lon="7.21287">
        <ele>851</ele>
        <time>2019-04-13T11:50:44Z</time>
      </trkpt>
      <trkpt lat="48.22374" lon="7.21233">
        <ele>852</ele>
        <time>2019-04-13T11:51:44Z</time>
      </trkpt>
      <trkpt lat="48.22348" lon="7.21202">
        <ele>852</ele>
        <time>2019-04-13T11:52:44Z</time>
      </trkpt>
      <trkpt lat="48.22329" lon="7.21187">
        <ele>852</ele>
        <time>2019-04-13T11:53:44Z</time>
      </trkpt>
      <trkpt lat="48.2228" lon="7.21164">
        <ele>856</ele>
        <time>2019-04-13T11:54:44Z</time>
      </trkpt>
      <trkpt lat="48.22264" lon="7.21153">
        <ele>857</ele>
        <time>2019-04-13T11:55:44Z</time>
      </trkpt>
      <trkpt lat="48.22251" lon="7.21148">
        <ele>858</ele>
        <time>2019-04-13T11:56:44Z</time>
      </trkpt>
      <trkpt lat="48.22232" lon="7.21154">
        <ele>859</ele>
        <time>2019-04-13T11:57:44Z</time>
      </trkpt>
      <trkpt lat="48.22184" lon="7.21186">
        <ele>860</ele>
        <time>2019-04-13T11:58:44Z</time>
      </trkpt>
      <trkpt lat="48.2215" lon="7.21199">
        <ele>861</ele>
        <time>2019-04-13T11:59:44Z</time>
      </trkpt>
      <trkpt lat="48.22105" lon="7.21208">
        <ele>861</ele>
        <time>2019-04-13T12:00:44Z</time>
      </trkpt>
      <trkpt lat="48.22078" lon="7.21202">
        <ele>862</ele>
        <time>2019-04-13T12:01:44Z</time>
      </trkpt>
      <trkpt lat="48.22016" lon="7.21173">
        <ele>868</ele>
        <time>2019-04-13T12:02:44Z</time>
      </trkpt>
      <trkpt lat="48.21988" lon="7.21169">
        <ele>870</ele>
        <time>2019-04-13T12:03:44Z</time>
      </trkpt>
      <trkpt lat="48.21971" lon="7.21175">
        <ele>871</ele>
        <time>2019-04-13T12:04:44Z</time>
      </trkpt>
      <trkpt lat="48.21961" lon="7.21187">
        <ele>870</ele>
        <time>2019-04-13T12:05:44Z</time>
      </trkpt>
      <trkpt lat="48.21948" lon="7.21216">
        <ele>867</ele>
        <time>2019-04-13T12:06:44Z</time>
      </trkpt>
      <trkpt lat="48.21928" lon="7.21284">
        <ele>863</ele>
        <time>2019-04-13T12:07:44Z</time>
      </trkpt>
      <trkpt lat="48.21922" lon="7.21354">
        <ele>863</ele>
        <time>2019-04-13T12:08:44Z</time>
      </trkpt>
      <trkpt lat="48.21922" lon="7.21556">
        <ele>870</ele>
        <time>2019-04-13T12:09:44Z</time>
      </trkpt>
      <trkpt lat="48.21897" lon="7.21647">
        <ele>865</ele>
        <time>2019-04-13T12:10:44Z</time>
      </trkpt>
      <trkpt lat="48.21836" lon="7.21731">
        <ele>856</ele>
        <time>2019-04-13T12:11:44Z</time>
      </trkpt>
      <trkpt lat="48.21794" lon="7.21773">
        <ele>856</ele>
        <time>2019-04-13T12:12:44Z</time>
      </trkpt>
      <trkpt lat="48.21779" lon="7.21782">
        <ele>857</ele>
        <time>2019-04-13T12:13:44Z</time>
      </trkpt>
      <trkpt lat="48.21742" lon="7.21779">
        <ele>861</ele>
        <time>2019-04-13T12:14:44Z</time>
      </trkpt>
      <trkpt lat="48.21656" lon="7.21711">
        <ele>871</ele>
        <time>2019-04-13T12:15:44Z</time>
      </trkpt>
      <trkpt lat="48.21627" lon="7.21702">
        <ele>876</ele>
        <time>2019-04-13T12:16:44Z</time>
      </trkpt>
      <trkpt lat="48.216" lon="7.2172">
        <ele>874</ele>
        <time>2019-04-13T12:17:44Z</time>
      </trkpt>
      <trkpt lat="48.21538" lon="7.21797">
        <ele>874</ele>
        <time>2019-04-13T12:18:44Z</time>
      </trkpt>
      <trkpt lat="48.21462" lon="7.21928">
        <ele>868</ele>
        <time>2019-04-13T12:19:44Z</time>
      </trkpt>
      <trkpt lat="48.21412" lon="7.22002">
        <ele>864</ele>
        <time>2019-04-13T12:20:44Z</time>
      </trkpt>
      <trkpt lat="48.21363" lon="7.2208">
        <ele>855</ele>
        <time>2019-04-13T12:21:44Z</time>
      </trkpt>
      <trkpt lat="48.21331" lon="7.22125">
        <ele>851</ele>
        <time>2019-04-13T12:22:44Z</time>
      </trkpt>
      <trkpt lat="48.21317" lon="7.2213">
        <ele>850</ele>
        <time>2019-04-13T12:23:44Z</time>
      </trkpt>
      <trkpt lat="48.21303" lon="7.22124">
        <ele>850</ele>
        <time>2019-04-13T12:24:44Z</time>
      </trkpt>
      <trkpt lat="48.21291" lon="7.22107">
        <ele>848</ele>
        <time>2019-04-13T12:25:44Z</time>
      </trkpt>
      <trkpt lat="48.21171" lon="7.21892">
        <ele>829</ele>
        <time>2019-04-13T12:26:44Z</time>
      </trkpt>
      <trkpt lat="48.21159" lon="7.21862">
        <ele>827</ele>
        <time>2019-04-13T12:27:44Z</time>
      </trkpt>
      <trkpt lat="48.21107" lon="7.21673">
        <ele>820</ele>
        <time>2019-04-13T12:28:44Z</time>
      </trkpt>
      <trkpt lat="48.21098" lon="7.21631">
        <ele>816</ele>
        <time>2019-04-13T12:29:44Z</time>
      </trkpt>
      <trkpt lat="48.21087" lon="7.21504">
        <ele>811</ele>
        <time>2019-04-13T12:30:44Z</time>
      </trkpt>
      <trkpt lat="48.21082" lon="7.21471">
        <ele>812</ele>
        <time>2019-04-13T12:31:44Z</time>
      </trkpt>
      <trkpt lat="48.21059" lon="7.21416">
        <ele>814</ele>
        <time>2019-04-13T12:32:44Z</time>
      </trkpt>
      <trkpt lat="48.21051" lon="7.214">
        <ele>815</ele>
        <time>2019-04-13T12:33:44Z</time>
      </trkpt>
      <trkpt lat="48.21037" lon="7.21398">
        <ele>814</ele>
        <time>2019-04-13T12:34:44Z</time>
      </trkpt>
      <trkpt lat="48.21026" lon="7.21409">
        <ele>812</ele>
        <time>2019-04-13T12:35:44Z</time>
      </trkpt>
      <trkpt lat="48.21019" lon="7.2143">
        <ele>810</ele>
        <time>2019-04-13T12:36:44Z</time>
      </trkpt>
      <trkpt lat="48.2099" lon="7.21571">
        <ele>803</ele>
        <time>2019-04-13T12:37:44Z</time>
      </trkpt>
      <trkpt lat="48.20978" lon="7.21604">
        <ele>803</ele>
        <time>2019-04-13T12:38:44Z</time>
      </trkpt>
      <trkpt lat="48.20857" lon="7.21844">
        <ele>799</ele>
        <time>2019-04-13T12:39:44Z</time>
      </trkpt>
      <trkpt lat="48.20809" lon="7.21884">
        <ele>798</ele>
        <time>2019-04-13T12:40:44Z</time>
      </trkpt>
      <trkpt lat="48.20763" lon="7.21916">
        <ele>794</ele>
        <time>2019-04-13T12:41:44Z</time>
      </trkpt>
      <trkpt lat="48.20685" lon="7.21895">
        <ele>790</ele>
        <time>2019-04-13T12:42:44Z</time>
      </trkpt>
      <trkpt lat="48.20621" lon="7.21861">
        <ele>790</ele>
        <time>2019-04-13T12:43:44Z</time>
      </trkpt>
      <trkpt lat="48.20569" lon="7.21873">
        <ele>781</ele>
        <time>2019-04-13T12:44:44Z</time>
      </trkpt>
      <trkpt lat="48.20553" lon="7.21872">
        <ele>780</ele>
        <time>2019-04-13T12:45:44Z</time>
      </trkpt>
      <trkpt lat="48.20506" lon="7.21847">
        <ele>782</ele>
        <time>2019-04-13T12:46:44Z</time>
      </trkpt>
      <trkpt lat="48.20485" lon="7.21848">
        <ele>782</ele>
        <time>2019-04-13T12:47:44Z</time>
      </trkpt>
      <trkpt lat="48.20377" lon="7.21882">
        <ele>783</ele>
        <time>2019-04-13T12:48:44Z</time>
      </trkpt>
      <trkpt lat="48.20346" lon="7.21888">
        <ele>785</ele>
        <time>2019-04-13T12:49:44Z</time>
      </trkpt>
      <trkpt lat="48.20318" lon="7.21886">
        <ele>787</ele>
        <time>2019-04-13T12:50:44Z</time>
      </trkpt>
      <trkpt lat="48.20285" lon="7.2188">
        <ele>789</ele>
        <time>2019-04-13T12:51:44Z</time>
      </trkpt>
      <trkpt lat="48.202" lon="7.21855">
        <ele>794</ele>
        <time>2019-04-13T12:52:44Z</time>
      </trkpt>
      <trkpt lat="48.20136" lon="7.21822">
        <ele>798</ele>
        <time>2019-04-13T12:53:44Z</time>
      </trkpt>
      <trkpt lat="48.20096" lon="7.21793">
        <ele>800</ele>
        <time>2019-04-13T12:54:44Z</time>
      </trkpt>
      <trkpt lat="48.20083" lon="7.21791">
        <ele>800</ele>
        <time>2019-04-13T12:55:44Z</time>
      </trkpt>
      <trkpt lat="48.20028" lon="7.21801">
        <ele>801</ele>
        <time>2019-04-13T12:56:44Z</time>
      </trkpt>
      <trkpt lat="48.2" lon="7.21817">
        <ele>800</ele>
        <time>2019-04-13T12:57:44Z</time>
      </trkpt>
      <trkpt lat="48.19977" lon="7.2184">
        <ele>797</ele>
        <time>2019-04-13T12:58:44Z</time>
      </trkpt>
      <trkpt lat="48.19952" lon="7.21876">
        <ele>794</ele>
        <time>2019-04-13T12:59:44Z</time>
      </trkpt>
      <trkpt lat="48.19932" lon="7.21919">
        <ele>791</ele>
        <time>2019-04-13T13:00:44Z</time>
      </trkpt>
      <trkpt lat="48.19918" lon="7.21944">
        <ele>789</ele>
        <time>2019-04-13T13:01:44Z</time>
      </trkpt>
      <trkpt lat="48.19874" lon="7.21984">
        <ele>790</ele>
        <time>2019-04-13T13:02:44Z</time>
      </trkpt>
      <trkpt lat="48.19832" lon="7.22031">
        <ele>793</ele>
        <time>2019-04-13T13:03:44Z</time>
      </trkpt>
      <trkpt lat="48.19817" lon="7.22057">
        <ele>794</ele>
        <time>2019-04-13T13:04:44Z</time>
      </trkpt>
      <trkpt lat="48.19802" lon="7.221">
        <ele>794</ele>
        <time>2019-04-13T13:05:44Z</time>
      </trkpt>
      <trkpt lat="48.19787" lon="7.22125">
        <ele>795</ele>
        <time>2019-04-13T13:06:44Z</time>
      </trkpt>
      <trkpt lat="48.19761" lon="7.22144">
        <ele>798</ele>
        <time>2019-04-13T13:07:44Z</time>
      </trkpt>
      <trkpt lat="48.19751" lon="7.22149">
        <ele>799</ele>
        <time>2019-04-13T13:08:44Z</time>
      </trkpt>
      <trkpt lat="48.19748" lon="7.22145">
        <ele>799</ele>
        <time>2019-04-13T13:09:44Z</time>
      </trkpt>
      <trkpt lat="48.19745" lon="7.22144">
        <ele>799</ele>
        <time>2019-04-13T13:10:44Z</time>
      </trkpt>
      <trkpt lat="48.19742" lon="7.22147">
        <ele>799</ele>
        <time>2019-04-13T13:11:44Z</time>
      </trkpt>
      <trkpt lat="48.19733" lon="7.22135">
        <ele>800</ele>
        <time>2019-04-13T13:12:44Z</time>
      </trkpt>
      <trkpt lat="48.19695" lon="7.221">
        <ele>803</ele>
        <time>2019-04-13T13:13:44Z</time>
      </trkpt>
      <trkpt lat="48.19637" lon="7.2202">
        <ele>807</ele>
        <time>2019-04-13T13:14:44Z</time>
      </trkpt>
      <trkpt lat="48.1961" lon="7.22001">
        <ele>809</ele>
        <time>2019-04-13T13:15:44Z</time>
      </trkpt>
      <trkpt lat="48.19575" lon="7.21966">
        <ele>809</ele>
        <time>2019-04-13T13:16:44Z</time>
      </trkpt>
      <trkpt lat="48.19491" lon="7.21866">
        <ele>810</ele>
        <time>2019-04-13T13:17:44Z</time>
      </trkpt>
      <trkpt lat="48.19384" lon="7.21734">
        <ele>822</ele>
        <time>2019-04-13T13:18:44Z</time>
      </trkpt>
      <trkpt lat="48.19368" lon="7.21705">
        <ele>826</ele>
        <time>2019-04-13T13:19:44Z</time>
      </trkpt>
      <trkpt lat="48.19305" lon="7.21553">
        <ele>837</ele>
        <time>2019-04-13T13:20:44Z</time>
      </trkpt>
      <trkpt lat="48.19297" lon="7.21535">
        <ele>837</ele>
        <time>2019-04-13T13:21:44Z</time>
      </trkpt>
      <trkpt lat="48.19287" lon="7.21521">
        <ele>837</ele>
        <time>2019-04-13T13:22:44Z</time>
      </trkpt>
      <trkpt lat="48.19265" lon="7.21498">
        <ele>836</ele>
        <time>2019-04-13T13:23:44Z</time>
      </trkpt>
      <trkpt lat="48.19231" lon="7.21448">
        <ele>828</ele>
        <time>2019-04-13T13:24:44Z</time>
      </trkpt>
      <trkpt lat="48.19213" lon="7.21432">
        <ele>826</ele>
        <time>2019-04-13T13:25:44Z</time>
      </trkpt>
      <trkpt lat="48.19185" lon="7.21422">
        <ele>824</ele>
        <time>2019-04-13T13:26:44Z</time>
      </trkpt>
      <trkpt lat="48.19137" lon="7.21433">
        <ele>824</ele>
        <time>2019-04-13T13:27:44Z</time>
      </trkpt>
      <trkpt lat="48.19111" lon="7.21445">
        <ele>824</ele>
        <time>2019-04-13T13:28:44Z</time>
      </trkpt>
      <trkpt lat="48.1908" lon="7.21454">
        <ele>824</ele>
        <time>2019-04-13T13:29:44Z</time>
      </trkpt>
      <trkpt lat="48.19032" lon="7.21453">
        <ele>827</ele>
        <time>2019-04-13T13:30:44Z</time>
      </trkpt>
      <trkpt lat="48.1898" lon="7.21416">
        <ele>827</ele>
        <time>2019-04-13T13:31:44Z</time>
      </trkpt>
      <trkpt lat="48.18913" lon="7.21289">
        <ele>813</ele>
        <time>2019-04-13T13:32:44Z</time>
      </trkpt>
      <trkpt lat="48.1883" lon="7.21169">
        <ele>806</ele>
        <time>2019-04-13T13:33:44Z</time>
      </trkpt>
      <trkpt lat="48.18796" lon="7.21109">
        <ele>797</ele>
        <time>2019-04-13T13:34:44Z</time>
      </trkpt>
      <trkpt lat="48.18771" lon="7.21085">
        <ele>795</ele>
        <time>2019-04-13T13:35:44Z</time>
      </trkpt>
      <trkpt lat="48.18756" lon="7.21079">
        <ele>796</ele>
        <time>2019-04-13T13:36:44Z</time>
      </trkpt>
      <trkpt lat="48.18736" lon="7.21079">
        <ele>796</ele>
        <time>2019-04-13T13:37:44Z</time>
      </trkpt>
      <trkpt lat="48.18653" lon="7.21091">
        <ele>791</ele>
        <time>2019-04-13T13:38:44Z</time>
      </trkpt>
      <trkpt lat="48.18621" lon="7.21085">
        <ele>782</ele>
        <time>2019-04-13T13:39:44Z</time>
      </trkpt>
      <trkpt lat="48.18613" lon="7.21088">
        <ele>781</ele>
        <time>2019-04-13T13:40:44Z</time>
      </trkpt>
      <trkpt lat="48.18606" lon="7.21095">
        <ele>781</ele>
        <time>2019-04-13T13:41:44Z</time>
      </trkpt>
      <trkpt lat="48.18593" lon="7.21127">
        <ele>785</ele>
        <time>2019-04-13T13:42:44Z</time>
      </trkpt>
      <trkpt lat="48.18576" lon="7.21149">
        <ele>786</ele>
        <time>2019-04-13T13:43:44Z</time>
      </trkpt>
      <trkpt lat="48.18559" lon="7.21162">
        <ele>787</ele>
        <time>2019-04-13T13:44:44Z</time>
      </trkpt>
      <trkpt lat="48.18544" lon="7.21164">
        <ele>786</ele>
        <time>2019-04-13T13:45:44Z</time>
      </trkpt>
      <trkpt lat="48.18456" lon="7.21146">
        <ele>778</ele>
        <time>2019-04-13T13:46:44Z</time>
      </trkpt>
      <trkpt lat="48.1843" lon="7.21148">
        <ele>779</ele>
        <time>2019-04-13T13:47:44Z</time>
      </trkpt>
      <trkpt lat="48.18387" lon="7.21143">
        <ele>776</ele>
        <time>2019-04-13T13:48:44Z</time>
      </trkpt>
      <trkpt lat="48.18325" lon="7.2114">
        <ele>773</ele>
        <time>2019-04-13T13:49:44Z</time>
      </trkpt>
      <trkpt lat="48.18239" lon="7.21142">
        <ele>770</ele>
        <time>2019-04-13T13:50:44Z</time>
      </trkpt>
      <trkpt lat="48.18221" lon="7.21146">
        <ele>768</ele>
        <time>2019-04-13T13:51:44Z</time>
      </trkpt>
      <trkpt lat="48.18204" lon="7.21152">
        <ele>767</ele>
        <time>2019-04-13T13:52:44Z</time>
      </trkpt>
      <trkpt lat="48.18154" lon="7.21174">
        <ele>767</ele>
        <time>2019-04-13T13:53:44Z</time>
      </trkpt>
      <trkpt lat="48.1814" lon="7.21175">
        <ele>768</ele>
        <time>2019-04-13T13:54:44Z</time>
      </trkpt>
      <trkpt lat="48.18128" lon="7.21173">
        <ele>767</ele>
        <time>2019-04-13T13:55:44Z</time>
      </trkpt>
      <trkpt lat="48.1811" lon="7.21163">
        <ele>765</ele>
        <time>2019-04-13T13:56:44Z</time>
      </trkpt>
      <trkpt lat="48.18085" lon="7.2114">
        <ele>758</ele>
        <time>2019-04-13T13:57:44Z</time>
      </trkpt>
      <trkpt lat="48.18045" lon="7.21077">
        <ele>751</ele>
        <time>2019-04-13T13:58:44Z</time>
      </trkpt>
      <trkpt lat="48.18021" lon="7.21046">
        <ele>751</ele>
        <time>2019-04-13T13:59:44Z</time>
      </trkpt>
      <trkpt lat="48.17946" lon="7.2096">
        <ele>748</ele>
        <time>2019-04-13T14:00:44Z</time>
      </trkpt>
      <trkpt lat="48.17868" lon="7.20903">
        <ele>744</ele>
        <time>2019-04-13T14:01:44Z</time>
      </trkpt>
      <trkpt lat="48.17813" lon="7.20871">
        <ele>741</ele>
        <time>2019-04-13T14:02:44Z</time>
      </trkpt>
      <trkpt lat="48.17775" lon="7.20845">
        <ele>738</ele>
        <time>2019-04-13T14:03:44Z</time>
      </trkpt>
      <trkpt lat="48.17756" lon="7.20829">
        <ele>736</ele>
        <time>2019-04-13T14:04:44Z</time>
      </trkpt>
      <trkpt lat="48.17747" lon="7.20819">
        <ele>734</ele>
        <time>2019-04-13T14:05:44Z</time>
      </trkpt>
      <trkpt lat="48.17745" lon="7.20812">
        <ele>732</ele>
        <time>2019-04-13T14:06:44Z</time>
      </trkpt>
      <trkpt lat="48.17747" lon="7.208">
        <ele>729</ele>
        <time>2019-04-13T14:07:44Z</time>
      </trkpt>
      <trkpt lat="48.17739" lon="7.20797">
        <ele>727</ele>
        <time>2019-04-13T14:08:44Z</time>
      </trkpt>
      <trkpt lat="48.17727" lon="7.20801">
        <ele>727</ele>
        <time>2019-04-13T14:09:44Z</time>
      </trkpt>
      <trkpt lat="48.1771" lon="7.20819">
        <ele>731</ele>
        <time>2019-04-13T14:10:44Z</time>
      </trkpt>
      <trkpt lat="48.17678" lon="7.20849">
        <ele>737</ele>
        <time>2019-04-13T14:11:44Z</time>
      </trkpt>
      <trkpt lat="48.17638" lon="7.20862">
        <ele>736</ele>
        <time>2019-04-13T14:12:44Z</time>
      </trkpt>
      <trkpt lat="48.17534" lon="7.20857">
        <ele>720</ele>
        <time>2019-04-13T14:13:44Z</time>
      </trkpt>
      <trkpt lat="48.17494" lon="7.20839">
        <ele>711</ele>
        <time>2019-04-13T14:14:44Z</time>
      </trkpt>
      <trkpt lat="48.17408" lon="7.20774">
        <ele>691</ele>
        <time>2019-04-13T14:15:44Z</time>
      </trkpt>
      <trkpt lat="48.17386" lon="7.20782">
        <ele>688</ele>
        <time>2019-04-13T14:16:44Z</time>
      </trkpt>
      <trkpt lat="48.17366" lon="7.20795">
        <ele>687</ele>
        <time>2019-04-13T14:17:44Z</time>
      </trkpt>
      <trkpt lat="48.1734" lon="7.20819">
        <ele>686</ele>
        <time>2019-04-13T14:18:44Z</time>
      </trkpt>
      <trkpt lat="48.17315" lon="7.2085">
        <ele>689</ele>
        <time>2019-04-13T14:19:44Z</time>
      </trkpt>
      <trkpt lat="48.17306" lon="7.20866">
        <ele>692</ele>
        <time>2019-04-13T14:20:44Z</time>
      </trkpt>
      <trkpt lat="48.17293" lon="7.20877">
        <ele>693</ele>
        <time>2019-04-13T14:21:44Z</time>
      </trkpt>
      <trkpt lat="48.17276" lon="7.20884">
        <ele>693</ele>
        <time>2019-04-13T14:22:44Z</time>
      </trkpt>
      <trkpt lat="48.17256" lon="7.20879">
        <ele>690</ele>
        <time>2019-04-13T14:23:44Z</time>
      </trkpt>
      <trkpt lat="48.1723" lon="7.20863">
        <ele>687</ele>
        <time>2019-04-13T14:24:44Z</time>
      </trkpt>
      <trkpt lat="48.17203" lon="7.20819">
        <ele>679</ele>
        <time>2019-04-13T14:25:44Z</time>
      </trkpt>
      <trkpt lat="48.17179" lon="7.20796">
        <ele>676</ele>
        <time>2019-04-13T14:26:44Z</time>
      </trkpt>
      <trkpt lat="48.17178" lon="7.20791">
        <ele>675</ele>
        <time>2019-04-13T14:27:44Z</time>
      </trkpt>
      <trkpt lat="48.17168" lon="7.20792">
        <ele>676</ele>
        <time>2019-04-13T14:28:44Z</time>
      </trkpt>
      <trkpt lat="48.17142" lon="7.20803">
        <ele>678</ele>
        <time>2019-04-13T14:29:44Z</time>
      </trkpt>
      <trkpt lat="48.17111" lon="7.20797">
        <ele>675</ele>
        <time>2019-04-13T14:30:44Z</time>
      </trkpt>
      <trkpt lat="48.17061" lon="7.20775">
        <ele>668</ele>
        <time>2019-04-13T14:31:44Z</time>
      </trkpt>
      <trkpt lat="48.17003" lon="7.2078">
        <ele>663</ele>
        <time>2019-04-13T14:32:44Z</time>
      </trkpt>
      <trkpt lat="48.1697" lon="7.20794">
        <ele>660</ele>
        <time>2019-04-13T14:33:44Z</time>
      </trkpt>
      <trkpt lat="48.1694" lon="7.20814">
        <ele>658</ele>
        <time>2019-04-13T14:34:44Z</time>
      </trkpt>
      <trkpt lat="48.16931" lon="7.20827">
        <ele>658</ele>
        <time>2019-04-13T14:35:44Z</time>
      </trkpt>
      <trkpt lat="48.16911" lon="7.20884">
        <ele>658</ele>
        <time>2019-04-13T14:36:44Z</time>
      </trkpt>
      <trkpt lat="48.1689" lon="7.20923">
        <ele>657</ele>
        <time>2019-04-13T14:37:44Z</time>
      </trkpt>
      <trkpt lat="48.16858" lon="7.20971">
        <ele>659</ele>
        <time>2019-04-13T14:38:44Z</time>
      </trkpt>
      <trkpt lat="48.16829" lon="7.20988">
        <ele>658</ele>
        <time>2019-04-13T14:39:44Z</time>
      </trkpt>
      <trkpt lat="48.1679" lon="7.2099">
        <ele>657</ele>
        <time>2019-04-13T14:40:44Z</time>
      </trkpt>
      <trkpt lat="48.16783" lon="7.20988">
        <ele>656</ele>
        <time>2019-04-13T14:41:44Z</time>
      </trkpt>
      <trkpt lat="48.16788" lon="7.20979">
        <ele>654</ele>
        <time>2019-04-13T14:42:44Z</time>
      </trkpt>
      <trkpt lat="48.16819" lon="7.20961">
        <ele>652</ele>
        <time>2019-04-13T14:43:44Z</time>
      </trkpt>
      <trkpt lat="48.16837" lon="7.20928">
        <ele>648</ele>
        <time>2019-04-13T14:44:44Z</time>
      </trkpt>
      <trkpt lat="48.16843" lon="7.20906">
        <ele>645</ele>
        <time>2019-04-13T14:45:44Z</time>
      </trkpt>
      <trkpt lat="48.16847" lon="7.20834">
        <ele>634</ele>
        <time>2019-04-13T14:46:44Z</time>
      </trkpt>
      <trkpt lat="48.16846" lon="7.20786">
        <ele>631</ele>
        <time>2019-04-13T14:47:44Z</time>
      </trkpt>
      <trkpt lat="48.16851" lon="7.20738">
        <ele>628</ele>
        <time>2019-04-13T14:48:44Z</time>
      </trkpt>
      <trkpt lat="48.16862" lon="7.20682">
        <ele>625</ele>
        <time>2019-04-13T14:49:44Z</time>
      </trkpt>
      <trkpt lat="48.16876" lon="7.20652">
        <ele>624</ele>
        <time>2019-04-13T14:50:44Z</time>
      </trkpt>
      <trkpt lat="48.16883" lon="7.20613">
        <ele>620</ele>
        <time>2019-04-13T14:51:44Z</time>
      </trkpt>
      <trkpt lat="48.16883" lon="7.20597">
        <ele>618</ele>
        <time>2019-04-13T14:52:44Z</time>
      </trkpt>
      <trkpt lat="48.16877" lon="7.20553">
        <ele>612</ele>
        <time>2019-04-13T14:53:44Z</time>
      </trkpt>
      <trkpt lat="48.16884" lon="7.20542">
        <ele>611</ele>
        <time>2019-04-13T14:54:44Z</time>
      </trkpt>
      <trkpt lat="48.16921" lon="7.20531">
        <ele>612</ele>
        <time>2019-04-13T14:55:44Z</time>
      </trkpt>
      <trkpt lat="48.16939" lon="7.20521">
        <ele>611</ele>
        <time>2019-04-13T14:56:44Z</time>
      </trkpt>
      <trkpt lat="48.16953" lon="7.20504">
        <ele>610</ele>
        <time>2019-04-13T14:57:44Z</time>
      </trkpt>
      <trkpt lat="48.16963" lon="7.20476">
        <ele>606</ele>
        <time>2019-04-13T14:58:44Z</time>
      </trkpt>
      <trkpt lat="48.16968" lon="7.20436">
        <ele>600</ele>
        <time>2019-04-13T14:59:44Z</time>
      </trkpt>
      <trkpt lat="48.16968" lon="7.20394">
        <ele>594</ele>
        <time>2019-04-13T15:00:44Z</time>
      </trkpt>
      <trkpt lat="48.16971" lon="7.20357">
        <ele>589</ele>
        <time>2019-04-13T15:01:44Z</time>
      </trkpt>
      <trkpt lat="48.16982" lon="7.20301">
        <ele>582</ele>
        <time>2019-04-13T15:02:44Z</time>
      </trkpt>
      <trkpt lat="48.16995" lon="7.20268">
        <ele>578</ele>
        <time>2019-04-13T15:03:44Z</time>
      </trkpt>
      <trkpt lat="48.1701" lon="7.20257">
        <ele>574</ele>
        <time>2019-04-13T15:04:44Z</time>
      </trkpt>
      <trkpt lat="48.17038" lon="7.20263">
        <ele>570</ele>
        <time>2019-04-13T15:05:44Z</time>
      </trkpt>
      <trkpt lat="48.17073" lon="7.20284">
        <ele>569</ele>
        <time>2019-04-13T15:06:44Z</time>
      </trkpt>
      <trkpt lat="48.17092" lon="7.20284">
        <ele>566</ele>
        <time>2019-04-13T15:07:44Z</time>
      </trkpt>
      <trkpt lat="48.17106" lon="7.20278">
        <ele>562</ele>
        <time>2019-04-13T15:08:44Z</time>
      </trkpt>
      <trkpt lat="48.17128" lon="7.2028">
        <ele>559</ele>
        <time>2019-04-13T15:09:44Z</time>
      </trkpt>
      <trkpt lat="48.17139" lon="7.20284">
        <ele>558</ele>
        <time>2019-04-13T15:10:44Z</time>
      </trkpt>
      <trkpt lat="48.1716" lon="7.20305">
        <ele>559</ele>
        <time>2019-04-13T15:11:44Z</time>
      </trkpt>
      <trkpt lat="48.17169" lon="7.20306">
        <ele>558</ele>
        <time>2019-04-13T15:12:44Z</time>
      </trkpt>
      <trkpt lat="48.17178" lon="7.203">
        <ele>558</ele>
        <time>2019-04-13T15:13:44Z</time>
      </trkpt>
      <trkpt lat="48.17198" lon="7.20247">
        <ele>552</ele>
        <time>2019-04-13T15:14:44Z</time>
      </trkpt>
      <trkpt lat="48.172" lon="7.20218">
        <ele>547</ele>
        <time>2019-04-13T15:15:44Z</time>
      </trkpt>
      <trkpt lat="48.17197" lon="7.2019">
        <ele>540</ele>
        <time>2019-04-13T15:16:44Z</time>
      </trkpt>
      <trkpt lat="48.17198" lon="7.20167">
        <ele>536</ele>
        <time>2019-04-13T15:17:44Z</time>
      </trkpt>
      <trkpt lat="48.17209" lon="7.20122">
        <ele>527</ele>
        <time>2019-04-13T15:18:44Z</time>
      </trkpt>
      <trkpt lat="48.1723" lon="7.20092">
        <ele>523</ele>
        <time>2019-04-13T15:19:44Z</time>
      </trkpt>
      <trkpt lat="48.1724" lon="7.20083">
        <ele>522</ele>
        <time>2019-04-13T15:20:44Z</time>
      </trkpt>
      <trkpt lat="48.17255" lon="7.20082">
        <ele>523</ele>
        <time>2019-04-13T15:21:44Z</time>
      </trkpt>
      <trkpt lat="48.17306" lon="7.20101">
        <ele>527</ele>
        <time>2019-04-13T15:22:44Z</time>
      </trkpt>
      <trkpt lat="48.17317" lon="7.2011">
        <ele>529</ele>
        <time>2019-04-13T15:23:44Z</time>
      </trkpt>
      <trkpt lat="48.17322" lon="7.20105">
        <ele>528</ele>
        <time>2019-04-13T15:24:44Z</time>
      </trkpt>
      <trkpt lat="48.17319" lon="7.20097">
        <ele>526</ele>
        <time>2019-04-13T15:25:44Z</time>
      </trkpt>
      <trkpt lat="48.17297" lon="7.20073">
        <ele>520</ele>
        <time>2019-04-13T15:26:44Z</time>
      </trkpt>
      <trkpt lat="48.17279" lon="7.20042">
        <ele>511</ele>
        <time>2019-04-13T15:27:44Z</time>
      </trkpt>
      <trkpt lat="48.17257" lon="7.20028">
        <ele>504</ele>
        <time>2019-04-13T15:28:44Z</time>
      </trkpt>
      <trkpt lat="48.17234" lon="7.20026">
        <ele>500</ele>
        <time>2019-04-13T15:29:44Z</time>
      </trkpt>
      <trkpt lat="48.17198" lon="7.20033">
        <ele>499</ele>
        <time>2019-04-13T15:30:44Z</time>
      </trkpt>
      <trkpt lat="48.17159" lon="7.20051">
        <ele>502</ele>
        <time>2019-04-13T15:31:44Z</time>
      </trkpt>
      <trkpt lat="48.17136" lon="7.2007">
        <ele>509</ele>
        <time>2019-04-13T15:32:44Z</time>
      </trkpt>
      <trkpt lat="48.17128" lon="7.20067">
        <ele>509</ele>
        <time>2019-04-13T15:33:44Z</time>
      </trkpt>
      <trkpt lat="48.17123" lon="7.20059">
        <ele>508</ele>
        <time>2019-04-13T15:34:44Z</time>
      </trkpt>
      <trkpt lat="48.17119" lon="7.20026">
        <ele>502</ele>
        <time>2019-04-13T15:35:44Z</time>
      </trkpt>
      <trkpt lat="48.17123" lon="7.20006">
        <ele>498</ele>
        <time>2019-04-13T15:36:44Z</time>
      </trkpt>
      <trkpt lat="48.17128" lon="7.1999">
        <ele>493</ele>
        <time>2019-04-13T15:37:44Z</time>
      </trkpt>
      <trkpt lat="48.17156" lon="7.19911">
        <ele>470</ele>
        <time>2019-04-13T15:38:44Z</time>
      </trkpt>
      <trkpt lat="48.17155" lon="7.19899">
        <ele>468</ele>
        <time>2019-04-13T15:39:44Z</time>
      </trkpt>
      <trkpt lat="48.17152" lon="7.19887">
        <ele>467</ele>
        <time>2019-04-13T15:40:44Z</time>
      </trkpt>
      <trkpt lat="48.17141" lon="7.19864">
        <ele>465</ele>
        <time>2019-04-13T15:41:44Z</time>
      </trkpt>
      <trkpt lat="48.17101" lon="7.19813">
        <ele>459</ele>
        <time>2019-04-13T15:42:44Z</time>
      </trkpt>
      <trkpt lat="48.17081" lon="7.19781">
        <ele>453</ele>
        <time>2019-04-13T15:43:44Z</time>
      </trkpt>
      <trkpt lat="48.17074" lon="7.19768">
        <ele>451</ele>
        <time>2019-04-13T15:44:44Z</time>
      </trkpt>
      <trkpt lat="48.17071" lon="7.19753">
        <ele>448</ele>
        <time>2019-04-13T15:45:44Z</time>
      </trkpt>
      <trkpt lat="48.17065" lon="7.19741">
        <ele>447</ele>
        <time>2019-04-13T15:46:44Z</time>
      </trkpt>
      <trkpt lat="48.17042" lon="7.19711">
        <ele>442</ele>
        <time>2019-04-13T15:47:44Z</time>
      </trkpt>
      <trkpt lat="48.17015" lon="7.19689">
        <ele>437</ele>
        <time>2019-04-13T15:48:44Z</time>
      </trkpt>
      <trkpt lat="48.16995" lon="7.19675">
        <ele>433</ele>
        <time>2019-04-13T15:49:44Z</time>
      </trkpt>
      <trkpt lat="48.16985" lon="7.19665">
        <ele>430</ele>
        <time>2019-04-13T15:50:44Z</time>
      </trkpt>
      <trkpt lat="48.16977" lon="7.19653">
        <ele>428</ele>
        <time>2019-04-13T15:51:44Z</time>
      </trkpt>
      <trkpt lat="48.1697" lon="7.19626">
        <ele>425</ele>
        <time>2019-04-13T15:52:44Z</time>
      </trkpt>
      <trkpt lat="48.16969" lon="7.19606">
        <ele>422</ele>
        <time>2019-04-13T15:53:44Z</time>
      </trkpt>
      <trkpt lat="48.16964" lon="7.19591">
        <ele>420</ele>
        <time>2019-04-13T15:54:44Z</time>
      </trkpt>
      <trkpt lat="48.16924" lon="7.19543">
        <ele>416</ele>
        <time>2019-04-13T15:55:44Z</time>
      </trkpt>
      <trkpt lat="48.16897" lon="7.195">
        <ele>415</ele>
        <time>2019-04-13T15:56:44Z</time>
      </trkpt>
      <trkpt lat="48.16883" lon="7.19514">
        <ele>415</ele>
        <time>2019-04-13T15:57:44Z</time>
      </trkpt>
      <trkpt lat="48.16869" lon="7.19525">
        <ele>415</ele>
        <time>2019-04-13T15:58:44Z</time>
      </trkpt>
      <trkpt lat="48.16838" lon="7.19541">
        <ele>414</ele>
        <time>2019-04-13T15:59:44Z</time>
      </trkpt>
      <trkpt lat="48.1682" lon="7.19555">
        <ele>414</ele>
        <time>2019-04-13T16:00:44Z</time>
      </trkpt>
      <trkpt lat="48.16713" lon="7.19665">
        <ele>406</ele>
        <time>2019-04-13T16:01:44Z</time>
      </trkpt>
      <trkpt lat="48.16683" lon="7.19703">
        <ele>409</ele>
        <time>2019-04-13T16:02:44Z</time>
      </trkpt>
      <trkpt lat="48.16664" lon="7.19719">
        <ele>410</ele>
        <time>2019-04-13T16:03:44Z</time>
      </trkpt>
      <trkpt lat="48.16515" lon="7.19803">
        <ele>407</ele>
        <time>2019-04-13T16:04:44Z</time>
      </trkpt>
      <trkpt lat="48.16514" lon="7.19812">
        <ele>408</ele>
        <time>2019-04-13T16:05:44Z</time>
      </trkpt>
      <trkpt lat="48.16469" lon="7.19859">
        <ele>412</ele>
        <time>2019-04-13T16:06:44Z</time>
      </trkpt>
      <trkpt lat="48.16514" lon="7.19812">
        <ele>408</ele>
        <time>2019-04-13T16:07:44Z</time>
      </trkpt>
      <trkpt lat="48.16515" lon="7.19803">
        <ele>407</ele>
        <time>2019-04-13T16:08:44Z</time>
      </trkpt>
      <trkpt lat="48.16477" lon="7.19826">
        <ele>405</ele>
        <time>2019-04-13T16:09:44Z</time>
      </trkpt>
      <trkpt lat="48.16383" lon="7.19873">
        <ele>405</ele>
        <time>2019-04-13T16:10:44Z</time>
      </trkpt>
      <trkpt lat="48.16362" lon="7.19878">
        <ele>404</ele>
        <time>2019-04-13T16:11:44Z</time>
      </trkpt>
      <trkpt lat="48.16265" lon="7.19885">
        <ele>395</ele>
        <time>2019-04-13T16:12:44Z</time>
      </trkpt>
      <trkpt lat="48.16249" lon="7.19893">
        <ele>395</ele>
        <time>2019-04-13T16:13:44Z</time>
      </trkpt>
      <trkpt lat="48.16236" lon="7.19903">
        <ele>394</ele>
        <time>2019-04-13T16:14:44Z</time>
      </trkpt>
      <trkpt lat="48.16141" lon="7.19994">
        <ele>392</ele>
        <time>2019-04-13T16:15:44Z</time>
      </trkpt>
      <trkpt lat="48.16076" lon="7.20064">
        <ele>393</ele>
        <time>2019-04-13T16:16:44Z</time>
      </trkpt>
      <trkpt lat="48.16069" lon="7.20052">
        <ele>391</ele>
        <time>2019-04-13T16:17:44Z</time>
      </trkpt>
      <trkpt lat="48.16058" lon="7.20043">
        <ele>389</ele>
        <time>2019-04-13T16:18:44Z</time>
      </trkpt>
      <trkpt lat="48.16047" lon="7.20045">
        <ele>389</ele>
        <time>2019-04-13T16:19:44Z</time>
      </trkpt>
      <trkpt lat="48.16021" lon="7.20061">
        <ele>385</ele>
        <time>2019-04-13T16:20:44Z</time>
      </trkpt>
      <trkpt lat="48.15958" lon="7.20091">
        <ele>378</ele>
        <time>2019-04-13T16:21:44Z</time>
      </trkpt>
      <trkpt lat="48.15933" lon="7.20113">
        <ele>376</ele>
        <time>2019-04-13T16:22:44Z</time>
      </trkpt>
      <trkpt lat="48.15903" lon="7.20145">
        <ele>372</ele>
        <time>2019-04-13T16:23:44Z</time>
      </trkpt>
      <trkpt lat="48.15869" lon="7.20175">
        <ele>371</ele>
        <time>2019-04-13T16:24:44Z</time>
      </trkpt>
      <trkpt lat="48.15832" lon="7.202">
        <ele>369</ele>
        <time>2019-04-13T16:25:44Z</time>
      </trkpt>
      <trkpt lat="48.15709" lon="7.20263">
        <ele>375</ele>
        <time>2019-04-13T16:26:44Z</time>
      </trkpt>
      <trkpt lat="48.15676" lon="7.20287">
        <ele>371</ele>
        <time>2019-04-13T16:27:44Z</time>
      </trkpt>
      <trkpt lat="48.15657" lon="7.20306">
        <ele>367</ele>
        <time>2019-04-13T16:28:44Z</time>
      </trkpt>
      <trkpt lat="48.1564" lon="7.20318">
        <ele>363</ele>
        <time>2019-04-13T16:29:44Z</time>
      </trkpt>
      <trkpt lat="48.15625" lon="7.20323">
        <ele>362</ele>
        <time>2019-04-13T16:30:44Z</time>
      </trkpt>
      <trkpt lat="48.15615" lon="7.20323">
        <ele>362</ele>
        <time>2019-04-13T16:31:44Z</time>
      </trkpt>
      <trkpt lat="48.15603" lon="7.20313">
        <ele>365</ele>
        <time>2019-04-13T16:32:44Z</time>
      </trkpt>
      <trkpt lat="48.1559" lon="7.20288">
        <ele>370</ele>
        <time>2019-04-13T16:33:44Z</time>
      </trkpt>
      <trkpt lat="48.15563" lon="7.20216">
        <ele>373</ele>
        <time>2019-04-13T16:34:44Z</time>
      </trkpt>
      <trkpt lat="48.15553" lon="7.20133">
        <ele>377</ele>
        <time>2019-04-13T16:35:44Z</time>
      </trkpt>
      <trkpt lat="48.15525" lon="7.20012">
        <ele>378</ele>
        <time>2019-04-13T16:36:44Z</time>
      </trkpt>
      <trkpt lat="48.15513" lon="7.19976">
        <ele>377</ele>
        <time>2019-04-13T16:37:44Z</time>
      </trkpt>
      <trkpt lat="48.15488" lon="7.19917">
        <ele>375</ele>
        <time>2019-04-13T16:38:44Z</time>
      </trkpt>
      <trkpt lat="48.15465" lon="7.19876">
        <ele>375</ele>
        <time>2019-04-13T16:39:44Z</time>
      </trkpt>
      <trkpt lat="48.15445" lon="7.19849">
        <ele>373</ele>
        <time>2019-04-13T16:40:44Z</time>
      </trkpt>
      <trkpt lat="48.15423" lon="7.19823">
        <ele>368</ele>
        <time>2019-04-13T16:41:44Z</time>
      </trkpt>
      <trkpt lat="48.15386" lon="7.19787">
        <ele>365</ele>
        <time>2019-04-13T16:42:44Z</time>
      </trkpt>
      <trkpt lat="48.15342" lon="7.19752">
        <ele>361</ele>
        <time>2019-04-13T16:43:44Z</time>
      </trkpt>
      <trkpt lat="48.15282" lon="7.19667">
        <ele>362</ele>
        <time>2019-04-13T16:44:44Z</time>
      </trkpt>
      <trkpt lat="48.15113" lon="7.19405">
        <ele>369</ele>
        <time>2019-04-13T16:45:44Z</time>
      </trkpt>
      <trkpt lat="48.15081" lon="7.19343">
        <ele>364</ele>
        <time>2019-04-13T16:46:44Z</time>
      </trkpt>
      <trkpt lat="48.15039" lon="7.1925">
        <ele>364</ele>
        <time>2019-04-13T16:47:44Z</time>
      </trkpt>
      <trkpt lat="48.15029" lon="7.19239">
        <ele>363</ele>
        <time>2019-04-13T16:48:44Z</time>
      </trkpt>
      <trkpt lat="48.14968" lon="7.19256">
        <ele>360</ele>
        <time>2019-04-13T16:49:44Z</time>
      </trkpt>
      <trkpt lat="48.1496" lon="7.19256">
        <ele>361</ele>
        <time>2019-04-13T16:50:44Z</time>
      </trkpt>
      <trkpt lat="48.14947" lon="7.19249">
        <ele>362</ele>
        <time>2019-04-13T16:51:44Z</time>
      </trkpt>
      <trkpt lat="48.14939" lon="7.1924">
        <ele>363</ele>
        <time>2019-04-13T16:52:44Z</time>
      </trkpt>
      <trkpt lat="48.14934" lon="7.1923">
        <ele>363</ele>
        <time>2019-04-13T16:53:44Z</time>
      </trkpt>
      <trkpt lat="48.14928" lon="7.192">
        <ele>364</ele>
        <time>2019-04-13T16:54:44Z</time>
      </trkpt>
      <trkpt lat="48.14919" lon="7.1914">
        <ele>365</ele>
        <time>2019-04-13T16:55:44Z</time>
      </trkpt>
      <trkpt lat="48.14914" lon="7.19088">
        <ele>364</ele>
        <time>2019-04-13T16:56:44Z</time>
      </trkpt>
      <trkpt lat="48.14909" lon="7.19072">
        <ele>365</ele>
        <time>2019-04-13T16:57:44Z</time>
      </trkpt>
      <trkpt lat="48.149" lon="7.19063">
        <ele>365</ele>
        <time>2019-04-13T16:58:44Z</time>
      </trkpt>
      <trkpt lat="48.14885" lon="7.19065">
        <ele>367</ele>
        <time>2019-04-13T16:59:44Z</time>
      </trkpt>
      <trkpt lat="48.14841" lon="7.1908">
        <ele>371</ele>
        <time>2019-04-13T17:00:44Z</time>
      </trkpt>
      <trkpt lat="48.14824" lon="7.19088">
        <ele>376</ele>
        <time>2019-04-13T17:01:44Z</time>
      </trkpt>
      <trkpt lat="48.14793" lon="7.18985">
        <ele>377</ele>
        <time>2019-04-13T17:02:44Z</time>
      </trkpt>
      <trkpt lat="48.14774" lon="7.18904">
        <ele>375</ele>
        <time>2019-04-13T17:03:44Z</time>
      </trkpt>
      <trkpt lat="48.14758" lon="7.18877">
        <ele>376</ele>
        <time>2019-04-13T17:04:44Z</time>
      </trkpt>
      <trkpt lat="48.14743" lon="7.18861">
        <ele>376</ele>
        <time>2019-04-13T17:05:44Z</time>
      </trkpt>
      <trkpt lat="48.14719" lon="7.18843">
        <ele>376</ele>
        <time>2019-04-13T17:06:44Z</time>
      </trkpt>
      <trkpt lat="48.14705" lon="7.18825">
        <ele>376</ele>
        <time>2019-04-13T17:07:44Z</time>
      </trkpt>
      <trkpt lat="48.14683" lon="7.18791">
        <ele>376</ele>
        <time>2019-04-13T17:08:44Z</time>
      </trkpt>
      <trkpt lat="48.14669" lon="7.18761">
        <ele>376</ele>
        <time>2019-04-13T17:09:44Z</time>
      </trkpt>
      <trkpt lat="48.14632" lon="7.18625">
        <ele>379</ele>
        <time>2019-04-13T17:10:44Z</time>
      </trkpt>
      <trkpt lat="48.14626" lon="7.18624">
        <ele>379</ele>
        <time>2019-04-13T17:11:44Z</time>
      </trkpt>
      <trkpt lat="48.14582" lon="7.18453">
        <ele>381</ele>
        <time>2019-04-13T17:12:44Z</time>
      </trkpt>
      <trkpt lat="48.1457" lon="7.18411">
        <ele>381</ele>
        <time>2019-04-13T17:13:44Z</time>
      </trkpt>
      <trkpt lat="48.14552" lon="7.18372">
        <ele>382</ele>
        <time>2019-04-13T17:14:44Z</time>
      </trkpt>
      <trkpt lat="48.14528" lon="7.18338">
        <ele>382</ele>
        <time>2019-04-13T17:15:44Z</time>
      </trkpt>
      <trkpt lat="48.14502" lon="7.18309">
        <ele>382</ele>
        <time>2019-04-13T17:16:44Z</time>
      </trkpt>
      <trkpt lat="48.14469" lon="7.18286">
        <ele>383</ele>
        <time>2019-04-13T17:17:44Z</time>
      </trkpt>
      <trkpt lat="48.1447" lon="7.18257">
        <ele>384</ele>
        <time>2019-04-13T17:18:44Z</time>
      </trkpt>
      <trkpt lat="48.14456" lon="7.18259">
        <ele>384</ele>
        <time>2019-04-13T17:19:44Z</time>
      </trkpt>
      <trkpt lat="48.14419" lon="7.18255">
        <ele>385</ele>
        <time>2019-04-13T17:20:44Z</time>
      </trkpt>
      <trkpt lat="48.14383" lon="7.18248">
        <ele>386</ele>
        <time>2019-04-13T17:21:44Z</time>
      </trkpt>
      <trkpt lat="48.14354" lon="7.18237">
        <ele>387</ele>
        <time>2019-04-13T17:22:44Z</time>
      </trkpt>
      <trkpt lat="48.14311" lon="7.18211">
        <ele>390</ele>
        <time>2019-04-13T17:23:44Z</time>
      </trkpt>
      <trkpt lat="48.14234" lon="7.18159">
        <ele>400</ele>
        <time>2019-04-13T17:24:44Z</time>
      </trkpt>
      <trkpt lat="48.1422" lon="7.18148">
        <ele>402</ele>
        <time>2019-04-13T17:25:44Z</time>
      </trkpt>
      <trkpt lat="48.14209" lon="7.18133">
        <ele>404</ele>
        <time>2019-04-13T17:26:44Z</time>
      </trkpt>
      <trkpt lat="48.14201" lon="7.18115">
        <ele>406</ele>
        <time>2019-04-13T17:27:44Z</time>
      </trkpt>
      <trkpt lat="48.14188" lon="7.18075">
        <ele>408</ele>
        <time>2019-04-13T17:28:44Z</time>
      </trkpt>
      <trkpt lat="48.14166" lon="7.17978">
        <ele>410</ele>
        <time>2019-04-13T17:29:44Z</time>
      </trkpt>
      <trkpt lat="48.14157" lon="7.17953">
        <ele>414</ele>
        <time>2019-04-13T17:30:44Z</time>
      </trkpt>
      <trkpt lat="48.14144" lon="7.17927">
        <ele>415</ele>
        <time>2019-04-13T17:31:44Z</time>
      </trkpt>
      <trkpt lat="48.14113" lon="7.17879">
        <ele>417</ele>
        <time>2019-04-13T17:32:44Z</time>
      </trkpt>
      <trkpt lat="48.14096" lon="7.17861">
        <ele>417</ele>
        <time>2019-04-13T17:33:44Z</time>
      </trkpt>
      <trkpt lat="48.14082" lon="7.1785">
        <ele>416</ele>
        <time>2019-04-13T17:34:44Z</time>
      </trkpt>
      <trkpt lat="48.13979" lon="7.17791">
        <ele>418</ele>
        <time>2019-04-13T17:35:44Z</time>
      </trkpt>
      <trkpt lat="48.13956" lon="7.17774">
        <ele>419</ele>
        <time>2019-04-13T17:36:44Z</time>
      </trkpt>
      <trkpt lat="48.13938" lon="7.17755">
        <ele>420</ele>
        <time>2019-04-13T17:37:44Z</time>
      </trkpt>
      <trkpt lat="48.13893" lon="7.1768">
        <ele>420</ele>
        <time>2019-04-13T17:38:44Z</time>
      </trkpt>
      <trkpt lat="48.13831" lon="7.17564">
        <ele>416</ele>
        <time>2019-04-13T17:39:44Z</time>
      </trkpt>
      <trkpt lat="48.13821" lon="7.17551">
        <ele>418</ele>
        <time>2019-04-13T17:40:44Z</time>
      </trkpt>
      <trkpt lat="48.13807" lon="7.17538">
        <ele>419</ele>
        <time>2019-04-13T17:41:44Z</time>
      </trkpt>
      <trkpt lat="48.1379" lon="7.17528">
        <ele>419</ele>
        <time>2019-04-13T17:42:44Z</time>
      </trkpt>
      <trkpt lat="48.13752" lon="7.17515">
        <ele>417</ele>
        <time>2019-04-13T17:43:44Z</time>
      </trkpt>
      <trkpt lat="48.13732" lon="7.17511">
        <ele>417</ele>
        <time>2019-04-13T17:44:44Z</time>
      </trkpt>
      <trkpt lat="48.13717" lon="7.1751">
        <ele>418</ele>
        <time>2019-04-13T17:45:44Z</time>
      </trkpt>
      <trkpt lat="48.13674" lon="7.17516">
        <ele>419</ele>
        <time>2019-04-13T17:46:44Z</time>
      </trkpt>
      <trkpt lat="48.13661" lon="7.17515">
        <ele>419</ele>
        <time>2019-04-13T17:47:44Z</time>
      </trkpt>
      <trkpt lat="48.13649" lon="7.17511">
        <ele>419</ele>
        <time>2019-04-13T17:48:44Z</time>
      </trkpt>
      <trkpt lat="48.13618" lon="7.17492">
        <ele>421</ele>
        <time>2019-04-13T17:49:44Z</time>
      </trkpt>
      <trkpt lat="48.13601" lon="7.17475">
        <ele>422</ele>
        <time>2019-04-13T17:50:44Z</time>
      </trkpt>
      <trkpt lat="48.13537" lon="7.17402">
        <ele>426</ele>
        <time>2019-04-13T17:51:44Z</time>
      </trkpt>
      <trkpt lat="48.13524" lon="7.17378">
        <ele>428</ele>
        <time>2019-04-13T17:52:44Z</time>
      </trkpt>
      <trkpt lat="48.13498" lon="7.17294">
        <ele>437</ele>
        <time>2019-04-13T17:53:44Z</time>
      </trkpt>
      <trkpt lat="48.13483" lon="7.17272">
        <ele>440</ele>
        <time>2019-04-13T17:54:44Z</time>
      </trkpt>
      <trkpt lat="48.13467" lon="7.17256">
        <ele>440</ele>
        <time>2019-04-13T17:55:44Z</time>
      </trkpt>
      <trkpt lat="48.1344" lon="7.1724">
        <ele>438</ele>
        <time>2019-04-13T17:56:44Z</time>
      </trkpt>
      <trkpt lat="48.13419" lon="7.1723">
        <ele>435</ele>
        <time>2019-04-13T17:57:44Z</time>
      </trkpt>
      <trkpt lat="48.13333" lon="7.17203">
        <ele>433</ele>
        <time>2019-04-13T17:58:44Z</time>
      </trkpt>
      <trkpt lat="48.13307" lon="7.17191">
        <ele>435</ele>
        <time>2019-04-13T17:59:44Z</time>
      </trkpt>
      <trkpt lat="48.1325" lon="7.17159">
        <ele>438</ele>
        <time>2019-04-13T18:00:44Z</time>
      </trkpt>
      <trkpt lat="48.1323" lon="7.17146">
        <ele>440</ele>
        <time>2019-04-13T18:01:44Z</time>
      </trkpt>
      <trkpt lat="48.13179" lon="7.17105">
        <ele>443</ele>
        <time>2019-04-13T18:02:44Z</time>
      </trkpt>
      <trkpt lat="48.1316" lon="7.17084">
        <ele>442</ele>
        <time>2019-04-13T18:03:44Z</time>
      </trkpt>
      <trkpt lat="48.13103" lon="7.16988">
        <ele>445</ele>
        <time>2019-04-13T18:04:44Z</time>
      </trkpt>
      <trkpt lat="48.13094" lon="7.16972">
        <ele>446</ele>
        <time>2019-04-13T18:05:44Z</time>
      </trkpt>
      <trkpt lat="48.1308" lon="7.16956">
        <ele>446</ele>
        <time>2019-04-13T18:06:44Z</time>
      </trkpt>
      <trkpt lat="48.13" lon="7.16895">
        <ele>450</ele>
        <time>2019-04-13T18:07:44Z</time>
      </trkpt>
      <trkpt lat="48.12843" lon="7.16718">
        <ele>459</ele>
        <time>2019-04-13T18:08:44Z</time>
      </trkpt>
      <trkpt lat="48.12791" lon="7.16683">
        <ele>463</ele>
        <time>2019-04-13T18:09:44Z</time>
      </trkpt>
      <trkpt lat="48.12748" lon="7.16642">
        <ele>466</ele>
        <time>2019-04-13T18:10:44Z</time>
      </trkpt>
      <trkpt lat="48.12713" lon="7.16605">
        <ele>467</ele>
        <time>2019-04-13T18:11:44Z</time>
      </trkpt>
      <trkpt lat="48.12682" lon="7.16577">
        <ele>467</ele>
        <time>2019-04-13T18:12:44Z</time>
      </trkpt>
      <trkpt lat="48.12658" lon="7.1655">
        <ele>469</ele>
        <time>2019-04-13T18:13:44Z</time>
      </trkpt>
      <trkpt lat="48.12639" lon="7.16519">
        <ele>470</ele>
        <time>2019-04-13T18:14:44Z</time>
      </trkpt>
      <trkpt lat="48.12627" lon="7.16504">
        <ele>471</ele>
        <time>2019-04-13T18:15:44Z</time>
      </trkpt>
      <trkpt lat="48.12623" lon="7.16492">
        <ele>471</ele>
        <time>2019-04-13T18:16:44Z</time>
      </trkpt>
      <trkpt lat="48.12621" lon="7.16478">
        <ele>472</ele>
        <time>2019-04-13T18:17:44Z</time>
      </trkpt>
      <trkpt lat="48.12641" lon="7.16163">
        <ele>484</ele>
        <time>2019-04-13T18:18:44Z</time>
      </trkpt>
      <trkpt lat="48.12641" lon="7.16139">
        <ele>486</ele>
        <time>2019-04-13T18:19:44Z</time>
      </trkpt>
      <trkpt lat="48.12627" lon="7.16026">
        <ele>491</ele>
        <time>2019-04-13T18:20:44Z</time>
      </trkpt>
      <trkpt lat="48.12626" lon="7.16006">
        <ele>491</ele>
        <time>2019-04-13T18:21:44Z</time>
      </trkpt>
      <trkpt lat="48.12629" lon="7.15958">
        <ele>492</ele>
        <time>2019-04-13T18:22:44Z</time>
      </trkpt>
      <trkpt lat="48.12629" lon="7.15921">
        <ele>492</ele>
        <time>2019-04-13T18:23:44Z</time>
      </trkpt>
      <trkpt lat="48.12625" lon="7.15883">
        <ele>494</ele>
        <time>2019-04-13T18:24:44Z</time>
      </trkpt>
      <trkpt lat="48.12673" lon="7.15866">
        <ele>492</ele>
        <time>2019-04-13T18:25:44Z</time>
      </trkpt>
      <trkpt lat="48.12667" lon="7.15829">
        <ele>493</ele>
        <time>2019-04-13T18:26:44Z</time>
      </trkpt>
      <trkpt lat="48.12651" lon="7.15778">
        <ele>498</ele>
        <time>2019-04-13T18:27:44Z</time>
      </trkpt>
      <trkpt lat="48.12645" lon="7.15751">
        <ele>500</ele>
        <time>2019-04-13T18:28:44Z</time>
      </trkpt>
      <trkpt lat="48.12638" lon="7.15711">
        <ele>502</ele>
        <time>2019-04-13T18:29:44Z</time>
      </trkpt>
      <trkpt lat="48.12636" lon="7.15669">
        <ele>503</ele>
        <time>2019-04-13T18:30:44Z</time>
      </trkpt>
      <trkpt lat="48.12632" lon="7.15654">
        <ele>503</ele>
        <time>2019-04-13T18:31:44Z</time>
      </trkpt>
      <trkpt lat="48.12627" lon="7.15638">
        <ele>502</ele>
        <time>2019-04-13T18:32:44Z</time>
      </trkpt>
      <trkpt lat="48.12618" lon="7.15627">
        <ele>501</ele>
        <time>2019-04-13T18:33:44Z</time>
      </trkpt>
      <trkpt lat="48.12609" lon="7.1562">
        <ele>500</ele>
        <time>2019-04-13T18:34:44Z</time>
      </trkpt>
      <trkpt lat="48.12607" lon="7.15611">
        <ele>500</ele>
        <time>2019-04-13T18:35:44Z</time>
      </trkpt>
      <trkpt lat="48.12562" lon="7.15562">
        <ele>501</ele>
        <time>2019-04-13T18:36:44Z</time>
      </trkpt>
      <trkpt lat="48.12555" lon="7.15551">
        <ele>502</ele>
        <time>2019-04-13T18:37:44Z</time>
      </trkpt>
      <trkpt lat="48.12547" lon="7.15521">
        <ele>503</ele>
        <time>2019-04-13T18:38:44Z</time>
      </trkpt>
      <trkpt lat="48.12546" lon="7.15459">
        <ele>505</ele>
        <time>2019-04-13T18:39:44Z</time>
      </trkpt>
      <trkpt lat="48.12541" lon="7.1542">
        <ele>507</ele>
        <time>2019-04-13T18:40:44Z</time>
      </trkpt>
      <trkpt lat="48.12528" lon="7.15379">
        <ele>509</ele>
        <time>2019-04-13T18:41:44Z</time>
      </trkpt>
      <trkpt lat="48.12516" lon="7.15354">
        <ele>510</ele>
        <time>2019-04-13T18:42:44Z</time>
      </trkpt>
      <trkpt lat="48.12494" lon="7.1532">
        <ele>512</ele>
        <time>2019-04-13T18:43:44Z</time>
      </trkpt>
      <trkpt lat="48.12483" lon="7.15307">
        <ele>513</ele>
        <time>2019-04-13T18:44:44Z</time>
      </trkpt>
      <trkpt lat="48.12475" lon="7.15301">
        <ele>513</ele>
        <time>2019-04-13T18:45:44Z</time>
      </trkpt>
      <trkpt lat="48.12455" lon="7.15293">
        <ele>513</ele>
        <time>2019-04-13T18:46:44Z</time>
      </trkpt>
      <trkpt lat="48.12426" lon="7.15286">
        <ele>513</ele>
        <time>2019-04-13T18:47:44Z</time>
      </trkpt>
      <trkpt lat="48.1237" lon="7.15276">
        <ele>514</ele>
        <time>2019-04-13T18:48:44Z</time>
      </trkpt>
      <trkpt lat="48.12342" lon="7.15264">
        <ele>514</ele>
        <time>2019-04-13T18:49:44Z</time>
      </trkpt>
      <trkpt lat="48.12327" lon="7.1525">
        <ele>514</ele>
        <time>2019-04-13T18:50:44Z</time>
      </trkpt>
      <trkpt lat="48.12316" lon="7.15234">
        <ele>516</ele>
        <time>2019-04-13T18:51:44Z</time>
      </trkpt>
      <trkpt lat="48.12286" lon="7.15179">
        <ele>518</ele>
        <time>2019-04-13T18:52:44Z</time>
      </trkpt>
      <trkpt lat="48.12265" lon="7.15144">
        <ele>520</ele>
        <time>2019-04-13T18:53:44Z</time>
      </trkpt>
      <trkpt lat="48.12224" lon="7.15063">
        <ele>524</ele>
        <time>2019-04-13T18:54:44Z</time>
      </trkpt>
      <trkpt lat="48.12194" lon="7.15009">
        <ele>526</ele>
        <time>2019-04-13T18:55:44Z</time>
      </trkpt>
      <trkpt lat="48.12164" lon="7.14965">
        <ele>529</ele>
        <time>2019-04-13T18:56:44Z</time>
      </trkpt>
      <trkpt lat="48.12072" lon="7.14788">
        <ele>540</ele>
        <time>2019-04-13T18:57:44Z</time>
      </trkpt>
      <trkpt lat="48.12053" lon="7.14739">
        <ele>543</ele>
        <time>2019-04-13T18:58:44Z</time>
      </trkpt>
      <trkpt lat="48.1204" lon="7.14713">
        <ele>544</ele>
        <time>2019-04-13T18:59:44Z</time>
      </trkpt>
      <trkpt lat="48.11992" lon="7.14631">
        <ele>547</ele>
        <time>2019-04-13T19:00:44Z</time>
      </trkpt>
      <trkpt lat="48.11971" lon="7.14585">
        <ele>550</ele>
        <time>2019-04-13T19:01:44Z</time>
      </trkpt>
      <trkpt lat="48.11961" lon="7.14567">
        <ele>551</ele>
        <time>2019-04-13T19:02:44Z</time>
      </trkpt>
      <trkpt lat="48.11945" lon="7.1455">
        <ele>552</ele>
        <time>2019-04-13T19:03:44Z</time>
      </trkpt>
      <trkpt lat="48.11874" lon="7.14495">
        <ele>555</ele>
        <time>2019-04-13T19:04:44Z</time>
      </trkpt>
      <trkpt lat="48.11836" lon="7.14449">
        <ele>558</ele>
        <time>2019-04-13T19:05:44Z</time>
      </trkpt>
      <trkpt lat="48.11824" lon="7.14427">
        <ele>558</ele>
        <time>2019-04-13T19:06:44Z</time>
      </trkpt>
      <trkpt lat="48.11815" lon="7.14402">
        <ele>559</ele>
        <time>2019-04-13T19:07:44Z</time>
      </trkpt>
      <trkpt lat="48.11806" lon="7.14371">
        <ele>560</ele>
        <time>2019-04-13T19:08:44Z</time>
      </trkpt>
      <trkpt lat="48.11803" lon="7.14351">
        <ele>561</ele>
        <time>2019-04-13T19:09:44Z</time>
      </trkpt>
      <trkpt lat="48.118" lon="7.14219">
        <ele>567</ele>
        <time>2019-04-13T19:10:44Z</time>
      </trkpt>
      <trkpt lat="48.11793" lon="7.14099">
        <ele>574</ele>
        <time>2019-04-13T19:11:44Z</time>
      </trkpt>
      <trkpt lat="48.11793" lon="7.14072">
        <ele>576</ele>
        <time>2019-04-13T19:12:44Z</time>
      </trkpt>
      <trkpt lat="48.11812" lon="7.13912">
        <ele>583</ele>
        <time>2019-04-13T19:13:44Z</time>
      </trkpt>
      <trkpt lat="48.11834" lon="7.13634">
        <ele>595</ele>
        <time>2019-04-13T19:14:44Z</time>
      </trkpt>
      <trkpt lat="48.11834" lon="7.13596">
        <ele>598</ele>
        <time>2019-04-13T19:15:44Z</time>
      </trkpt>
      <trkpt lat="48.11832" lon="7.13572">
        <ele>600</ele>
        <time>2019-04-13T19:16:44Z</time>
      </trkpt>
      <trkpt lat="48.11822" lon="7.13521">
        <ele>604</ele>
        <time>2019-04-13T19:17:44Z</time>
      </trkpt>
      <trkpt lat="48.11769" lon="7.13334">
        <ele>611</ele>
        <time>2019-04-13T19:18:44Z</time>
      </trkpt>
      <trkpt lat="48.11746" lon="7.13207">
        <ele>616</ele>
        <time>2019-04-13T19:19:44Z</time>
      </trkpt>
      <trkpt lat="48.11733" lon="7.13112">
        <ele>621</ele>
        <time>2019-04-13T19:20:44Z</time>
      </trkpt>
      <trkpt lat="48.11721" lon="7.13063">
        <ele>624</ele>
        <time>2019-04-13T19:21:44Z</time>
      </trkpt>
      <trkpt lat="48.11658" lon="7.12902">
        <ele>635</ele>
        <time>2019-04-13T19:22:44Z</time>
      </trkpt>
      <trkpt lat="48.11643" lon="7.12849">
        <ele>639</ele>
        <time>2019-04-13T19:23:44Z</time>
      </trkpt>
      <trkpt lat="48.1164" lon="7.12821">
        <ele>641</ele>
        <time>2019-04-13T19:24:44Z</time>
      </trkpt>
      <trkpt lat="48.11638" lon="7.12664">
        <ele>655</ele>
        <time>2019-04-13T19:25:44Z</time>
      </trkpt>
      <trkpt lat="48.11636" lon="7.12645">
        <ele>656</ele>
        <time>2019-04-13T19:26:44Z</time>
      </trkpt>
    </trkseg>
  </trk>
</gpx>